     2.11           OBSERVATION DATA    G (GPS)             RINEX VERSION / TYPE
teqc 2010Oct21 OPUS Account 20111027 17:09:00UTC            PGM / RUN BY / DATE
X 1524                                                      MARKER NAME
3003                                                        MARKER NUMBER
CSMIDDLETON NGS                                             OBSERVER / AGENCY
0440103897 TRIMBLE 5700 1.04                                REC # / TYPE / VERS
12299603 TRM41249.00 NONE                                   ANT # / TYPE
  -761997.3929 -5537586.0352  3061544.4043                  APPROX POSITION XYZ
        1.9990        0.0000        0.0000                  ANTENNA: DELTA H/E/N
     1     1                                                WAVELENGTH FACT L1/2
     5    L1    L2    C1    P1    P2                        # / TYPES OF OBSERV
    15                                                      LEAP SECONDS
  2011     8    17     0     0   30.0000000     GPS         TIME OF FIRST OBS
                                                            END OF HEADER
 11  8 17  0  0 30.0000000  0  8G12G28G10G17G05G04G09G02
 -22154440.68757 -17247862.08155  22212915.7274                   22212914.0394
 -72053164.05556 -56132547.60553  24049081.7344                   24049083.7664
 -35715129.87258 -27815153.15056  21068231.3984                   21068229.9964
 -65486222.35157 -51011991.27855  22491300.4304                   22491299.4024
 -13101249.57757 -10193211.70155  23129925.6884                   23129926.4414
 -55879860.15158 -43525525.44556  20728815.5234                   20728814.0634
 -30729232.80757 -23928599.27954  22710971.3674                   22710971.6454
 -43460925.26258 -33849405.25156  20651673.1954                   20651669.3364
 11  8 17  0  1  0.0000000  0  8G12G28G10G17G05G04G09G02
 -22306262.55747 -17366164.78845  22184024.9144                   22184023.6414
 -72022673.24846 -56108788.74943  24054883.6804                   24054886.2074
 -35824767.87948 -27900585.32746  21047367.4384                   21047366.5234
 -65511665.28647 -51031816.98645  22486458.4774                   22486457.0594
 -13274636.83947 -10328318.45945  23096931.3754                   23096931.7154
 -55886633.84648 -43530803.66446  20727526.4384                   20727525.3244
 -30737753.50947 -23935238.84945  22709349.9144                   22709349.9144
 -43552252.72648 -33920569.47146  20634294.0394                   20634290.0354
 11  8 17  0  1 30.0000000  0  8G12G28G10G17G05G04G09G02
 -22457781.11747 -17484231.15545  22155192.0634                   22155189.7814
 -71991941.45146 -56084842.09243  24060732.1644                   24060733.9534
 -35933819.71848 -27985560.75446  21026615.6484                   21026614.8054
 -65536957.45347 -51051525.20945  22481645.4844                   22481644.7854
 -13447880.67747 -10463313.46145  23063963.1644                   23063964.5124
 -55893090.38048 -43535834.74346  20726297.8204                   20726296.2304
 -30745861.24046 -23941556.63145  22707806.8524                   22707807.6334
 -43643196.41448 -33991434.65346  20616987.9454                   20616983.8834
 11  8 17  0  2  0.0000000  0  8G12G28G10G17G05G04G09G02
 -22608999.41947 -17602063.57345  22126416.1564                   22126414.1604
 -71960976.26346 -56060713.66843  24066624.4064                   24066627.2704
 -36042288.92148 -28070082.16046  21005974.8524                   21005973.0664
 -65562104.07247 -51071120.01245  22476860.9224                   22476858.9344
 -13620983.88447 -10598198.90445  23031022.7274                   23031023.9414
 -55899237.78148 -43540624.93946  20725128.0004                   20725126.2384
 -30753564.72947 -23947559.41145  22706341.1884                   22706341.6024
 -43733762.89048 -34062005.90047  20599753.5944                   20599750.1844
 11  8 17  0  2 30.0000000  0  8G12G28G10G17G05G04G09G02
 -22759917.72347 -17719662.20145  22097697.4614                   22097695.8014
 -71929782.65146 -56036407.20143  24072560.6644                   24072563.1954
 -36150175.77648 -28154149.80946  20985444.8834                   20985443.5784
 -65587107.13047 -51090602.93745  22472102.9534                   22472101.0784
 -13793946.28047 -10732974.60545  22998109.4064                   22998110.2304
 -55905081.13048 -43545178.20746  20724016.1644                   20724014.4774
 -30760870.05247 -23953251.94345  22704950.8984                   22704951.1024
 -43823955.33348 -34132285.69346  20582590.2814                   20582586.4534
 11  8 17  0  3  0.0000000  0  8G12G28G10G17G05G04G09G02
 -21335108.17747 -16609420.96646  22368829.5944                   22368827.9144
 -70322943.30246 -54784324.77543  24378331.7424                   24378335.1644
 -34682055.06548 -27010159.60146  21264818.4064                   21264817.6334
 -64036545.31247 -49882372.98445  22767164.7974                   22767163.4414
 -12391339.01847  -9640033.69645  23265015.6564                   23265016.4184
 -54335202.66648 -42321896.30746  21022754.0394                   21022752.5514
 -29192360.09247 -22731036.42044  23003428.7194                   23003428.6764
 -42338351.35348 -32974672.16147  20865291.6174                   20865288.0124
 11  8 17  0  3 30.0000000  0  8G12G28G10G17G05G04G09G02
 -21485414.98647 -16726543.12845  22340226.8524                   22340224.5824
 -70291294.95946 -54759663.90043  24384355.3134                   24384357.4494
 -34788768.73848 -27093313.08246  21244511.5314                   21244510.8014
 -64061256.14047 -49901628.22745  22762462.1484                   22762461.3984
 -12564007.48947  -9774580.38345  23232158.1334                   23232159.0784
 -54340441.43548 -42325978.47846  21021757.0554                   21021755.8164
 -29198875.09547 -22736113.12744  23002188.6884                   23002189.0864
 -42427794.51848 -33044368.11446  20848271.1174                   20848267.5354
 11  8 17  0  4  0.0000000  0  8G12G28G10G17G05G04G09G02
 -21635413.26647 -16843424.86046  22311683.3284                   22311681.4104
 -70259423.59846 -54734829.32442  24390420.1724                   24390422.9884
 -34894893.76348 -27176007.88946  21224316.2894                   21224315.6884
 -64085820.88747 -49920769.62845  22757788.7034                   22757786.5744
 -12736525.59247  -9909009.90345  23199329.3984                   23199329.7504
 -54345382.75848 -42329828.87646  21020816.9614                   21020815.7424
 -29205001.01946 -22740886.62745  23001022.7734                   23001023.6644
 -42516865.09648 -33113773.73146  20831321.5004                   20831318.1254
 11  8 17  0  4 30.0000000  0  8G12G28G10G17G05G04G09G02
 -21785098.70347 -16960062.82845  22283199.0004                   22283197.0084
 -70227329.16645 -54709820.91042  24396527.7664                   24396529.1644
 -35000426.51648 -27258241.15946  21204234.3834                   21204233.2074
 -64110237.00747 -49939795.19745  22753141.8754                   22753140.3634
 -12908888.53447 -10043318.53145  23166529.3754                   23166529.9224
 -54350026.85648 -42333447.67146  21019933.5704                   21019931.5314
 -29210739.23447 -22745358.01145  22999931.2194                   22999931.7504
 -42605561.55948 -33182887.83846  20814443.2114                   20814439.7544
 11  8 17  0  5  0.0000000  0  8G12G28G10G17G05G04G09G02
 -21934468.31447 -17076454.69446  22254775.2584                   22254773.1414
 -70195012.96946 -54684639.68442  24402677.3914                   24402679.3364
 -35105364.64148 -27340011.08846  21184265.7344                   21184263.9884
 -64134504.25547 -49958704.76145  22748524.6174                   22748522.6254
 -13081093.17747 -10177503.80345  23133759.6644                   23133760.6374
 -54354375.59548 -42336836.32246  21019105.3444                   21019104.3444
 -29216092.08647 -22749529.11845  22998912.8284                   22998912.9694
 -42693884.39648 -33251710.80246  20797635.9144                   20797632.1054
 11  8 17  0  5 30.0000000  0  7G12G10G17G05G04G09G02
 -22083519.88047 -17192598.74546  22226411.6414                   22226409.7114
 -35209706.72348 -27421316.57646  21164409.5474                   21164408.4384
 -64158621.86047 -49977497.73445  22743935.3364                   22743933.0704
 -13253136.68047 -10311563.52745  23101021.0394                   23101021.3054
 -54358432.19248 -42339997.33046  21018333.8134                   21018332.5234
 -29221063.66546 -22753403.14845  22997966.7734                   22997966.8754
 -42781835.13848 -33320243.81447  20780899.1644                   20780895.4344
 11  8 17  0  6  0.0000000  0  7G12G10G17G05G04G09G02
 -22232253.65247 -17308495.14046  22198108.0864                   22198106.5664
 -35313453.94248 -27502158.53046  21144667.1024                   21144665.8834
 -64182592.05747 -49996175.81645  22739373.0234                   22739371.5904
 -13425018.98747 -10445497.63545  23068312.2894                   23068313.0124
 -54362201.56147 -42342934.51046  21017616.4694                   21017614.8054
 -29225660.13146 -22756984.85345  22997091.9614                   22997092.4064
 -42869417.18348 -33388489.54746  20764233.2664                   20764229.3164
 11  8 17  0  6 30.0000000  0  7G12G10G17G05G04G09G02
 -22380655.65547 -17424133.03046  22169868.1804                   22169866.1804
 -35416592.85548 -27582526.48446  21125040.6094                   21125039.3954
 -64206402.87247 -50014729.73545  22734842.1564                   22734840.9844
 -13596725.48847 -10579294.74945  23035638.1094                   23035638.9614
 -54365674.85347 -42345640.99046  21016955.2424                   21016953.7584
 -29229873.52946 -22760268.10345  22996290.5634                   22996290.7114
 -42956619.99448 -33456439.75746  20747638.5864                   20747635.1764
 11  8 17  0  7  0.0000000  0  7G12G10G17G05G04G09G02
 -22528716.16847 -17539504.80146  22141693.1024                   22141691.2074
 -35519114.63748 -27662413.54746  21105530.9064                   21105529.5634
 -64230046.99147 -50033153.74845  22730342.6414                   22730342.1954
 -13768246.70547 -10712947.48945  23002998.4384                   23002999.3324
 -54368847.26047 -42348113.01046  21016351.8284                   21016350.9804
 -29233699.98346 -22763249.82045  22995562.5164                   22995562.7234
 -43043437.20548 -33524089.51146  20731118.1254                   20731114.5044
 11  8 17  0  7 30.0000000  0  7G12G10G17G05G04G09G02
 -22676440.77247 -17654614.84146  22113582.4924                   22113580.1804
 -35621025.69048 -27741824.71246  21086138.0394                   21086136.7194
 -64253531.45047 -50051453.34745  22725873.8204                   22725872.4304
 -13939587.68347 -10846459.78945  22970392.9774                   22970393.5514
 -54371729.24447 -42350358.73146  21015803.3364                   21015801.7114
 -29237150.91346 -22765938.92545  22994905.3284                   22994906.3554
 -43129877.72948 -33591445.73546  20714669.0944                   20714664.9804
 11  8 17  0  8  0.0000000  0  7G12G10G17G05G04G09G02
 -22823825.68047 -17769460.17546  22085535.9924                   22085533.5984
 -35722322.98248 -27820757.63446  21066861.6484                   21066860.6564
 -64276854.59347 -50069627.24445  22721435.2504                   22721434.2274
 -14110743.63947 -10979827.91545  22937822.6564                   22937823.3524
 -54374321.69947 -42352378.84446  21015310.0314                   21015308.7584
 -29240228.09246 -22768336.82344  22994319.8594                   22994320.4144
 -43215940.82548 -33658507.86046  20698291.7584                   20698287.7074
 11  8 17  0  8 30.0000000  0  7G12G10G17G05G04G09G02
 -22970872.10347 -17884041.77746  22057554.1884                   22057551.9184
 -35823009.25547 -27899214.43046  21047702.1804                   21047700.6954
 -64300019.87647 -50087678.14945  22717026.9454                   22717025.6764
 -14281715.79147 -11113052.82845  22905288.3754                   22905288.8754
 -54376631.15948 -42354178.44846  21014870.6254                   21014869.3984
 -29242939.04446 -22770449.31545  22993803.6564                   22993804.4884
 -43301631.34448 -33725279.68346  20681985.5084                   20681981.3874
 11  8 17  0  9  0.0000000  0  7G12G10G17G05G04G09G02
 -23117582.56747 -17998361.56546  22029635.7194                   22029632.9024
 -35923087.18448 -27977197.19246  21028657.6724                   21028656.2274
 -64323031.63747 -50105609.38445  22712648.4924                   22712647.3984
 -14452506.24447 -11246136.15245  22872787.1414                   22872787.6684
 -54378664.73248 -42355763.06546  21014483.7344                   21014482.3054
 -29245291.82147 -22772282.73344  22993356.4224                   22993356.6254
 -43386954.92848 -33791765.57346  20665748.5084                   20665744.7114
 11  8 17  0  9 30.0000000  0  7G12G10G17G05G04G09G02
 -23263955.78247 -18112418.58146  22001781.9384                   22001779.4144
 -36022556.38148 -28054705.62846  21009729.2424                   21009727.4454
 -64345890.30847 -50123421.38945  22708298.8054                   22708297.0634
 -14623113.57347 -11379076.79345  22840322.2034                   22840322.3594
 -54380426.09648 -42357135.57846  21014148.8524                   21014146.7544
 -29247291.12847 -22773840.68444  22992975.9774                   22992976.9384
 -43471913.87948 -33857967.33846  20649581.7424                   20649577.8014
 11  8 17  0 10  0.0000000  0  7G12G10G17G05G04G09G02
 -23409986.77447 -18226208.91146  21973993.1024                   21973991.4384
 -36121413.18648 -28131736.86346  20990917.8134                   20990915.9804
 -64368593.11647 -50141111.93145  22703978.5084                   22703976.9734
 -14793532.10347 -11511870.29545  22807892.2664                   22807893.2114
 -54381915.23648 -42358295.97446  21013865.3754                   21013863.9884
 -29248937.90547 -22775123.97444  22992662.8914                   22992663.4384
 -43556506.69048 -33923883.81447  20633484.5314                   20633479.9654
 11  8 17  0 10 30.0000000  0  7G12G10G17G05G04G09G02
 -23555674.38947 -18339731.69046  21946269.5864                   21946267.4024
 -36219657.19148 -28208290.60146  20972222.2504                   20972220.9454
 -64391140.67247 -50158681.49945  22699687.8054                   22699686.3094
 -14963760.16147 -11644515.41545  22775499.0944                   22775499.3014
 -54383135.75248 -42359247.02846  21013633.1094                   21013631.8054
 -29250236.75947 -22776136.14444  22992415.3754                   22992416.1334
 -43640735.24348 -33989516.43946  20617456.0634                   20617451.9384
 11  8 17  0 11  0.0000000  0  7G12G10G17G05G04G09G02
 -23701022.28447 -18452989.75246  21918610.8134                   21918608.3834
 -36317292.93647 -28284370.35946  20953642.6954                   20953641.5394
 -64413538.55147 -50176134.40845  22695425.4924                   22695423.9104
 -15133801.47047 -11777014.98445  22743140.9144                   22743141.4184
 -54384096.15648 -42359995.43346  21013450.0474                   21013449.0204
 -29251197.24747 -22776884.62644  22992233.8594                   22992233.6804
 -43724606.74347 -34054870.84646  20601495.8204                   20601491.6564
 11  8 17  0 11 30.0000000  0  7G12G10G17G05G04G09G02
 -23846023.33748 -18565977.54446  21891017.6484                   21891015.5124
 -36414314.70748 -28359971.70846  20935180.0944                   20935178.8284
 -64435782.36247 -50193467.26945  22691193.1804                   22691190.7774
 -15303648.08747 -11909362.86845  22710820.2424                   22710820.8554
 -54384794.49048 -42360539.59546  21013317.3134                   21013315.9344
 -29251818.50947 -22777368.79444  22992115.0704                   22992115.0514
 -43808117.67348 -34119944.28647  20585604.1094                   20585599.9414
 11  8 17  0 12  0.0000000  0  7G12G10G17G05G04G09G02
 -23990676.04347 -18678693.90746  21863491.5704                   21863489.1524
 -36510721.65248 -28435093.96946  20916834.3984                   20916833.1054
 -64457872.11547 -50210680.09145  22686989.6564                   22686988.4064
 -15473297.99947 -12041557.46245  22678537.0704                   22678537.3164
 -54385233.91848 -42360882.01646  21013233.9304                   21013232.4614
 -29252104.59047 -22777591.82044  22992060.1254                   22992061.1054
 -43891269.56948 -34184737.97746  20569780.7114                   20569777.4264
 11  8 17  0 12 30.0000000  0  7G12G10G17G05G04G09G02
 -24134978.87747 -18791137.64046  21836031.3754                   21836028.9534
 -36606513.56948 -28509736.99346  20898605.7974                   20898604.2424
 -64479807.97347 -50227772.97845  22682815.2274                   22682814.1174
 -15642749.71747 -12173597.63945  22646290.9224                   22646290.5744
 -54385417.86548 -42361025.37046  21013198.8134                   21013196.9384
 -29252060.02246 -22777557.15544  22992069.5784                   22992069.5234
 -43974064.56848 -34249253.55746  20554025.5084                   20554021.5594
 11  8 17  0 13  0.0000000  0  7G12G10G17G05G04G09G02
 -24278928.03348 -18903305.79046  21808638.6724                   21808636.6254
 -36701687.86348 -28583898.74346  20880494.8284                   20880493.3054
 -64501588.59547 -50244744.92745  22678670.3524                   22678669.7584
 -15811999.17047 -12305480.20545  22614083.7974                   22614084.0204
 -54385347.85948 -42360970.84146  21013212.6334                   21013210.3794
 -29251687.31646 -22777266.83444  22992139.8594                   22992140.7504
 -44056502.85048 -34313491.18246  20538338.1094                   20538334.1724
 11  8 17  0 13 30.0000000  0  7G12G10G17G05G04G09G02
 -24422521.59847 -19015196.86146  21781313.1804                   21781311.7274
 -36796243.20048 -28657578.20146  20862501.6334                   20862499.6994
 -64523213.62647 -50261595.63145  22674555.7974                   22674554.4264
 -15981043.35647 -12437202.81745  22581915.5864                   22581915.9694
 -54385026.07348 -42360720.10346  21013273.2664                   21013272.2194
 -29250989.99646 -22776723.53444  22992272.5554                   22992273.2384
 -44138585.13748 -34377451.39046  20522718.3054                   20522714.7304
 11  8 17  0 14  0.0000000  0  7G12G10G17G05G04G09G02
 -24565755.42947 -19126807.62646  21754056.8524                   21754055.3984
 -36890176.42348 -28730772.89146  20844626.4534                   20844624.9694
 -64544680.60347 -50278323.18345  22670470.5314                   22670469.5514
 -16149877.55547 -12568761.79945  22549788.0704                   22549787.4064
 -54384453.22847 -42360273.75746  21013382.1804                   21013380.3914
 -29249969.83046 -22775928.68944  22992467.3834                   22992467.5274
 -44220310.79948 -34441133.72246  20507166.2664                   20507162.7154
 11  8 17  0 14 30.0000000  0  7G12G10G17G05G04G09G02
 -23133201.16047 -18010531.55746  22026663.2424                   22026660.8444
 -35408062.54548 -27575878.92946  21126663.3914                   21126661.8554
 -62990567.47847 -49067325.96445  22966208.2664                   22966207.4614
 -14743072.30147 -11472549.78745  22817493.7734                   22817493.8554
 -52808210.72447 -41132032.86746  21313331.1484                   21313329.6134
 -27673209.41246 -21547284.26144  23292514.5634                   23292515.4224
 -42726256.93848 -33276935.90246  20791475.3754                   20791471.3554
 11  8 17  0 15  0.0000000  0  7G12G10G17G05G04G09G02
 -23275712.03047 -18121578.96546  21999544.3284                   21999541.8524
 -35500752.53648 -27648104.87446  21109025.0554                   21109023.7114
 -63011721.24047 -49083809.43345  22962182.7584                   22962181.2974
 -14911482.64647 -11603778.50145  22785446.1024                   22785446.3714
 -52807147.20847 -41131204.16846  21313533.8914                   21313532.6024
 -27671558.10146 -21545997.62744  23292828.5394                   23292830.0704
 -42807276.17848 -33340067.77146  20776058.1484                   20776054.3094
 11  8 17  0 15 30.0000000  0  7G12G10G17G05G04G09G02
 -23417854.77247 -18232339.53946  21972495.6414                   21972493.1484
 -35592816.23548 -27719842.80546  21091506.1254                   21091504.4494
 -63032714.95346 -49100168.20545  22958187.4224                   22958186.4734
 -15079673.78647 -11734836.40145  22753440.4064                   22753439.9264
 -52805839.13648 -41130184.90146  21313782.3834                   21313781.6994
 -27669593.61446 -21544466.92944  23293202.7504                   23293203.1414
 -42887940.97647 -33402923.44947  20760707.8594                   20760703.9264
 11  8 17  0 16  0.0000000  0  7G12G10G17G05G04G09G02
 -23559630.02947 -18342813.76046  21945515.9454                   21945514.4024
 -35684255.39048 -27791094.06546  21074105.6254                   21074104.1524
 -63053551.09646 -49116404.17145  22954222.6564                   22954222.2894
 -15247646.13347 -11865723.82645  22721476.6884                   22721476.5234
 -52804291.67148 -41128979.10146  21314077.0864                   21314075.9804
 -27667322.46946 -21542697.27944  23293634.5084                   23293635.8484
 -42968255.11248 -33465505.88646  20745424.7344                   20745420.9384
 11  8 17  0 16 30.0000000  0  7G12G10G17G05G04G09G02
 -23701033.04447 -18452997.90846  21918608.3594                   21918606.1054
 -35775066.26848 -27861855.76346  21056824.7734                   21056823.2894
 -63074226.84847 -49132515.19845  22950288.5474                   22950287.3754
 -15415394.21147 -11996436.49045  22689554.5634                   22689554.1024
 -52802505.07848 -41127586.96546  21314417.1254                   21314415.9224
 -27664745.78446 -21540689.53844  23294125.6334                   23294126.2034
 -43048217.47248 -33527814.20146  20730208.6954                   20730204.3554
 11  8 17  0 17  0.0000000  0  7G12G10G17G05G04G09G02
 -23842061.43747 -18562890.15746  21891771.4064                   21891769.0554
 -35865247.89148 -27932127.13746  21039664.1804                   21039662.5904
 -63094741.71947 -49148500.84445  22946384.8284                   22946383.3204
 -15582915.39447 -12126972.35545  22657676.3524                   22657676.6484
 -52800481.79548 -41126010.40146  21314802.1094                   21314801.1414
 -27661867.11047 -21538446.49444  23294673.2894                   23294674.5204
 -43127829.29348 -33589849.37147  20715058.2194                   20715054.9774
 11  8 17  0 17 30.0000000  0  7G12G10G17G05G04G09G02
 -23982714.63047 -18672490.03646  21865006.2584                   21865003.9344
 -35954800.91848 -28001908.69946  21022622.7274                   21022620.8554
 -63115096.79147 -49164361.96145  22942511.3284                   22942509.9804
 -15750208.09647 -12257330.17745  22625841.8284                   22625841.7074
 -52798225.76748 -41124252.46146  21315231.5634                   21315230.0904
 -27658691.81746 -21535972.34344  23295276.7194                   23295277.9104
 -43207093.16748 -33651613.42847  20699975.4384                   20699971.1914
 11  8 17  0 18  0.0000000  0  7G12G10G17G05G04G09G02
 -24122989.70547 -18781795.27446  21838312.6564                   21838310.6054
 -36043724.11447 -28071199.48746  21005700.8444                   21005699.1804
 -63135291.83747 -49180098.38044  22938668.4304                   22938666.4494
 -15917269.75947 -12387508.00445  22594050.7584                   22594050.8054
 -52795739.20847 -41122314.89846  21315704.8524                   21315703.1914
 -27655223.14946 -21533269.59444  23295937.6884                   23295938.7934
 -43286010.12348 -33713107.15347  20684957.6414                   20684953.9224
 11  8 17  0 18 30.0000000  0  7G12G10G17G05G04G09G02
 -24262880.62348 -18890801.15846  21811692.4304                   21811689.4184
 -36132012.29847 -28139995.47346  20988900.2974                   20988898.8444
 -63155322.25047 -49195706.53244  22934856.4774                   22934855.6054
 -16084093.60047 -12517500.46045  22562305.2504                   22562305.2504
 -52793020.66348 -41120196.58046  21316222.1334                   21316220.8094
 -27651460.77847 -21530337.91744  23296654.1484                   23296654.4884
 -43364577.26848 -33774328.29446  20670007.1334                   20670003.0434
 11  8 17  0 19  0.0000000  0  8G12G25G10G17G05G04G09G02
 -24402389.81547 -18999509.61746  21785144.7274                   21785142.6844
   2900740.88056   2275702.09052  24670284.6644                   24670286.3984
 -36219669.25548 -28208299.57546  20972219.8524                   20972217.8714
 -63175192.07647 -49211189.55044  22931075.8984                   22931074.3404
 -16250681.38247 -12647309.00945  22530604.0634                   22530604.2624
 -52790077.26648 -41117903.05246  21316782.2894                   21316780.7274
 -27647412.97447 -21527183.86944  23297423.7664                   23297425.3054
 -43442800.27448 -33835281.27347  20655121.8834                   20655117.6764
 11  8 17  0 19 30.0000000  0  8G12G25G10G17G05G04G09G02
 -24541519.76947 -19107922.56146  21758669.1884                   21758666.6564
   2728654.45046   2141608.79143  24637538.1414                   24637540.2274
 -36306698.91748 -28276114.87946  20955658.5314                   20955657.0784
 -63194905.93347 -49226551.02945  22927324.8284                   22927322.9574
 -16417035.15547 -12776935.21645  22498948.4924                   22498947.3914
 -52786916.04448 -41115439.77446  21317383.3984                   21317381.8754
 -27643087.98047 -21523813.83344  23298247.2894                   23298248.5204
 -43520685.22248 -33895970.83746  20640300.7034                   20640296.9064
 11  8 17  0 20  0.0000000  0  8G12G25G10G17G05G04G09G02
 -24680277.89347 -19216045.74646  21732264.7114                   21732262.2854
   2556680.45746   2007603.21743  24604812.4144                   24604815.3404
 -36393110.12448 -28343448.27346  20939215.1414                   20939213.2424
 -63214473.21047 -49241798.29145  22923601.0004                   22923599.1804
 -16583162.05647 -12906384.64145  22467335.0634                   22467334.8484
 -52783549.24948 -41112816.32646  21318024.3284                   21318022.4454
 -27638499.23947 -21520238.29944  23299120.1804                   23299121.5314
 -43598242.90948 -33956405.37846  20625542.3054                   20625537.8634
 11  8 17  0 20 30.0000000  0  8G12G25G10G17G05G04G09G02
 -24818653.66847 -19323871.00846  21705933.0394                   21705930.2894
   2384829.07146   1873693.10443  24572109.8204                   24572112.8134
 -36478894.41248 -28410293.15246  20922890.3054                   20922889.2774
 -63233885.43447 -49256924.73044  22919906.5944                   22919905.4494
 -16749051.38547 -13035648.94545  22435766.8914                   22435767.0554
 -52779971.44048 -41110028.42846  21318705.2504                   21318703.5474
 -27633642.81647 -21516454.16244  23300044.4534                   23300045.2974
 -43675466.60547 -34016579.67546  20610846.5394                   20610842.4884
 11  8 17  0 21  0.0000000  0  8G12G25G10G17G05G04G09G02
 -24956641.68447 -19431394.11846  21679673.9534                   21679671.9654
   2213106.10846   1739883.14543  24539432.3594                   24539434.7464
 -36564047.28847 -28476646.01346  20906686.9454                   20906685.3984
 -63253138.97447 -49271927.53145  22916242.5164                   22916241.1414
 -16914696.45347 -13164722.91545  22404245.6954                   22404245.8714
 -52776181.65147 -41107075.36146  21319426.3754                   21319424.8164
 -27628518.25546 -21512461.12544  23301019.6174                   23301021.4304
 -43752354.20548 -34076492.08246  20596215.3444                   20596211.4144
 11  8 17  0 21 30.0000000  0  8G12G25G10G17G05G04G09G02
 -25094239.52447 -19538613.18546  21653489.9774                   21653487.5434
   2041513.35246   1606174.54944  24506779.7974                   24506781.6024
 -36648568.72547 -28542506.85246  20890603.0474                   20890601.4884
 -63272233.84147 -49286806.70145  22912609.5554                   22912608.0044
 -17080095.27947 -13293605.01245  22372771.8674                   22372771.2894
 -52772182.58547 -41103959.24346  21320187.4144                   21320185.6334
 -27623129.84847 -21508262.45144  23302045.4304                   23302046.4224
 -43828907.25148 -34136143.78946  20581648.1804                   20581643.9264
 11  8 17  0 22  0.0000000  0  8G12G25G10G17G05G04G09G02
 -25231441.68547 -19645523.93446  21627381.1954                   21627378.9264
   1870057.41547   1472572.53944  24474152.6804                   24474154.4654
 -36732453.38048 -28607871.50046  20874639.8754                   20874638.3984
 -63291165.33547 -49301558.54145  22909007.0004                   22909006.0664
 -17245240.55147 -13422289.54745  22341345.4694                   22341345.3284
 -52767972.41848 -41100678.60846  21320988.6024                   21320987.3094
 -27617476.96447 -21503857.72044  23303121.0944                   23303122.5864
 -43905122.53948 -34195532.31347  20567144.3674                   20567140.7584
 11  8 17  0 22 30.0000000  0  8G12G25G10G17G05G04G09G02
 -25368245.95847 -19752124.63546  21601348.0864                   21601345.9144
   1698739.81547   1339078.33144  24441552.8204                   24441554.3404
 -36815700.97948 -28672739.72846  20858798.7814                   20858797.1644
 -63309933.69947 -49316183.29145  22905434.9534                   22905434.5354
 -17410130.72147 -13550775.28445  22309967.7814                   22309967.6954
 -52763554.16348 -41097235.82746  21321829.3054                   21321828.4344
 -27611563.96146 -21499250.28344  23304246.0784                   23304247.1994
 -43981002.19948 -34254659.31346  20552705.2664                   20552700.9024
 11  8 17  0 23  0.0000000  0  8G12G25G10G17G05G04G09G02
 -25504650.62747 -19858413.96346  21575390.9614                   21575388.8914
   1527562.19847   1205693.24844  24408978.3444                   24408979.5904
 -36898311.68448 -28737111.69546  20843078.1414                   20843076.1564
 -63328539.45647 -49330681.31545  22901895.0394                   22901893.6684
 -17574763.59347 -13679060.54945  22278639.3444                   22278638.5124
 -52758930.96248 -41093633.36046  21322709.0164                   21322707.4804
 -27605395.24346 -21494443.60744  23305421.0164                   23305421.2114
 -44056548.08448 -34313526.22046  20538329.2344                   20538325.7194
 11  8 17  0 23 30.0000000  0  8G12G25G10G17G05G04G09G02
 -25640650.65847 -19964387.98646  21549510.7974                   21549509.2344
   1356529.69847   1072421.16444  24376431.6804                   24376433.2234
 -36980281.70048 -28800984.40746  20827479.9614                   20827478.2734
 -63346978.85447 -49345049.71445  22898385.7274                   22898385.2814
 -17739133.48247 -13807140.87845  22247360.5634                   22247360.5554
 -52754102.27248 -41089870.75446  21323628.2664                   21323627.0354
 -27598971.57847 -21489438.25544  23306643.0634                   23306644.1724
 -44131758.33248 -34372131.59846  20524017.3914                   20524012.8284
 11  8 17  0 24  0.0000000  0  8G12G25G10G17G05G04G09G02
 -25776239.73847 -20070041.78546  21523709.6484                   21523707.4414
   1185648.73747    939267.22444  24343914.0164                   24343915.9694
 -37061606.43148 -28864354.31346  20812004.1804                   20812002.5554
 -63365247.98747 -49359285.45345  22894909.4304                   22894908.5394
 -17903233.00347 -13935010.54346  22216133.8984                   22216133.3484
 -52749066.38848 -41085946.71846  21324586.2664                   21324584.7774
 -27592292.28647 -21484233.73844  23307913.0474                   23307915.3244
 -44206630.27748 -34430473.36546  20509769.6254                   20509765.4454
 11  8 17  0 24 30.0000000  0  8G12G25G10G17G05G04G09G02
 -25911416.55247 -20175374.33946  21497985.8524                   21497983.7584
   1014920.34646    806232.14144  24311425.7034                   24311427.7704
 -37142286.52648 -28927221.90046  20796651.2344                   20796649.5984
 -63383347.58647 -49373389.09945  22891464.8444                   22891464.8984
 -18067061.41247 -14062668.94845  22184957.8914                   22184957.2974
 -52743826.98748 -41081864.07345  21325583.3594                   21325582.2504
 -27585362.31747 -21478833.84744  23309232.3364                   23309233.5434
 -44281166.37748 -34488553.42646  20495585.8524                   20495581.9574
 11  8 17  0 25  0.0000000  0  8G12G25G10G17G05G04G09G02
 -26046183.44347 -20280387.47046  21472340.8054                   21472338.5354
    844342.79846    673314.63844  24278965.2584                   24278967.5904
 -37222325.37048 -28989589.81546  20781420.1884                   20781419.0744
 -63401281.19447 -49387363.39045  22888052.6484                   22888052.4694
 -18230619.89047 -14190117.01945  22153833.6334                   22153833.5274
 -52738390.50747 -41077627.88346  21326618.0164                   21326616.7934
 -27578189.31846 -21473244.60344  23310596.9774                   23310598.1914
 -44355371.69848 -34546375.74746  20481465.1334                   20481461.1094
 11  8 17  0 25 30.0000000  0  8G12G25G10G17G05G04G09G02
 -26180536.21848 -20385077.91046  21446774.0704                   21446771.9734
    673920.44446    540518.02143  24246534.5314                   24246536.7544
 -37301720.41948 -29051456.07046  20766311.7974                   20766310.6334
 -63419046.58647 -49401206.56445  22884671.4844                   22884671.1564
 -18393903.32147 -14317350.75945  22122761.5704                   22122761.0434
 -52732757.18748 -41073238.29145  21327689.8284                   21327688.5784
 -27570774.93747 -21467467.25344  23312009.0634                   23312009.7194
 -44429245.67248 -34603939.86947  20467407.4304                   20467402.8364
 11  8 17  0 26  0.0000000  0  8G12G25G10G17G05G04G09G02
 -24739046.10947 -19261838.84346  21721080.6484                   21721078.6724
   2079082.85846   1635449.80644  24513927.7974                   24513931.0904
 -35805047.19048 -27885217.18146  21051119.5704                   21051118.1524
 -61861220.87147 -48187316.43145  23181117.0234                   23181114.9884
 -16981482.16347 -13216762.73546  22391536.4064                   22391536.3134
 -51151507.93948 -39841096.05045  21628591.6954                   21628590.3404
 -25987701.38447 -20233903.53644  23613257.9064                   23613259.2234
 -42927365.22448 -33433643.38646  20753205.5554                   20753201.4964
 11  8 17  0 26 30.0000000  0  8G12G25G10G17G05G04G09G02
 -24872560.26747 -19365875.82046  21695673.4384                   21695671.1764
   1908980.74946   1502902.79843  24481559.1484                   24481560.5514
 -35883150.46748 -27946076.85546  21036256.9534                   21036255.1524
 -61878645.38547 -48200893.98745  23177800.8444                   23177799.3554
 -17144204.58947 -13343559.34345  22360571.4064                   22360570.4884
 -51145484.91748 -39836402.80345  21629737.7894                   21629736.1134
 -25979812.01647 -20227756.05944  23614758.3914                   23614760.3324
 -43000576.94648 -33490691.46746  20739273.7194                   20739269.6994
 11  8 17  0 27  0.0000000  0  8G12G25G10G17G05G04G09G02
 -25005652.21448 -19469583.79846  21670347.2814                   21670344.8284
   1739041.76646   1370482.85443  24449220.5234                   24449222.1884
 -35960607.48748 -28006432.97246  21021517.2504                   21021515.7704
 -61895899.35547 -48214338.67445  23174516.7584                   23174515.6884
 -17306643.18447 -13470134.78446  22329660.2734                   22329659.8164
 -51139270.97848 -39831560.78845  21630920.4844                   21630918.9844
 -25971691.33147 -20221428.34844  23616303.8914                   23616305.1334
 -43073459.98848 -33547483.43446  20725404.6644                   20725400.6994
 11  8 17  0 27 30.0000000  0  8G12G25G10G17G05G04G09G02
 -25138314.21948 -19572956.77846  21645102.8054                   21645100.2664
   1569273.71546   1238196.12343  24416915.2894                   24416916.7384
 -36037412.60548 -28066281.10846  21006901.9454                   21006899.9024
 -61912977.04447 -48227646.04245  23171267.4064                   23171266.8554
 -17468789.48347 -13596482.46646  22298804.9534                   22298804.2544
 -51132863.09648 -39826567.64445  21632139.8754                   21632138.8094
 -25963337.59947 -20214919.05144  23617894.3594                   23617895.2974
 -43146010.32648 -33604016.14546  20711598.7664                   20711594.5124
 11  8 17  0 28  0.0000000  0  8G12G25G10G17G05G04G09G02
 -25270552.09748 -19675999.23946  21619938.6954                   21619936.0314
   1399671.25946   1106038.41443  24384640.4064                   24384643.8444
 -36113573.05448 -28125626.89546  20992408.7734                   20992407.3834
 -61929886.10247 -48240821.95745  23168050.3204                   23168048.8954
 -17630648.60147 -13722606.34345  22268004.3754                   22268003.3834
 -51126271.28248 -39821431.17545  21633393.8284                   21633392.7034
 -25954761.73346 -20208236.69544  23619526.1804                   23619527.2704
 -43218236.86548 -33660296.54946  20697854.5634                   20697850.6454
 11  8 17  0 28 30.0000000  0  8G12G25G10G17G05G04G09G02
 -25402356.26048 -19778703.77646  21594856.6724                   21594854.5314
   1230244.12247    974017.31043  24352399.8204                   24352401.3094
 -36189080.45948 -28184463.83246  20978040.2584                   20978038.4844
 -61946618.37347 -48253860.13345  23164865.9614                   23164864.6214
 -17792210.02647 -13848498.26545  22237259.3594                   22237259.2894
 -51119490.57348 -39816147.53445  21634684.6254                   21634683.1844
 -25945960.20246 -20201378.41844  23621200.8054                   23621202.8204
 -43290133.30948 -33716319.73346  20684172.8444                   20684168.9384
 11  8 17  0 29  0.0000000  0  8G12G25G10G17G05G04G09G02
 -25533730.05748 -19881072.95846  21569857.5314                   21569855.2504
   1060988.94147    842130.28144  24320190.9774                   24320193.1174
 -36263940.15048 -28242796.04846  20963794.7274                   20963793.3164
 -61963179.29347 -48266764.80045  23161714.5474                   23161713.6054
 -17953477.30647 -13974160.98446  22206571.7584                   22206571.4224
 -51112528.67248 -39810722.69845  21636009.1024                   21636008.1644
 -25936942.28247 -20194351.56244  23622916.9774                   23622918.1644
 -43361706.60948 -33772091.11647  20670552.9454                   20670548.6604
 11  8 17  0 29 30.0000000  0  8G12G25G10G17G05G04G09G02
 -25664669.37448 -19983103.60046  21544940.2814                   21544937.4964
    891910.10047    710380.59444  24288016.8364                   24288017.6764
 -36338149.89148 -28300621.80546  20949673.6414                   20949671.7344
 -61979566.47047 -48279534.04944  23158595.7424                   23158594.9774
 -18114445.44447 -14099590.60846  22175940.3914                   22175940.2704
 -51105385.94648 -39805156.94545  21637368.4454                   21637367.2384
 -25927709.58047 -20187157.35344  23624674.1024                   23624675.9104
 -43432956.15848 -33827610.22046  20656995.0004                   20656990.7934
 11  8 17  0 30  0.0000000  0  8G12G25G10G17G05G04G09G02
 -25795172.72447 -20084794.51046  21520106.5944                   21520104.5704
    723009.14847    578769.49344  24255876.0164                   24255877.2814
 -36411710.41748 -28357941.68346  20935675.2344                   20935673.3134
 -61995780.21947 -48292168.21644  23155511.1414                   23155510.2894
 -18275112.53047 -14224785.62345  22145366.2114                   22145365.2074
 -51098065.67748 -39799452.84945  21638761.6954                   21638760.0084
 -25918266.40447 -20179799.12244  23626471.0474                   23626472.4654
 -43503883.88848 -33882878.56147  20643497.6644                   20643493.3594
 11  8 17  0 30 30.0000000  0  8G12G25G10G17G05G04G09G02
 -25925239.43547 -20186145.18746  21495355.2894                   21495353.3524
    554286.86147    447297.65944  24223768.9924                   24223770.7704
 -36484623.12648 -28414756.77446  20921800.5314                   20921798.5904
 -62011821.93547 -48304668.30044  23152458.2584                   23152457.7974
 -18435477.53047 -14349745.26646  22114849.7344                   22114849.1334
 -51090571.50248 -39793613.26345  21640187.2664                   21640185.9734
 -25908618.23047 -20172281.14744  23628307.1414                   23628308.7344
 -43574492.73748 -33937898.42547  20630061.1884                   20630057.4924
 11  8 17  0 31  0.0000000  0  8G12G25G10G17G05G04G09G02
 -26054867.58947 -20287154.12846  21470687.9924                   21470685.7624
    385745.68347    315966.93044  24191697.0864                   24191698.2934
 -36556887.95048 -28471067.01246  20908048.8984                   20908047.1214
 -62027691.38947 -48317034.15244  23149438.3524                   23149437.2274
 -18595537.61747 -14474467.32746  22084391.1174                   22084390.6914
 -51082905.66448 -39787639.89946  21641646.5084                   21641645.6764
 -25898768.29147 -20164605.96844  23630182.0944                   23630183.1724
 -43644784.44848 -33992671.16747  20616685.4774                   20616681.2034
 11  8 17  0 31 30.0000000  0  8G12G25G10G17G05G04G09G02
 -26184053.25347 -20387818.28546  21446105.1174                   21446102.7304
    217389.67647    184780.48144  24159659.7584                   24159661.5664
 -36628502.44547 -28526870.51446  20894421.0084                   20894419.2504
 -62043386.19747 -48329263.92544  23146451.7664                   23146451.1454
 -18755288.02647 -14598948.06446  22053991.9144                   22053990.8324
 -51075068.66848 -39781533.17045  21643137.9304                   21643136.5394
 -25888718.57447 -20156775.12044  23632094.4844                   23632096.2504
 -43714757.98047 -34047195.98447  20603369.8524                   20603365.6024
 11  8 17  0 32  0.0000000  0  8G12G25G10G17G05G04G09G02
 -26312792.24947 -20488134.36646  21421606.8834                   21421604.8134
     49223.28147     53741.85044  24127657.6724                   24127660.7584
 -36699464.39447 -28582165.52046  20880917.4454                   20880915.9104
 -62058904.24647 -48341355.94444  23143499.1804                   23143498.1914
 -18914724.67647 -14723184.33146  22023651.7194                   22023651.1644
 -51067060.87048 -39775293.35945  21644661.7584                   21644660.6214
 -25878470.88747 -20148789.99744  23634044.8834                   23634045.7624
 -43784412.51148 -34101472.23447  20590114.6254                   20590110.5084
 11  8 17  0 32 30.0000000  0  8G12G25G10G17G05G04G09G02
 -26441087.00547 -20588104.29746  21397193.2344                   21397190.6884
   -118755.80647    -77150.86644  24095693.0634                   24095694.9104
 -36769778.38147 -28636955.62846  20867537.2584                   20867535.6954
 -62074249.72847 -48353313.53945  23140578.2814                   23140578.1994
 -19073849.31247 -14847177.45746  21993371.4144                   21993370.7344
 -51058889.04648 -39768925.73545  21646217.2194                   21646215.5004
 -25868033.22746 -20140656.86444  23636030.4304                   23636032.3524
 -43853754.38748 -34155504.85447  20576919.5314                   20576915.4144
 11  8 17  0 33  0.0000000  0  8G12G25G10G17G05G04G09G02
 -26568930.60447 -20687722.68046  21372865.1254                   21372862.6564
   -286540.27747   -207891.88644  24063764.5474                   24063767.0744
 -36839439.59447 -28691237.07346  20854281.1484                   20854279.5314
 -62089417.40047 -48365132.53544  23137692.4304                   23137691.5554
 -19232654.30647 -14970921.51546  21963151.8284                   21963151.1134
 -51050550.51748 -39762428.19145  21647803.2894                   21647802.2274
 -25857404.55447 -20132374.86944  23638053.6644                   23638055.0744
 -43922780.05547 -34209291.09046  20563784.3984                   20563780.0704
 11  8 17  0 33 30.0000000  0  8G12G25G10G17G05G04G09G02
 -26696321.67247 -20786988.42246  21348623.3914                   21348620.8204
   -454128.81547   -338480.25144  24031873.9304                   24031875.1804
 -36908448.78947 -28745010.46146  20841149.0314                   20841147.9694
 -62104408.16847 -48376813.66044  23134840.1094                   23134838.3914
 -19391137.83047 -15094415.10246  21932993.3204                   21932992.0824
 -51042048.70248 -39755803.42745  21649421.2664                   21649419.6644
 -25846589.44147 -20123947.62244  23640111.3594                   23640112.7074
 -43991491.77748 -34262832.67947  20550709.0314                   20550704.5634
 11  8 17  0 34  0.0000000  0  8G12G25G10G17G05G04G09G02
 -26823258.92447 -20885900.54846  21324468.2894                   21324465.9614
   -621519.53247   -468914.51544  24000019.1954                   24000022.2584
 -36976806.49648 -28798276.18446  20828141.1804                   20828139.7344
 -62119222.04947 -48388356.99044  23132021.0784                   23132020.0704
 -19549298.18847 -15217656.84146  21902896.2894                   21902895.6174
 -51033386.24948 -39749053.49945  21651069.9844                   21651068.8054
 -25835592.35347 -20115378.56944  23642204.2584                   23642205.5234
 -44059891.65447 -34316131.29046  20537693.1644                   20537689.0044
 11  8 17  0 34 30.0000000  0  8G12G25G10G17G05G04G09G02
 -26949739.46047 -20984456.77746  21300399.4614                   21300396.9454
   -788709.09947   -599192.00044  23968205.3834                   23968206.4924
 -37044511.79747 -28851033.55446  20815256.9844                   20815255.3134
 -62133857.40047 -48399761.19944  23129236.1564                   23129234.8244
 -19707131.41347 -15340643.69246  21872861.7664                   21872860.9344
 -51024564.45648 -39742179.40145  21652748.6334                   21652747.6484
 -25824415.70647 -20106669.59944  23644331.1024                   23644333.2304
 -44127979.64448 -34369186.87447  20524736.0474                   20524731.9144
 11  8 17  0 35  0.0000000  0  8G12G25G10G17G05G04G09G02
 -27075762.93447 -21082656.87046  21276418.3524                   21276415.5124
   -955696.94047   -729312.29044  23936428.4924                   23936429.3284
 -37111566.52647 -28903283.97046  20802496.8134                   20802494.6684
 -62148316.36547 -48411027.90544  23126484.4614                   23126483.9964
 -19864636.95547 -15463375.19646  21842889.1094                   21842888.2974
 -51015587.26048 -39735184.20045  21654456.6954                   21654455.4654
 -25813064.86647 -20097824.92044  23646491.2664                   23646492.9844
 -44195758.91548 -34422001.89046  20511838.1644                   20511834.2114
 11  8 17  0 35 30.0000000  0  8G12G25G10G17G05G04G09G02
 -27201326.81647 -21180498.81446  21252524.3284                   21252521.5394
  -1122480.25947   -859273.23944  23904690.1954                   23904691.2424
 -37177970.45147 -28955027.27546  20789860.2114                   20789858.3404
 -62162598.23847 -48422156.66444  23123767.1024                   23123766.2154
 -20021811.62147 -15585848.88346  21812979.8674                   21812978.6094
 -51006456.58648 -39728069.41945  21656194.4224                   21656193.0664
 -25801542.96947 -20088846.92644  23648683.3914                   23648686.1884
 -44263230.41147 -34474577.08146  20498998.9844                   20498994.4064
 11  8 17  0 36  0.0000000  0  8G12G25G10G17G05G04G09G02
 -27326429.37547 -21277981.30946  21228718.0314                   21228715.3284
  -1289056.80747   -989073.05544  23872991.3204                   23872993.0514
 -37243723.28447 -29006263.23646  20777348.2584                   20777346.6214
 -62176702.49947 -48433147.02644  23121082.7974                   23121082.1564
 -20178652.79647 -15708062.69046  21783133.7504                   21783133.2304
 -50997174.67148 -39720836.79145  21657960.5784                   21657960.1294
 -25789853.78046 -20079738.59744  23650908.0164                   23650910.2154
 -44330395.79847 -34526913.74347  20486217.5474                   20486213.5004
 11  8 17  0 36 30.0000000  0  8G12G25G10G17G05G04G09G02
 -27451068.73048 -21375102.85546  21204999.7424                   21204997.3324
  -1455424.50447  -1118710.16744  23841333.1884                   23841334.2774
 -37308825.76948 -29056992.43546  20764959.9694                   20764958.6884
 -62190629.17147 -48443999.02045  23118432.8524                   23118432.1994
 -20335158.25447 -15830014.92146  21753351.9224                   21753350.4804
 -50987743.99648 -39713488.22945  21659755.0234                   21659754.7974
 -25778001.40346 -20070503.11244  23653163.4924                   23653165.4414
 -44397256.81148 -34579013.23546  20473494.0864                   20473489.9804
 11  8 17  0 37  0.0000000  0  8G12G25G10G17G05G04G09G02
 -27575242.29748 -21471861.46246  21181370.6334                   21181367.7894
  -1621580.27347  -1248182.12144  23809714.0784                   23809715.2504
 -37373277.24147 -29107214.34146  20752695.2504                   20752693.4964
 -62204377.35647 -48454711.92944  23115816.5634                   23115815.9064
 -20491324.78447 -15951703.04146  21723634.0554                   21723632.5434
 -50978166.32148 -39706025.14045  21661577.8594                   21661576.5864
 -25765988.69347 -20061142.65444  23655450.1334                   23655451.3404
 -44463814.06048 -34630876.02746  20460828.8364                   20460824.9414
 11  8 17  0 37 30.0000000  0  8G12G25G10G17G05G04G09G02
 -26123526.57048 -20340654.38046  21457622.5784                   21457620.4414
   -212098.91547   -149884.90044  24077929.6644                   24077930.8164
 -35861658.70048 -27929329.74946  21040346.6724                   21040344.6994
 -60642529.32247 -47237687.50944  23413026.4454                   23413024.9304
 -19071727.49647 -14845523.26346  21993774.4534                   21993773.4734
 -49393026.62148 -38470851.37245  21963220.1254                   21963218.7974
 -24178402.45346 -18824062.58844  23957556.8754                   23957559.5594
 -42954649.56448 -33454903.68446  20748013.4614                   20748009.2464
 11  8 17  0 38  0.0000000  0  8G12G25G10G17G05G04G09G02
 -26246769.38848 -20436687.72046  21434170.7664                   21434167.5944
   -377830.55047   -279026.35744  24046391.8364                   24046392.7234
 -35924815.86448 -27978543.10346  21028328.0164                   21028326.4804
 -60655926.40647 -47248126.80144  23410477.4064                   23410476.2544
 -19227215.46847 -14966682.63846  21964186.0944                   21964184.6134
 -49383167.99248 -38463169.36245  21965095.7814                   21965094.8984
 -24166086.92447 -18814466.18044  23959900.8134                   23959903.4494
 -43020610.41147 -33506301.73646  20735461.5554                   20735457.0824
 11  8 17  0 38 30.0000000  0  8G12G25G10G17G05G04G09G02
 -26369539.02248 -20532352.35046  21410807.8134                   21410805.7274
   -543341.61447   -407995.97644  24014896.0394                   24014897.1054
 -35987321.18747 -28027248.52846  21016433.3524                   21016431.5434
 -60669143.14347 -47258425.59544  23407961.9774                   23407960.6294
 -19382355.06947 -15087570.55246  21934663.6724                   21934662.8014
 -49373167.30048 -38455376.64745  21966999.0314                   21966998.1414
 -24153620.42546 -18804752.14744  23962273.8054                   23962275.3164
 -43086270.22548 -33557465.22246  20722966.8444                   20722962.1524
 11  8 17  0 39  0.0000000  0  8G12G25G10G17G05G04G09G02
 -26491840.65548 -20627652.31446  21387534.8054                   21387532.4494
   -708636.93447   -536797.44144  23983441.8594                   23983442.6724
 -36049182.16047 -28075451.87946  21004661.9844                   21004660.2384
 -60682186.25347 -47268589.07344  23405479.7664                   23405478.9964
 -19537151.25947 -15208190.88746  21905207.0864                   21905205.6054
 -49363033.70248 -38447480.35345  21968927.7344                   21968926.1724
 -24141013.71247 -18794928.82944  23964672.6724                   23964674.9694
 -43151637.49248 -33608400.75146  20710527.7114                   20710523.7034
 11  8 17  0 39 30.0000000  0  8G12G25G10G17G05G04G09G02
 -26613665.63448 -20722580.84946  21364352.0554                   21364349.9264
   -873707.15647   -665423.53044  23952029.5554                   23952030.5514
 -36110392.30248 -28123148.08546  20993014.2894                   20993012.5824
 -60695048.50747 -47278611.64944  23403032.1644                   23403031.2624
 -19691594.38847 -15328536.09846  21875817.1644                   21875816.0944
 -49352762.57048 -38439476.88045  21970882.3674                   21970880.4454
 -24128263.56247 -18784993.77144  23967099.3444                   23967101.4184
 -43216706.70648 -33659104.01846  20698145.3284                   20698141.3054
 11  8 17  0 40  0.0000000  0  8G12G25G10G17G05G04G09G02
 -26735012.39447 -20817136.75746  21341260.6334                   21341258.4144
  -1038550.41947   -793872.75944  23920661.2344                   23920662.1604
 -36170952.34147 -28170337.71546  20981489.2424                   20981487.9774
 -60707729.68947 -47288493.13744  23400619.0234                   23400618.4144
 -19845682.29247 -15448604.52046  21846495.4534                   21846494.2774
 -49342356.74047 -38431368.48345  21972862.0474                   21972861.0514
 -24115374.19647 -18774950.18844  23969552.1564                   23969554.6804
 -43281479.84948 -33709576.58146  20685819.4384                   20685815.4534
 11  8 17  0 40 30.0000000  0  8G12G25G10G17G05G04G09G02
 -26855881.32947 -20911320.33746  21318260.0864                   21318257.5354
  -1203166.64247   -922145.08344  23889335.3914                   23889336.7154
 -36230864.91147 -28217022.82446  20970088.7194                   20970086.5944
 -60720232.29547 -47298235.47344  23398240.8754                   23398239.3324
 -19999415.21947 -15568396.31846  21817240.9614                   21817239.8984
 -49331820.26448 -38423158.27045  21974867.0314                   21974865.7154
 -24102351.44747 -18764802.71244  23972030.4224                   23972031.6254
 -43345960.71148 -33759821.39746  20673549.2974                   20673545.5164
 11  8 17  0 41  0.0000000  0  8G12G25G10G17G05G04G09G02
 -26976268.26547 -21005128.34146  21295351.0554                   21295348.2974
  -1367551.06147  -1050236.77844  23858053.9224                   23858055.2154
 -36290128.04347 -28263201.86346  20958811.1334                   20958809.5634
 -60732553.67847 -47307836.60144  23395896.1884                   23395894.9964
 -20152787.94047 -15687907.45746  21788054.8754                   21788053.8914
 -49321153.28948 -38414846.35145  21976897.2424                   21976895.8714
 -24089196.64047 -18754552.31644  23974533.0314                   23974535.5274
 -43410148.32848 -33809837.71146  20661334.6564                   20661330.5044
 11  8 17  0 41 30.0000000  0  8G12G25G10G17G05G04G09G02
 -27096175.41248 -21098562.45346  21272533.4064                   21272530.9654
  -1531705.88647  -1178149.57944  23826816.9534                   23826817.1484
 -36348746.99047 -28308878.96346  20947656.2664                   20947654.8164
 -60744698.16947 -47317299.86244  23393585.1254                   23393583.6804
 -20305802.56447 -15807139.55946  21758937.4224                   21758935.6804
 -49310362.39648 -38406437.90445  21978950.4924                   21978949.6724
 -24075917.96747 -18744205.42444  23977059.9534                   23977062.6994
 -43474048.66047 -33859630.16846  20649174.9694                   20649170.4304
 11  8 17  0 42  0.0000000  0  8G12G25G10G17G05G04G09G02
 -27215599.98648 -21191620.56946  21249807.6484                   21249804.9574
  -1695626.87547  -1305880.17144  23795623.2584                   23795624.3244
 -36406720.14948 -28354052.83146  20936624.5554                   20936622.3674
 -60756663.59447 -47326623.62044  23391307.6094                   23391306.8484
 -20458454.86147 -15926089.31146  21729888.5554                   21729887.1294
 -49299447.89348 -38397933.12445  21981027.3594                   21981026.1994
 -24062517.44147 -18733763.52544  23979610.6094                   23979612.6414
 -43537661.22748 -33909198.38546  20637069.5634                   20637065.8134
 11  8 17  0 42 30.0000000  0  8G12G25G10G17G05G04G09G02
 -27334540.70848 -21284301.63046  21227174.1334                   21227171.6334
  -1859312.56847  -1433427.41044  23764475.5164                   23764476.8134
 -36464049.08948 -28398724.72646  20925715.1094                   20925713.3244
 -60768451.14347 -47335808.76844  23389064.7114                   23389063.9344
 -20610743.29747 -16044755.55146  21700908.6954                   21700907.6024
 -49288412.96648 -38389334.50145  21983127.3054                   21983125.7974
 -24048999.24747 -18723230.02144  23982182.6094                   23982185.0314
 -43600988.38847 -33958544.21946  20625019.1644                   20625014.9614
 11  8 17  0 43  0.0000000  0  8G12G25G10G17G05G04G09G02
 -27452995.66048 -21376604.18446  21204633.0004                   21204630.7304
  -2022760.78947  -1560789.61144  23733371.6254                   23733372.7854
 -36520734.52348 -28442895.18046  20914927.9774                   20914926.2504
 -60780060.39847 -47344854.98145  23386856.2504                   23386854.9494
 -20762665.59247 -16163136.48046  21671999.2504                   21671997.5314
 -49277259.80547 -38380643.73645  21985250.1644                   21985248.3134
 -24035367.34646 -18712607.88844  23984777.0314                   23984779.4224
 -43664031.95048 -34007669.05746  20613022.0704                   20613017.9494
 11  8 17  0 43 30.0000000  0  8G12G25G10G17G05G04G09G02
 -27570963.61748 -21468527.24946  21182184.2664                   21182181.7074
  -2185969.67647  -1687965.32044  23702313.9614                   23702315.0314
 -36576777.60748 -28486565.11346  20904263.8674                   20904262.0164
 -60791492.01947 -47353762.77645  23384680.6804                   23384679.9144
 -20914219.52547 -16281230.38446  21643159.1954                   21643157.7274
 -49265990.97848 -38371862.85945  21987394.0634                   21987392.8634
 -24021625.77247 -18701900.28944  23987392.0084                   23987394.6524
 -43726793.60147 -34056574.22846  20601079.0864                   20601075.0314
 11  8 17  0 44  0.0000000  0  8G12G25G10G17G05G04G09G02
 -27688440.00948 -21560067.27946  21159829.2504                   21159826.7704
  -2348933.45147  -1814950.01944  23671302.7034                   23671304.4224
 -36632175.55048 -28529732.31846  20893722.1094                   20893720.1484
 -60802742.20147 -47362529.22544  23382539.4304                   23382538.9104
 -21065399.40747 -16399032.80846  21614390.5784                   21614389.0084
 -49254605.13547 -38362990.79145  21989561.0864                   21989560.0274
 -24007774.84847 -18691107.53644  23990028.3674                   23990029.1684
 -43789272.03948 -34105258.71746  20589190.1174                   20589186.2704
 11  8 17  0 44 30.0000000  0  8G12G25G10G17G05G04G09G02
 -27805420.87948 -21651221.19146  21137568.2584                   21137566.0904
  -2511648.15547  -1941740.70344  23640339.5704                   23640340.4804
 -36686927.32648 -28572396.04746  20883303.1334                   20883300.9494
 -60813808.73147 -47371152.53544  23380433.7814                   23380432.8444
 -21216201.28847 -16516540.69546  21585693.9064                   21585692.6804
 -49243102.93247 -38354028.06245  21991749.6724                   21991748.5234
 -23993816.57047 -18680231.03443  23992685.1644                   23992686.3054
 -43851466.81748 -34153722.17146  20577354.7734                   20577350.3914
 11  8 17  0 45  0.0000000  0  8G12G25G10G17G05G04G09G02
 -27921909.80248 -21741991.75746  21115401.4384                   21115399.1604
  -2674116.73747  -2068339.55644  23609422.6094                   23609423.5744
 -36741038.73148 -28614560.77546  20873005.3524                   20873003.8594
 -60824697.60547 -47379637.40544  23378361.7974                   23378361.0554
 -21366627.95247 -16633756.19946  21557068.3594                   21557067.1174
 -49231491.78948 -38344980.42845  21993959.3444                   21993957.8674
 -23979760.05647 -18669278.02744  23995360.1724                   23995361.5824
 -43913384.35848 -34201969.60046  20565571.7814                   20565567.8874
 11  8 17  0 45 30.0000000  0  8G12G25G10G17G05G04G09G02
 -28037905.29148 -21832377.83846  21093328.1564                   21093326.2034
  -2836336.62447  -2194744.60944  23578553.3444                   23578554.7734
 -36794510.26248 -28656226.90246  20862830.5474                   20862829.0234
 -60835408.01547 -47387983.23244  23376323.7974                   23376322.4064
 -21516677.01847 -16750677.48846  21528514.6334                   21528513.5434
 -49219773.59347 -38335849.37845  21996189.2894                   21996187.9454
 -23965608.63746 -18658251.06043  23998051.8984                   23998054.0394
 -43975026.32748 -34250002.30246  20553841.8444                   20553837.6134
 11  8 17  0 46  0.0000000  0  8G12G25G10G17G05G04G09G02
 -28153403.62048 -21922376.51046  21071349.9614                   21071347.2464
  -2998303.72147  -2320952.70244  23547731.8754                   23547733.4614
 -36847341.01848 -28697393.72146  20852777.3674                   20852775.6254
 -60845938.30547 -47396188.68844  23374319.2274                   23374319.0084
 -21666344.28748 -16867301.26946  21500034.2814                   21500033.1214
 -49207948.72247 -38326635.22145  21998439.5944                   21998438.0864
 -23951363.96946 -18647151.42643  24000762.6094                   24000764.8484
 -44036392.33748 -34297819.97946  20542164.4384                   20542159.8754
 11  8 17  0 46 30.0000000  0  8G12G25G10G17G05G04G09G02
 -28268403.57048 -22011986.83546  21049465.7894                   21049463.9024
  -3160016.14447  -2446962.34844  23516958.8284                   23516959.7854
 -36899532.37148 -28738062.28846  20842845.4064                   20842843.6334
 -60856288.40647 -47404253.77244  23372349.8284                   23372349.5594
 -21815627.74247 -16983625.96946  21471626.4774                   21471625.2814
 -49196019.58447 -38317339.79945  22000709.8674                   22000708.1804
 -23937030.03146 -18635982.23443  24003490.9384                   24003492.3594
 -44097484.51148 -34345424.26846  20530539.1094                   20530534.5474
 11  8 17  0 47  0.0000000  0  8G12G25G10G17G05G04G09G02
 -28382901.97348 -22101206.34846  21027677.5784                   21027674.8444
  -3321470.05647  -2572770.58244  23486235.3364                   23486236.9494
 -36951083.85548 -28778232.28346  20833035.6484                   20833033.6604
 -60866456.84347 -47412177.25344  23370414.9224                   23370413.8874
 -21964523.67747 -17099648.71146  21443292.5944                   21443291.3014
 -49183987.04847 -38307963.81245  22002999.1174                   22002998.1914
 -23922609.35047 -18624745.44343  24006235.8364                   24006237.9024
 -44158302.86748 -34392815.19246  20518965.3444                   20518961.8914
 11  8 17  0 47 30.0000000  0  8G12G25G10G17G05G04G09G02
 -28496899.55148 -22190035.60546  21005984.2664                   21005982.2074
  -3482665.12547  -2698377.12744  23455560.7664                   23455562.6094
 -37001998.09048 -28817905.69646  20823346.9924                   20823344.9024
 -60876445.68046 -47419960.79744  23368514.0704                   23368513.8714
 -22113031.53148 -17215369.05346  21415032.7194                   21415031.2974
 -49171855.08047 -38298510.33345  22005308.1174                   22005306.7074
 -23908107.32346 -18613445.33743  24008994.2734                   24008997.0204
 -44218850.70848 -34439995.33246  20507443.8754                   20507439.4224
 11  8 17  0 48  0.0000000  0  8G12G25G10G17G05G04G09G02
 -28610394.60048 -22278473.27946  20984387.2734                   20984384.9304
  -3643599.08547  -2823780.19244  23424936.2194                   23424938.0704
 -37052275.95548 -28857083.24946  20813779.5234                   20813777.5944
 -60886254.97647 -47427604.44444  23366647.4304                   23366646.3984
 -22261149.21448 -17330785.36546  21386846.6094                   21386845.1524
 -49159625.75347 -38288981.01045  22007635.2194                   22007634.5354
 -23893527.87646 -18602084.83643  24011769.2114                   24011771.8484
 -44279129.69948 -34486965.98046  20495973.0634                   20495969.2154
 11  8 17  0 48 30.0000000  0  8G12G25G10G17G05G04G09G02
 -28723387.07548 -22366519.33646  20962885.4224                   20962882.4694
  -3804271.31447  -2948979.34245  23394361.2584                   23394362.0744
 -37101920.36748 -28895767.21046  20804332.0314                   20804330.7154
 -60895886.50847 -47435109.55844  23364815.4844                   23364814.2234
 -22408876.34448 -17445897.34746  21358735.0864                   21358733.6764
 -49147302.98547 -38279378.85145  22009980.0164                   22009979.1914
 -23878876.33646 -18590668.18743  24014557.2734                   24014560.0514
 -44339143.03048 -34533729.61446  20484552.9614                   20484549.1484
 11  8 17  0 49  0.0000000  0  8G12G25G10G17G05G04G09G02
 -27260445.98548 -21226565.21646  21241273.8054                   21241271.3204
  -2389248.53647  -1846364.15344  23663631.2424                   23663632.5944
 -35575504.62848 -27706352.34446  21094799.3754                   21094797.7384
 -59329914.05446 -46214871.32344  23662809.7274                   23662808.7504
 -20980780.03748 -16333094.96146  21630492.5474                   21630491.5984
 -47559463.52347 -37042101.36645  22312135.6174                   22312134.9654
 -22288731.25446 -17351594.29143  24317152.4224                   24317154.6994
 -42823464.90348 -33352681.72246  20772976.8594                   20772972.4224
 11  8 17  0 49 30.0000000  0  8G12G25G10G17G05G04G09G02
 -27372419.55348 -21313817.33146  21219966.2114                   21219963.8524
  -2549380.97147  -1971142.68044  23633159.5474                   23633160.3794
 -35623875.31248 -27744043.77046  21085594.8674                   21085593.0434
 -59339179.99446 -46222091.56244  23661046.5084                   23661045.8754
 -21127709.52248 -16447585.41146  21602532.6174                   21602530.9344
 -47546950.60547 -37032351.06445  22314516.9534                   22314516.1804
 -22273937.13346 -17340066.56243  24319967.2344                   24319970.0164
 -42882942.53748 -33399027.94346  20761658.6334                   20761654.4024
 11  8 17  0 50  0.0000000  0  8G12G25G10G17G05G04G09G02
 -27483882.81748 -21400671.80546  21198755.0314                   21198753.0824
  -2709241.44447  -2095709.24444  23602738.9614                   23602739.6334
 -35671611.96948 -27781241.15746  21076510.8444                   21076509.4264
 -59348264.41846 -46229170.37244  23659317.4924                   23659316.8874
 -21274238.22148 -16561763.54746  21574649.4614                   21574648.0594
 -47534347.14247 -37022530.21745  22316915.0474                   22316913.8954
 -22259078.20246 -17328488.29643  24322794.7584                   24322797.3554
 -42942156.04648 -33445168.34546  20750390.8594                   20750386.5004
 11  8 17  0 50 30.0000000  0  8G12G25G10G17G05G04G09G02
 -27594833.26348 -21487126.69146  21177641.9614                   21177639.4924
  -2868826.60947  -2220061.31444  23572370.3984                   23572371.3984
 -35718714.61548 -27817944.51646  21067547.5474                   21067545.9414
 -59357166.07246 -46236106.76144  23657624.0784                   23657622.3484
 -21420363.03848 -16675626.97146  21546842.0164                   21546841.2814
 -47521654.10747 -37012639.54545  22319331.3054                   22319329.5554
 -22244157.12046 -17316861.67344  24325635.4304                   24325637.5864
 -43001106.05648 -33491103.42746  20739173.1174                   20739168.8244
 11  8 17  0 51  0.0000000  0  8G12G25G10G17G05G04G09G02
 -27705269.08348 -21573180.57346  21156626.4844                   21156623.9304
  -3028134.17447  -2344197.02444  23542055.2734                   23542056.0784
 -35765184.69848 -27854154.95246  21058704.7584                   21058702.7274
 -59365885.47546 -46242901.10344  23655964.7194                   23655963.2974
 -21566081.45148 -16789173.72646  21519113.1254                   21519111.8914
 -47508873.73747 -37002680.82445  22321762.8754                   22321761.3094
 -22229178.00746 -17305189.81444  24328484.7734                   24328487.7894
 -43059794.02348 -33536834.31546  20728005.1644                   20728000.7234
 11  8 17  0 51 30.0000000  0  8G12G25G10G17G05G04G09G02
 -27815186.92348 -21658830.81446  21135710.1174                   21135707.5234
  -3187159.45947  -2468112.78444  23511794.1094                   23511794.9144
 -35811020.64548 -27889871.26646  21049982.2894                   21049980.1724
 -59374419.86046 -46249551.32344  23654340.5004                   23654339.2504
 -21711388.77648 -16902400.16146  21491461.6414                   21491460.9774
 -47496005.66847 -36992653.78745  22324211.6884                   22324210.2304
 -22214141.89946 -17293473.52243  24331346.0554                   24331349.9734
 -43118219.35248 -33582360.55946  20716886.9384                   20716882.6054
 11  8 17  0 52  0.0000000  0  8G12G25G10G17G05G04G09G02
 -27924586.63348 -21744077.34346  21114892.0784                   21114889.5554
  -3345901.58447  -2591807.91144  23481585.4844                   23481587.4804
 -35856224.94248 -27925095.38146  21041380.1094                   21041378.4574
 -59382770.66847 -46256058.47044  23652751.2114                   23652750.2664
 -21856284.86848 -17015306.13946  21463889.2974                   21463887.9224
 -47483053.23747 -36982560.98845  22326676.8364                   22326675.1994
 -22199053.50446 -17281716.53243  24334218.2734                   24334221.1564
 -43176384.81348 -33627684.29646  20705818.4614                   20705814.1524
 11  8 17  0 52 30.0000000  0  8G12G25G10G17G05G04G09G02
 -28033468.03948 -21828919.98846  21094172.8444                   21094170.4414
  -3504359.59947  -2715281.63844  23451432.3444                   23451433.6604
 -35900800.50048 -27959829.56646  21032897.6884                   21032895.5634
 -59390939.35647 -46262423.71744  23651196.9384                   23651196.3014
 -22000768.63848 -17127890.83646  21436394.7734                   21436393.4184
 -47470019.98047 -36972405.22245  22329156.0394                   22329155.2894
 -22183918.00446 -17269922.81244  24337098.7974                   24337101.5474
 -43234293.32648 -33672807.82046  20694798.8134                   20694794.7424
 11  8 17  0 53  0.0000000  0  8G12G25G10G17G05G04G09G02
 -28141826.96148 -21913355.51246  21073552.9304                   21073549.9534
  -3662528.69547  -2838530.20344  23421333.3674                   23421335.3284
 -35944745.50548 -27994072.41446  21024535.6254                   21024533.6414
 -59398923.25847 -46268644.96444  23649677.9534                   23649676.7734
 -22144835.07348 -17240150.33446  21408979.5084                   21408978.3404
 -47456905.11947 -36962185.87045  22331652.4614                   22331650.8404
 -22168736.50646 -17258093.23843  24339988.2194                   24339990.5784
 -43291943.82748 -33717730.29746  20683828.1094                   20683824.0164
 11  8 17  0 53 30.0000000  0  8G12G25G10G17G05G04G09G02
 -28249663.86348 -21997384.27246  21053031.8674                   21053029.4184
  -3820407.76647  -2961552.77244  23391290.0234                   23391291.3364
 -35988062.70948 -28027826.06646  21016292.0314                   21016290.3204
 -59406723.65147 -46274723.20844  23648193.6724                   23648193.2114
 -22288483.55048 -17352084.15146  21381644.5944                   21381642.9414
 -47443712.21447 -36951905.69845  22334162.4064                   22334161.1334
 -22153513.69246 -17246231.47143  24342884.3984                   24342887.3364
 -43349339.23248 -33762453.99246  20672906.6884                   20672902.2464
 11  8 17  0 54  0.0000000  0  8G12G25G10G17G05G04G09G02
 -28356975.83248 -22081003.98746  21032610.9694                   21032607.9614
  -3977993.46847  -3084346.74544  23361302.4384                   23361303.9964
 -36030752.41748 -28061090.76146  21008168.2974                   21008166.6804
 -59414339.42546 -46280657.63544  23646744.4224                   23646743.8874
 -22431710.62148 -17463689.61746  21354389.2814                   21354387.8364
 -47430442.03647 -36941565.32645  22336687.7034                   22336687.3674
 -22138252.13746 -17234339.54943  24345788.8134                   24345792.2234
 -43406480.12148 -33806979.35846  20662032.8364                   20662029.0084
 11  8 17  0 54 30.0000000  0  8G12G25G10G17G05G04G09G02
 -28463763.18048 -22164214.89946  21012289.7034                   21012287.8324
  -4135284.84347  -3206911.39644  23331371.3594                   23331372.7304
 -36072817.02048 -28093868.36646  21000164.0704                   21000161.9494
 -59421772.20946 -46286449.45244  23645329.2114                   23645329.4224
 -22574515.75548 -17574966.27046  21327214.2274                   21327212.7774
 -47417097.99447 -36931167.39745  22339227.1414                   22339225.6884
 -22122956.92446 -17222421.32343  24348699.1174                   24348703.3164
 -43463369.36248 -33851308.63546  20651207.4064                   20651203.0864
 11  8 17  0 55  0.0000000  0  8G12G25G10G17G05G04G09G02
 -28570024.02648 -22247015.56646  20992069.2424                   20992066.7664
  -4292279.22247  -3329244.60044  23301496.0864                   23301497.0554
 -36114257.45248 -28126159.59346  20992278.3284                   20992276.4534
 -59429021.16146 -46292098.03844  23643950.7274                   23643950.5594
 -22716896.28448 -17685912.08846  21300120.0164                   21300118.6484
 -47403681.67247 -36920713.14845  22341780.3594                   22341778.7384
 -22107631.16646 -17210479.42843  24351615.7974                   24351618.3954
 -43520008.02148 -33895442.65346  20640429.5944                   20640425.0784
 11  8 17  0 55 30.0000000  0  8G12G25G10G17G05G04G09G02
 -28675755.81248 -22329403.96846  20971949.5314                   20971947.0744
  -4448973.23947  -3451343.73945  23271677.6724                   23271679.8014
 -36155074.20648 -28157964.83646  20984510.5944                   20984508.9804
 -59436085.60946 -46297602.87844  23642605.6804                   23642605.7504
 -22858849.19448 -17796524.67946  21273107.3674                   21273106.1914
 -47390193.87447 -36910203.19445  22344346.5784                   22344345.5394
 -22092277.45846 -17198515.65043  24354537.7194                   24354540.7584
 -43576396.71348 -33939381.89046  20629698.7664                   20629694.7894
 11  8 17  0 56  0.0000000  0  8G12G25G10G17G05G04G09G02
 -28780959.49748 -22411380.87346  20951930.2424                   20951927.0704
  -4605366.56847  -3573208.61845  23241917.0314                   23241917.9534
 -36195270.58548 -28189286.68046  20976861.7274                   20976859.9924
 -59442967.71646 -46302965.62144  23641296.8594                   23641296.0744
 -23000374.19248 -17906803.83546  21246175.9534                   21246174.4574
 -47376638.51247 -36899640.60545  22346926.4144                   22346925.6724
 -22076901.04746 -17186534.24343  24357464.1174                   24357467.2154
 -43632539.27548 -33983129.33546  20619015.1884                   20619011.0554
 11  8 17  0 56 30.0000000  0  8G12G25G10G17G05G04G09G02
 -28885635.76048 -22492946.79046  20932010.2894                   20932007.9774
  -4761459.18547  -3694839.15945  23212213.5704                   23212215.1334
 -36234850.30148 -28220128.01246  20969330.2814                   20969328.3164
 -59449669.47646 -46308187.80544  23640021.0554                   23640021.2034
 -23141471.53248 -18016749.75846  21219326.1414                   21219324.4144
 -47363019.81547 -36889028.67045  22349518.0554                   22349516.8134
 -22061507.74346 -17174539.64743  24360393.5004                   24360396.8674
 -43688439.10848 -34026687.64046  20608377.9384                   20608373.9184
 11  8 17  0 57  0.0000000  0  8G12G25G10G17G05G04G09G02
 -28989779.76348 -22574097.96046  20912192.6094                   20912190.0164
  -4917245.11147  -3816230.71245  23182568.6414                   23182569.8984
 -36273811.00647 -28250486.99246  20961915.9774                   20961914.9384
 -59456187.05146 -46313266.44744  23638781.0394                   23638781.0004
 -23282135.30348 -18126357.84246  21192558.3364                   21192556.9414
 -47349336.04147 -36878366.01145  22352122.0554                   22352121.1024
 -22046097.46146 -17162531.80943  24363326.1564                   24363328.9804
 -43744094.30948 -34070055.32046  20597786.8284                   20597782.6254
 11  8 17  0 57 30.0000000  0  8G12G25G10G17G05G04G09G02
 -29093391.67048 -22654834.51546  20892475.4694                   20892473.1954
  -5072723.43847  -3937382.59245  23152981.7194                   23152982.9614
 -36312155.38447 -28280365.72446  20954619.1884                   20954617.4344
 -59462522.06446 -46318202.83144  23637575.5084                   23637575.3134
 -23422365.05648 -18235627.71546  21165873.7664                   21165872.1454
 -47335590.64747 -36867655.34045  22354737.2344                   22354735.9654
 -22030675.35946 -17150514.78043  24366260.9144                   24366263.8714
 -43799507.91748 -34113234.74046  20587242.1954                   20587238.1724
 11  8 17  0 58  0.0000000  0  8G12G25G10G17G05G04G09G02
 -29196470.48848 -22735155.67546  20872860.4384                   20872857.9064
  -5227892.06847  -4058293.14645  23123454.6724                   23123455.2934
 -36349885.38148 -28309765.71946  20947439.6644                   20947438.1564
 -59468674.89046 -46322997.30344  23636403.8834                   23636404.5274
 -23562159.11348 -18344558.08846  21139271.7584                   21139270.4144
 -47321785.64347 -36856898.23845  22357364.6954                   22357363.3014
 -22015245.45946 -17138491.70143  24369197.2344                   24369201.4534
 -43854681.44348 -34156227.09146  20576742.7894                   20576738.6954
 11  8 17  0 58 30.0000000  0  8G12G25G10G17G05G04G09G02
 -29299013.37948 -22815059.21946  20853347.1094                   20853344.8284
  -5382747.09347  -4178959.33845  23093986.1954                   23093987.4144
 -36387000.52748 -28338686.60246  20940376.9774                   20940374.8674
 -59474643.94046 -46327648.52444  23635268.8134                   23635268.3914
 -23701513.69748 -18453146.01646  21112753.0554                   21112751.5514
 -47307921.29247 -36846094.88145  22360003.0084                   22360001.8984
 -21999808.92346 -17126463.46943  24372133.9774                   24372138.4654
 -43909614.77648 -34199032.28146  20566289.2974                   20566285.2074
 11  8 17  0 59  0.0000000  0  8G12G25G10G17G05G04G09G02
 -29401019.18648 -22894544.26546  20833936.3914                   20833933.7664
  -5537286.01747  -4299379.22345  23064578.6414                   23064579.3634
 -36423502.39048 -28367129.60146  20933431.0704                   20933428.9264
 -59480428.88246 -46332156.32244  23634167.6954                   23634167.7894
 -23840426.35548 -18561389.59846  21086319.0314                   21086317.2624
 -47293999.31647 -36835246.62845  22362651.9454                   22362651.0984
 -21984369.42046 -17114432.87043  24375073.2424                   24375077.0234
 -43964309.46148 -34241651.51446  20555881.4614                   20555877.2934
 11  8 17  0 59 30.0000000  0  8G12G25G10G17G05G04G09G02
 -29502486.84048 -22973609.97246  20814627.7664                   20814624.4844
  -5691506.95247  -4419551.31745  23035231.7814                   23035231.6024
 -36459392.82047 -28395096.15946  20926601.3204                   20926599.7974
 -59486030.36546 -46336521.12844  23633101.7114                   23633101.7704
 -23978895.63248 -18669287.67746  21059969.0474                   21059967.4144
 -47280021.95347 -36824355.22545  22365311.7584                   22365310.6884
 -21968930.60046 -17102402.84743  24378010.7734                   24378014.3834
 -44018767.52548 -34284086.35446  20545518.6804                   20545514.1724
 11  8 17  1  0  0.0000000  0  8G12G25G10G17G05G04G09G02
 -29603416.40948 -23052256.39146  20795421.1804                   20795418.5434
  -5845408.87847  -4539474.85945  23005944.6024                   23005945.6844
 -36494674.63047 -28422588.48046  20919887.0704                   20919885.7624
 -59491449.45946 -46340743.83044  23632071.9064                   23632070.8524
 -24116920.84148 -18776839.73646  21033703.9304                   21033702.3244
 -47265992.35347 -36813423.08744  22367982.0784                   22367981.0824
 -21953497.12846 -17090376.90243  24380948.0394                   24380951.7304
 -44072991.68448 -34326338.94146  20535199.8594                   20535195.3794
 11  8 17  1  0 30.0000000  0  8G12G25G10G17G05G04G09G02
 -28128381.91348 -21902878.85946  21076110.7734                   21076108.3284
  -4423562.83247  -3431542.79545  23276513.5084                   23276513.5824
 -34953926.77247 -27222005.72546  21213081.6954                   21213080.0864
 -57921264.63246 -45117223.19344  23930867.3284                   23930866.9884
 -22679073.63248 -17656439.25146  21307317.0784                   21307315.2504
 -45676491.19147 -35574850.79245  22670453.8444                   22670452.5274
 -20362651.79846 -15850757.33443  24683675.9304                   24683680.1524
 -42551560.25548 -33140807.95846  20824718.4454                   20824714.3404
 11  8 17  1  1  0.0000000  0  8G12G25G10G17G05G04G09G02
 -28228229.89648 -21980682.48446  21057110.5084                   21057107.9304
  -4576817.94547  -3550962.31044  23247349.2344                   23247349.4884
 -34987994.32348 -27248551.87146  21206598.8134                   21206597.3554
 -57926317.22946 -45121160.31244  23929905.6644                   23929905.7074
 -22816202.37248 -17763292.76846  21281222.2734                   21281220.6644
 -45662360.60147 -35563839.95445  22673143.3444                   22673142.5004
 -20347237.88746 -15838746.63743  24686609.1954                   24686612.7584
 -42605319.56848 -33182698.33846  20814488.0944                   20814484.4964
 11  8 17  1  1 30.0000000  0  8G12G25G10G17G05G04G09G02
 -28327533.50448 -22058061.91446  21038213.6334                   21038211.2774
  -4729743.83547  -3670125.31345  23218248.4144                   23218249.2814
 -35021454.52648 -27274624.75346  21200231.6024                   21200229.4654
 -57931184.80846 -45124953.24644  23928979.3984                   23928978.5394
 -22952877.95348 -17869793.16746  21255213.6954                   21255212.1684
 -45648179.77247 -35552789.99645  22675841.1334                   22675840.4414
 -20331836.63046 -15826745.82743  24689540.4304                   24689542.9884
 -42658846.19448 -33224407.39246  20804302.7974                   20804298.9844
 11  8 17  1  2  0.0000000  0  8G12G25G10G17G05G04G09G02
 -28426292.84148 -22135017.24146  21019420.2344                   21019417.7664
  -4882339.71447  -3789031.15045  23189210.9384                   23189210.9454
 -35054310.87248 -27300227.09346  21193979.2584                   21193977.0744
 -57935868.63146 -45128603.01044  23928087.7504                   23928087.9304
 -23089099.62348 -17975939.86346  21229291.6094                   21229289.9924
 -45633952.14547 -35541703.52544  22678548.8444                   22678547.6644
 -20316453.18146 -15814758.85743  24692467.1094                   24692471.1684
 -42712143.48748 -33265937.75246  20794160.4694                   20794156.8874
 11  8 17  1  2 30.0000000  0  8G12G25G10G17G05G04G09G02
 -28524507.17248 -22211547.87746  21000730.9144                   21000728.3714
  -5034603.73747  -3907678.39945  23160235.6564                   23160236.8834
 -35086565.62648 -27325360.66646  21187842.0084                   21187839.6604
 -57940369.23746 -45132110.01243  23927231.1094                   23927231.2504
 -23224866.16648 -18081731.92346  21203455.7814                   21203454.0164
 -45619680.34347 -35530582.66144  22681264.5164                   22681263.4614
 -20301091.09146 -15802788.60843  24695391.0944                   24695395.3444
 -42765213.08648 -33307290.69246  20784062.1174                   20784057.6954
 11  8 17  1  3  0.0000000  0  8G12G25G10G17G05G04G09G02
 -28622171.95048 -22287650.30346  20982145.8834                   20982143.4694
  -5186530.13647  -4026062.57945  23131325.0864                   23131325.6374
 -35118216.52448 -27350023.70146  21181818.1954                   21181816.2504
 -57944683.03246 -45135471.41343  23926410.4534                   23926410.6374
 -23360171.88748 -18187164.90746  21177707.9924                   21177706.7424
 -45605362.01547 -35519425.53944  22683989.5634                   22683988.4184
 -20285750.20746 -15790834.83643  24698310.5944                   24698314.0784
 -42818053.27248 -33348464.86646  20774006.8914                   20774002.9304
 11  8 17  1  3 30.0000000  0  8G12G25G10G17G05G04G09G02
 -28719290.57448 -22363327.14246  20963664.7274                   20963662.3404
  -5338120.80547  -4144185.13545  23102478.5314                   23102478.6724
 -35149269.84948 -27374221.09346  21175909.0084                   21175907.5984
 -57948814.44246 -45138690.76044  23925624.4144                   23925624.5664
 -23495019.50648 -18292240.91146  21152047.5164                   21152045.3364
 -45591003.32647 -35508236.94344  22686721.9774                   22686720.1414
 -20270438.37846 -15778903.69643  24701223.7814                   24701227.8794
 -42870669.44048 -33389464.46946  20763994.1484                   20763990.2074
 11  8 17  1  4  0.0000000  0  8G12G25G10G17G05G04G09G02
 -28815857.85148 -22438574.36846  20945288.5084                   20945286.3794
  -5489369.60447  -4262041.32745  23073696.8834                   23073697.4024
 -35179723.40748 -27397951.13646  21170113.9694                   21170112.6214
 -57952759.59146 -45141764.91944  23924874.0704                   23924873.0354
 -23629402.62948 -18396954.99546  21126475.0784                   21126473.3524
 -45576602.33947 -35497015.41044  22689462.5474                   22689461.0354
 -20255154.95546 -15766994.70743  24704131.7734                   24704137.2154
 -42923059.49548 -33430287.90446  20754024.8834                   20754020.7664
 11  8 17  1  4 30.0000000  0  8G12G25G10G17G05G04G09G02
 -28911873.63648 -22513391.85246  20927017.6334                   20927014.8204
  -5640274.92547  -4379629.87945  23044980.2274                   23044980.4774
 -35209579.88648 -27421215.93846  21164432.6564                   21164430.7424
 -57956519.46546 -45144694.74144  23924158.4694                   23924158.2194
 -23763320.20548 -18501306.30746  21100991.6024                   21100989.7304
 -45562161.39547 -35485762.71744  22692210.4384                   22692209.0314
 -20239903.99046 -15755111.01543  24707035.4144                   24707039.2934
 -42975225.83848 -33470937.00146  20744097.9064                   20744094.0824
 11  8 17  1  5  0.0000000  0  8G12G25G10G17G05G04G09G02
 -29007339.25948 -22587780.64346  20908850.8524                   20908848.0204
  -5790837.12347  -4496951.03445  23016329.1804                   23016330.3674
 -35238843.61348 -27444018.85146  21158863.6024                   21158861.5124
 -57960096.61746 -45147482.16744  23923477.9224                   23923477.7114
 -23896773.35248 -18605295.73546  21075595.9924                   21075594.8714
 -45547684.78247 -35474482.25444  22694965.0554                   22694963.5434
 -20224691.86846 -15743257.60843  24709930.6024                   24709934.8444
 -43027172.29348 -33511414.76846  20734212.7424                   20734208.5904
 11  8 17  1  5 30.0000000  0  8G12G25G10G17G05G04G09G02
 -29102254.25148 -22661740.37646  20890789.3204                   20890786.8134
  -5941053.99347  -4614003.13245  22987743.5634                   22987744.4964
 -35267516.40648 -27466361.28546  21153407.7424                   21153406.1214
 -57963491.33346 -45150127.44844  23922830.9534                   23922831.8634
 -24029760.14748 -18708921.74546  21050289.4774                   21050287.8954
 -45533174.41047 -35463175.47744  22697726.2974                   22697725.2464
 -20209521.67446 -15731436.89343  24712816.5864                   24712821.3984
 -43078900.47448 -33551722.44046  20724369.3054                   20724365.2894
 11  8 17  1  6  0.0000000  0  8G12G25G10G17G05G04G09G02
 -29196615.14248 -22735268.34146  20872832.9774                   20872830.4064
  -6090920.83447  -4730782.46245  22959225.1174                   22959226.1214
 -35295597.44148 -27488242.62346  21148064.2814                   21148062.5704
 -57966701.20946 -45152628.68944  23922221.0314                   23922220.6524
 -24162276.09048 -18812180.87546  21025072.4694                   21025070.9694
 -45518629.37647 -35451841.65944  22700494.2194                   22700493.3364
 -20194394.45146 -15719649.61943  24715695.4774                   24715701.1414
 -43130409.60248 -33591859.43746  20714567.3444                   20714563.2234
 11  8 17  1  6 30.0000000  0  8G12G25G10G17G05G04G09G02
 -29290421.40448 -22808364.14946  20854982.0864                   20854979.5984
  -6240435.71047  -4847287.52645  22930773.5634                   22930774.0944
 -35323089.14048 -27509664.72046  21142832.8834                   21142830.6724
 -57969726.66446 -45154986.23144  23921644.6804                   23921644.7114
 -24294319.88648 -18915072.10546  20999945.4534                   20999943.9694
 -45504051.97447 -35440482.67544  22703268.4614                   22703267.0234
 -20179313.79746 -15707898.61343  24718565.5004                   24718569.3914
 -43181701.39948 -33631827.07246  20704806.9384                   20704802.7304
 11  8 17  1  7  0.0000000  0  8G12G25G10G17G05G04G09G02
 -29383671.31948 -22881026.40846  20837237.3914                   20837234.8204
  -6389595.74047  -4963516.11445  22902388.9614                   22902389.8524
 -35349993.02148 -27530628.78746  21137712.9844                   21137711.3484
 -57972567.32146 -45157199.74744  23921104.8594                   23921104.6174
 -24425889.37848 -19017593.73746  20974908.5234                   20974907.0314
 -45489443.08247 -35429099.15544  22706047.4924                   22706047.2194
 -20164282.46946 -15696186.09343  24721426.7424                   24721431.0744
 -43232777.03348 -33671626.27546  20695087.4064                   20695083.4494
 11  8 17  1  7 30.0000000  0  8G12G25G10G17G05G04G09G02
 -29476363.46048 -22953254.05646  20819598.3444                   20819595.7504
  -6538398.06747  -5079465.94845  22874073.0004                   22874074.1724
 -35376310.01048 -27551135.51746  21132705.0704                   21132703.3134
 -57975222.58446 -45159268.80544  23920599.5164                   23920599.3444
 -24556981.94848 -19119743.74746  20949962.2894                   20949960.7894
 -45474803.61347 -35417691.79844  22708833.4304                   22708833.2664
 -20149303.07246 -15684514.05743  24724277.0164                   24724280.7814
 -43283637.18348 -33711257.56546  20685408.9924                   20685405.0314
 11  8 17  1  8  0.0000000  0  8G12G25G10G17G05G04G09G02
 -29568496.71748 -23025046.21246  20802066.2424                   20802063.6884
  -6686840.42347  -5195135.29045  22845825.3754                   22845826.2424
 -35402041.84148 -27571186.29946  21127808.4694                   21127806.7934
 -57977692.61346 -45161193.51944  23920129.9144                   23920128.9384
 -24687595.59648 -19221520.56946  20925107.0944                   20925105.3954
 -45460135.58347 -35406262.13444  22711625.4064                   22711624.2894
 -20134379.01546 -15672885.15943  24727117.8054                   24727120.7154
 -43334283.31348 -33750722.08746  20675771.4224                   20675767.4804
 11  8 17  1  8 30.0000000  0  8G12G25G10G17G05G04G09G02
 -29660071.98248 -23096403.57046  20784639.6884                   20784636.9964
  -6834921.58847  -5310523.15845  22817646.5554                   22817646.9184
 -35427191.98348 -27590783.79146  21123022.4144                   21123020.3324
 -57979978.48746 -45162974.68244  23919694.5704                   23919694.5864
 -24817729.84048 -19322923.83446  20900343.3134                   20900341.5984
 -45445441.58847 -35394812.32044  22714421.4774                   22714420.4654
 -20119514.34446 -15661302.43843  24729946.3524                   24729949.9064
 -43384718.15848 -33790021.97746  20666174.1414                   20666170.4384
 11  8 17  1  9  0.0000000  0  8G12G25G10G17G05G04G09G02
 -29751087.68248 -23167324.90646  20767320.0864                   20767317.8404
  -6982638.73747  -5425627.40245  22789536.8984                   22789536.8164
 -35451761.64248 -27609928.98546  21118347.2344                   21118345.4844
 -57982079.92346 -45164612.17044  23919294.8134                   23919294.3164
 -24947382.34148 -19423951.71546  20875671.6724                   20875669.8484
 -45430722.50847 -35383342.91944  22717222.6024                   22717221.4104
 -20104712.25846 -15649768.62243  24732762.0554                   24732766.9614
 -43434942.30748 -33829157.69346  20656617.0554                   20656613.2424
 11  8 17  1  9 30.0000000  0  8G12G25G10G17G05G04G09G02
 -29841542.89048 -23237809.47446  20750106.9774                   20750104.9304
  -7129989.75547  -5540446.33445  22761496.9924                   22761497.4414
 -35475752.69748 -27628623.31946  21113781.3594                   21113779.9384
 -57983997.05646 -45166106.05344  23918929.9694                   23918929.1174
 -25076551.47648 -19524602.94846  20851091.5314                   20851089.6024
 -45415980.22447 -35371855.44444  22720027.7814                   22720026.8204
 -20089976.07246 -15638286.06043  24735567.3134                   24735571.4264
 -43484957.45048 -33868130.54146  20647099.5234                   20647095.2774
 11  8 17  1 10  0.0000000  0  8G12G25G10G17G05G04G09G02
 -29931433.69748 -23307854.27346  20733001.1564                   20732998.9224
  -7276969.46747  -5654975.92945  22733527.7504                   22733527.7934
 -35499164.37948 -27646866.17546  21109326.1334                   21109324.2274
 -57985727.34946 -45167454.31143  23918600.6804                   23918600.2114
 -25205232.56848 -19624873.88946  20826604.2194                   20826602.7274
 -45401213.44147 -35360348.88044  22722838.2734                   22722837.4184
 -20075305.94646 -15626855.01443  24738359.0164                   24738364.3014
 -43534762.19748 -33906939.43546  20637621.7274                   20637617.3954
 11  8 17  1 10 30.0000000  0  8G12G25G10G17G05G04G09G02
 -30020764.49048 -23377462.68346  20716002.5314                   20715999.9024
  -7423580.55847  -5769218.30345  22705628.2194                   22705628.2974
 -35522003.88248 -27664663.18446  21104980.0784                   21104978.5904
 -57987275.62147 -45168660.79544  23918306.5314                   23918304.9534
 -25333428.79948 -19724767.01746  20802209.3914                   20802207.1994
 -45386428.80447 -35348828.41744  22725651.3754                   22725650.9024
 -20060710.00546 -15615481.81243  24741136.2194                   24741140.5314
 -43584363.00748 -33945589.42246  20628183.0234                   20628178.3794
 11  8 17  1 11  0.0000000  0  7G12G25G10G17G05G04G02
 -30109530.28348 -23446630.82446  20699111.1414                   20699108.1094
  -7569816.30347  -5883168.19845  22677800.0004                   22677800.6414
 -35544268.62448 -27682012.33446  21100743.5084                   21100741.8554
 -57988637.73947 -45169722.18444  23918047.6484                   23918046.0864
 -25461134.11148 -19824277.60846  20777907.9454                   20777906.0944
 -45371622.99147 -35337291.43144  22728468.3524                   22728467.5354
 -43633756.92948 -33984078.19546  20618783.3204                   20618779.1334
 11  8 17  1 11 30.0000000  0  7G12G25G10G17G05G04G02
 -30197728.48348 -23515356.69546  20682327.1024                   20682324.7774
  -7715672.90447  -5996822.66845  22650044.8284                   22650045.1024
 -35565959.14748 -27698914.03046  21096615.9064                   21096614.0204
 -57989812.25046 -45170637.44143  23917823.0704                   23917822.5944
 -25588345.22648 -19923403.11846  20753700.3444                   20753698.1724
 -45356796.27847 -35325738.19044  22731290.0084                   22731289.4454
 -43682943.90348 -34022405.70146  20609423.5864                   20609418.9144
 11  8 17  1 12  0.0000000  0  7G12G25G10G17G05G04G02
 -30285357.61248 -23583639.13146  20665651.7344                   20665649.5554
  -7861147.16547  -6110179.18445  22622361.9844                   22622363.0434
 -35587076.61448 -27715369.20646  21092597.3054                   21092595.6254
 -57990798.37246 -45171405.86643  23917635.1094                   23917634.8404
 -25715059.88348 -20022141.77846  20729587.2344                   20729585.3524
 -45341949.28147 -35314169.13644  22734116.1644                   22734114.8874
 -43731924.25148 -34060572.21746  20600102.7894                   20600098.6914
 11  8 17  1 12 30.0000000  0  7G12G25G10G17G05G04G02
 -28796986.57348 -22423869.48646  20948879.7114                   20948877.0904
  -6430804.57747  -4995626.48745  22894546.9304                   22894547.2704
 -34032194.86347 -26503773.02646  21388481.7504                   21388479.8954
 -56416168.70846 -43944421.73843  24217277.5164                   24217277.4964
 -24265844.06148 -18892882.65946  21005363.8444                   21005361.8054
 -43751656.41247 -34074979.89944  23036737.5784                   23036737.0004
 -42205270.23448 -32870971.69846  20890615.5004                   20890611.6094
 11  8 17  1 13  0.0000000  0  7G12G25G10G17G05G04G02
 -28883461.33248 -22491252.39746  20932424.0554                   20932421.3594
  -6575493.51247  -5108371.08245  22867013.8984                   22867014.1564
 -34052158.38047 -26519329.02446  21384682.5084                   21384680.8284
 -56416764.51646 -43944886.04043  24217164.0234                   24217163.7774
 -24391545.77448 -18990832.00046  20981443.4384                   20981441.1724
 -43736759.14947 -34063371.68744  23039573.3754                   23039571.7384
 -42253827.64548 -32908808.64146  20881375.2664                   20881371.3714
 11  8 17  1 13 30.0000000  0  7G12G25G10G17G05G04G02
 -28969364.07348 -22558189.59646  20916077.3444                   20916074.5164
  -6719792.68947  -5220811.96845  22839554.2814                   22839555.0394
 -34071554.28647 -26534442.70346  21380991.8364                   21380989.9844
 -56417171.54346 -43945203.24343  24217086.9304                   24217086.6844
 -24516745.11648 -19088389.88646  20957618.8204                   20957616.6094
 -43721845.36747 -34051750.58544  23042410.9534                   23042410.2664
 -42302181.96748 -32946487.33946  20872173.8674                   20872169.3984
 11  8 17  1 14  0.0000000  0  7G12G25G10G17G05G04G02
 -29054697.86648 -22624683.45246  20899838.7894                   20899836.3524
  -6863703.39247  -5332950.14045  22812169.4454                   22812169.7194
 -34090388.35847 -26549118.60946  21377407.3674                   21377405.9844
 -56417393.63546 -43945376.32543  24217044.5394                   24217044.7894
 -24641444.13448 -19185557.93046  20933889.5084                   20933887.4184
 -43706920.14347 -34040120.56844  23045250.8444                   23045250.4144
 -42350338.25048 -32984011.71846  20863010.1804                   20863006.0204
 11  8 17  1 14 30.0000000  0  7G12G25G10G17G05G04G02
 -29139464.19748 -22690735.12946  20883708.0784                   20883705.6484
  -7007225.69047  -5444785.67145  22784857.7814                   22784858.0634
 -34108664.91748 -26563360.08646  21373929.8204                   21373928.3794
 -56417433.19746 -43945407.15543  24217037.6174                   24217037.1804
 -24765643.25748 -19282336.43446  20910254.9384                   20910253.3094
 -43691987.06547 -34028484.43044  23048093.3754                   23048091.8954
 -42398300.19548 -33021384.66546  20853882.7194                   20853878.8404
 11  8 17  1 15  0.0000000  0  7G12G25G10G17G05G04G02
 -29223658.93748 -22756341.41446  20867686.4924                   20867684.1994
  -7150353.63047  -5556313.90145  22757621.7584                   22757622.2194
 -34126382.44448 -26577165.95346  21370558.1254                   21370556.6804
 -56417286.64546 -43945292.91143  24217064.8834                   24217064.7114
 -24889336.98448 -19378721.12046  20886717.0234                   20886715.1884
 -43677044.00247 -34016840.51044  23050936.0784                   23050935.7704
 -42446065.31848 -33058604.23746  20844793.6174                   20844789.7114
 11  8 17  1 15 30.0000000  0  7G12G25G10G17G05G04G02
 -29307282.45448 -22821502.59246  20851773.3054                   20851771.1134
  -7293086.12847  -5667534.04245  22730460.3914                   22730460.9064
 -34143544.35547 -26590538.88645  21367292.2974                   21367290.5664
 -56416955.23346 -43945034.76243  24217128.7194                   24217128.5744
 -25012525.36548 -19474712.02846  20863274.9614                   20863273.0274
 -43662093.37947 -34005190.68344  23053781.5164                   23053780.7584
 -42493636.13148 -33095672.41046  20835741.2504                   20835737.1884
 11  8 17  1 16  0.0000000  0  7G12G25G10G17G05G04G02
 -29390340.24748 -22886222.94546  20835967.8524                   20835965.3874
  -7435426.84447  -5778448.86245  22703373.7734                   22703374.5394
 -34160158.65847 -26603485.09646  21364130.5394                   21364128.7424
 -56416445.11846 -43944637.25944  24217225.3674                   24217224.9574
 -25135212.56548 -19570312.41747  20839928.2974                   20839926.3324
 -43647142.43047 -33993540.65144  23056626.9844                   23056626.0204
 -42541020.03648 -33132594.93546  20826724.3134                   20826721.1294
 11  8 17  1 16 30.0000000  0  7G12G25G10G17G05G04G02
 -29472828.45148 -22950499.46046  20820271.0164                   20820268.5274
  -7577370.32347  -5889054.14745  22676362.4534                   22676363.4694
 -34176224.26447 -26616003.73245  21361073.3204                   21361072.0274
 -56415753.09846 -43944098.05044  24217356.7034                   24217356.7464
 -25257393.78648 -19665518.52546  20816677.8834                   20816676.0314
 -43632189.50247 -33981889.08344  23059472.3674                   23059471.5514
 -42588215.23548 -33169370.41746  20817743.7424                   20817739.9264
 11  8 17  1 17  0.0000000  0  7G12G25G10G17G05G04G02
 -29554743.66548 -23014329.48746  20804683.2734                   20804681.1914
  -7718911.47747  -5999345.95245  22649428.1644                   22649428.6644
 -34191740.82947 -26628094.58345  21358120.5784                   21358118.9384
 -56414876.69646 -43943415.13244  24217523.3594                   24217523.6174
 -25379064.59748 -19760326.92046  20793524.3984                   20793523.2854
 -43617233.15647 -33970234.79444  23062318.1884                   23062317.6764
 -42635219.93448 -33205997.45846  20808798.6804                   20808794.8794
 11  8 17  1 17 30.0000000  0  7G12G25G10G17G05G04G02
 -29636090.93548 -23077716.97846  20789203.4534                   20789200.7664
  -7860053.51447  -6109326.74645  22622570.0784                   22622570.1454
 -34206715.94647 -26639763.50245  21355271.4144                   21355269.9694
 -56413821.44946 -43942592.86844  24217724.3134                   24217724.2584
 -25500228.80248 -19854740.55546  20770467.9144                   20770465.9844
 -43602279.93647 -33958582.94244  23065163.3524                   23065162.7854
 -42682041.09248 -33242481.47846  20799889.2504                   20799885.0204
 11  8 17  1 18  0.0000000  0  7G12G25G10G17G05G04G02
 -29716866.66848 -23140659.10246  20773831.9224                   20773830.0634
  -8000791.21947  -6218992.50145  22595788.3984                   22595788.9064
 -34221148.71747 -26651009.81945  21352524.7734                   21352522.5124
 -56412584.33146 -43941628.89944  24217959.9144                   24217959.7234
 -25620882.14748 -19948756.11546  20747508.2344                   20747506.6054
 -43587328.24647 -33946932.32744  23068008.7504                   23068007.6294
 -42728677.07048 -33278821.19346  20791014.3054                   20791010.3054
 11  8 17  1 18 30.0000000  0  7G12G25G10G17G05G04G02
 -29797071.13348 -23203156.09846  20758569.9924                   20758567.5084
  -8141123.15247  -6328342.04145  22569084.1724                   22569084.3484
 -34235042.37747 -26661836.05745  21349880.9304                   21349879.3324
 -56411166.53846 -43940524.13244  24218230.2734                   24218229.8714
 -25741023.74348 -20042372.91246  20724646.1024                   20724644.2464
 -43572380.44346 -33935284.71044  23070853.4144                   23070852.6684
 -42775130.04948 -33315018.32146  20782174.7034                   20782171.0084
 11  8 17  1 19  0.0000000  0  7G12G25G10G17G05G04G02
 -29876705.76548 -23265209.06446  20743416.0234                   20743413.0354
  -8281049.05947  -6437375.21845  22542456.9534                   22542457.1884
 -34248401.01447 -26672245.39845  21347339.0394                   21347336.5554
 -56409569.96646 -43939280.04944  24218533.8834                   24218533.5274
 -25860653.83848 -20135591.13947  20701881.4844                   20701879.7194
 -43557439.57346 -33923642.50444  23073696.7034                   23073695.7934
 -42821403.10148 -33351075.23646  20773369.4304                   20773365.3484
 11  8 17  1 19 30.0000000  0  7G12G25G10G17G05G04G02
 -29955767.99548 -23326816.00346  20728370.7504                   20728368.4654
  -8420564.93747  -6546088.87545  22515908.0704                   22515908.7304
 -34261224.93348 -26682238.06045  21344898.4144                   21344896.4184
 -56407792.99246 -43937895.41844  24218872.3204                   24218871.6884
 -25979769.79048 -20228408.72546  20679213.9614                   20679212.4614
 -43542505.15546 -33912005.32944  23076538.6644                   23076537.9694
 -42867495.74348 -33386991.58646  20764597.8834                   20764593.9534
 11  8 17  1 20  0.0000000  0  7G12G25G10G17G05G04G02
 -30034257.00348 -23387976.28246  20713435.0084                   20713432.5744
  -8559667.33047  -6654480.37045  22489437.4844                   22489438.5474
 -34273515.15548 -26691814.87745  21342559.7114                   21342557.7664
 -56405834.73446 -43936369.47644  24219244.8674                   24219243.5394
 -26098368.48848 -20320823.26247  20656645.2034                   20656643.6844
 -43527577.25047 -33900373.21844  23079379.1884                   23079378.7154
 -42913408.06048 -33422767.40546  20755861.7194                   20755857.6334
 11  8 17  1 20 30.0000000  0  7G12G25G10G17G05G04G02
 -30112173.30148 -23448690.29446  20698608.1564                   20698605.7894
  -8698355.49347  -6762549.07845  22463046.1564                   22463046.9384
 -34285275.66648 -26700978.91545  21340322.0704                   21340320.4884
 -56403696.68746 -43934703.44443  24219651.2814                   24219650.7154
 -26216449.94048 -20412834.74947  20634175.1094                   20634173.3284
 -43512658.41846 -33888748.18444  23082218.1484                   23082218.0084
 -42959142.85448 -33458404.90646  20747158.5084                   20747154.5234
 11  8 17  1 21  0.0000000  0  8G12G25G10G17G05G04G29G02
 -30189518.53548 -23508959.31846  20683889.3834                   20683887.1294
  -8836629.16047  -6870294.78545  22436733.4694                   22436733.9574
 -34296510.99447 -26709733.73645  21338183.7504                   21338182.1484
 -56401381.14746 -43932899.13343  24220091.9774                   24220092.3014
 -26334014.88948 -20504443.76946  20611803.5164                   20611801.8874
 -43497752.03846 -33877132.85044  23085053.9224                   23085054.4454
  10813927.51255   8439305.85053  24567786.2504                   24567786.2974
 -43004703.40148 -33493906.63046  20738488.5784                   20738484.5234
 11  8 17  1 21 30.0000000  0  8G12G25G10G17G05G04G29G02
 -30266295.81048 -23568785.77746  20669279.6334                   20669277.0554
  -8974489.51247  -6977718.44345  22410499.7814                   22410500.0904
 -34307226.59648 -26718083.57045  21336144.8594                   21336142.6484
 -56398891.39746 -43930959.05143  24220565.5634                   24220565.5514
 -26451065.31648 -20595651.86046  20589529.8364                   20589527.6214
 -43482862.59046 -33865530.74744  23087888.6174                   23087888.2624
  10666674.89346   8324563.65143  24539766.4064                   24539765.4924
 -43050094.22148 -33529276.09446  20729850.7504                   20729846.5944
 11  8 17  1 22  0.0000000  0  8G12G25G10G17G05G04G29G02
 -30342506.98747 -23628171.11646  20654777.0864                   20654774.8094
  -9111936.65347  -7084820.10745  22384344.2974                   22384344.8054
 -34317427.19047 -26726032.09345  21334203.1024                   21334201.4884
 -56396230.03646 -43928885.18943  24221071.6334                   24221071.4844
 -26567601.91348 -20686459.57147  20567353.0784                   20567351.3984
 -43467993.79246 -33853944.69744  23090718.3444                   23090717.8794
  10519333.07746   8209751.80743  24511726.5164                   24511725.8524
 -43095318.89347 -33564516.09346  20721244.7734                   20721240.7194
 11  8 17  1 22 30.0000000  0  8G12G25G10G17G05G04G29G02
 -30418153.40448 -23687116.39346  20640382.4064                   20640380.0514
  -9248970.22047  -7191599.52045  22358267.8674                   22358268.4774
 -34327116.65647 -26733582.34745  21332359.8674                   21332357.8954
 -56393399.20146 -43926679.28743  24221610.2894                   24221610.6454
 -26683625.19948 -20776867.29947  20545275.0164                   20545273.2814
 -43453148.32346 -33842376.82844  23093543.3364                   23093541.8794
  10371900.64846   8094869.41643  24483671.7344                   24483671.7894
 -43140380.30548 -33599628.87046  20712670.1094                   20712666.1604
 11  8 17  1 23  0.0000000  0  8G12G25G10G17G05G04G29G02
 -30493229.25448 -23745617.05946  20626095.3284                   20626093.1914
  -9385582.33747  -7298050.50645  22332271.6254                   22332271.8094
 -34336291.57447 -26740731.63145  21330614.3364                   21330612.6024
 -56390393.26246 -43924336.99243  24222183.1174                   24222182.6524
 -26799128.11948 -20866869.53047  20523295.1484                   20523293.5634
 -43438321.85746 -33830823.76244  23096364.6024                   23096364.2424
  10224383.59246   7979921.10244  24455599.7274                   24455600.5124
 -43185274.04048 -33634611.00446  20704127.2974                   20704123.3324
 11  8 17  1 23 30.0000000  0  8G12G25G10G17G05G04G29G02
 -30567730.47848 -23803669.96446  20611918.2814                   20611915.6484
  -9521767.34947  -7404168.69945  22306356.0234                   22306356.9264
 -34344951.14547 -26747479.35745  21328965.9694                   21328964.5084
 -56387208.99945 -43921855.85243  24222788.6334                   24222787.6334
 -26914106.22848 -20956462.84447  20501415.8914                   20501413.8404
 -43423512.15046 -33819283.73544  23099182.8754                   23099181.5864
  10076785.73446   7864909.78644  24427513.2814                   24427513.5124
 -43229998.04447 -33669460.86746  20695616.4304                   20695612.1484
 11  8 17  1 24  0.0000000  0  8G12G25G10G17G05G04G29G02
 -29066236.02348 -22633674.29647  20897643.5864                   20897640.5784
  -8082099.98347  -6282349.97145  22580315.9454                   22580316.2974
 -32777678.99447 -25526228.33545  21627207.9534                   21627206.1884
 -54808427.97646 -42691636.87943  24523220.4224                   24523219.2034
 -25453135.13148 -19818043.76646  20779429.4064                   20779427.8164
 -41833302.05146 -32580158.99144  23401789.9534                   23401788.1804
  11504531.29647   8977438.82144  24699205.0634                   24699204.1604
 -41699133.32548 -32476579.26646  20986930.1414                   20986925.7504
 11  8 17  1 24 30.0000000  0  8G12G25G10G17G05G04G29G02
 -29139587.30047 -22690831.13446  20883684.8204                   20883683.0204
  -8217424.00647  -6387797.23845  22554564.4454                   22554565.5164
 -32785314.88847 -25532178.37945  21625754.6724                   21625752.8954
 -54804887.16746 -42688877.77743  24523895.1254                   24523894.0984
 -25567058.30648 -19906815.03947  20757750.3284                   20757748.4734
 -41818528.71846 -32568647.30144  23404600.4614                   23404599.4104
  11356773.50947   8862302.90044  24671087.3984                   24671087.1094
 -41743521.06447 -32511167.11246  20978483.5084                   20978479.7774
 11  8 17  1 25  0.0000000  0  8G12G25G10G17G05G04G29G02
 -29212359.10548 -22747536.44146  20869836.7344                   20869834.4414
  -8352310.18947  -6492903.32545  22528896.4144                   22528897.6134
 -32792438.35747 -25537729.14145  21624399.7664                   21624397.5664
 -54801164.13546 -42685976.78143  24524603.6024                   24524602.0044
 -25680448.26848 -19995170.82447  20736172.9224                   20736170.7894
 -41803771.02046 -32557147.80444  23407408.8284                   23407407.9224
  11208940.41546   8747108.29044  24642955.7344                   24642954.8834
 -41787738.37348 -32545622.15246  20970069.2894                   20970065.0044
 11  8 17  1 25 30.0000000  0  8G12G25G10G17G05G04G29G02
 -29284554.64248 -22803792.69246  20856098.4844                   20856096.2544
  -8486759.60247  -6597669.06845  22503311.6254                   22503312.0984
 -32799055.00247 -25542884.97645  21623139.8754                   21623137.9574
 -54797262.60046 -42682936.52343  24525345.8754                   24525344.7154
 -25793306.87648 -20083112.57946  20714696.6094                   20714694.2544
 -41789033.43946 -32545663.99744  23410213.4774                   23410212.6604
  11061029.29347   8631852.83844  24614809.3284                   24614808.7194
 -41831789.37448 -32579947.60546  20961686.5784                   20961682.8834
 11  8 17  1 26  0.0000000  0  8G12G25G10G17G05G04G29G02
 -29356170.29848 -22859597.09646  20842470.5864                   20842467.9024
  -8620766.83747  -6702090.27045  22477810.7504                   22477810.7734
 -32805163.88447 -25547645.13445  21621977.7734                   21621976.0394
 -54793179.43746 -42679754.85543  24526122.6484                   24526121.3554
 -25905629.51248 -20170636.68047  20693322.0784                   20693320.5474
 -41774313.87446 -32534194.23744  23413014.1484                   23413013.4494
  10913043.88347   8516539.59144  24586647.8674                   24586647.9184
 -41875672.22048 -32614142.02646  20953336.1564                   20953331.3954
 11  8 17  1 26 30.0000000  0  8G12G25G10G17G05G04G29G02
 -29427206.62348 -22914950.06446  20828952.8054                   20828950.6294
  -8754330.50947  -6806165.80445  22452394.4924                   22452395.1414
 -32810768.43048 -25552012.30845  21620911.3134                   21620909.9184
 -54788915.55346 -42676432.39843  24526933.8594                   24526933.6174
 -26017415.75648 -20257742.80646  20672049.8204                   20672047.7344
 -41759613.88446 -32522739.71744  23415811.6804                   23415811.3714
  10764983.90747   8401168.18844  24558473.2664                   24558473.1454
 -41919388.66048 -32648206.77146  20945016.8984                   20945013.1884
 11  8 17  1 27  0.0000000  0  8G12G25G10G17G05G04G29G02
 -29497664.94048 -22969852.64346  20815545.0314                   20815542.6524
  -8887450.05447  -6909895.27445  22427062.5004                   22427063.2114
 -32815872.80448 -25555989.74745  21619939.8134                   21619937.9384
 -54784472.64346 -42672970.31743  24527779.1334                   24527778.5634
 -26128665.94848 -20344431.24446  20650879.5394                   20650877.0904
 -41744936.35346 -32511302.68244  23418604.7504                   23418604.4144
  10616848.37246   8285737.99144  24530284.1954                   24530284.1334
 -41962941.69448 -32682144.20746  20936729.0864                   20936724.7034
 11  8 17  1 27 30.0000000  0  8G12G25G10G17G05G04G29G02
 -29567545.30248 -23024304.87946  20802247.1564                   20802244.8054
  -9020123.39847  -7013277.05845  22401815.8674                   22401816.2504
 -32820479.16547 -25559579.10745  21619063.4844                   21619061.5434
 -54779850.93946 -42669369.07243  24528659.2814                   24528657.5164
 -26239379.15948 -20430701.25047  20629811.5554                   20629809.9494
 -41730282.28647 -32499883.97844  23421393.5234                   23421392.9344
  10468637.61746   8170249.11744  24502080.0164                   24502079.7934
 -42006332.37148 -32715955.11846  20928472.1414                   20928467.6884
 11  8 17  1 28  0.0000000  0  8G12G25G10G17G05G04G29G02
 -29636848.43748 -23078307.30546  20789059.4144                   20789056.6024
  -9152348.90847  -7116309.85045  22376653.9614                   22376654.3634
 -32824590.53647 -25562782.78745  21618280.8834                   21618279.3914
 -54775051.31446 -42665629.15643  24529572.1954                   24529571.2934
 -26349554.28048 -20516551.97446  20608846.0234                   20608843.9534
 -41715652.96747 -32488484.54244  23424177.7114                   23424177.1604
  10320351.73146   8054701.71844  24473862.7034                   24473862.4494
 -42049562.37748 -32749640.83746  20920245.7814                   20920241.6454
 11  8 17  1 28 30.0000000  0  8G12G25G10G17G05G04G29G02
 -29705575.69847 -23131860.99946  20775981.0784                   20775978.2344
  -9284126.64847  -7218993.75745  22351577.4614                   22351578.2304
 -32828211.91447 -25565604.64345  21617591.9454                   21617590.6134
 -54770076.00546 -42661752.28443  24530519.2194                   24530517.9964
 -26459192.36548 -20601984.22846  20587982.6024                   20587981.1254
 -41701051.82347 -32477107.03044  23426956.6254                   23426954.5784
  10171989.31046   7939094.69744  24445630.0704                   24445629.6684
 -42092634.90748 -32783203.84346  20912049.1954                   20912045.2344
 11  8 17  1 29  0.0000000  0  7G12G25G10G05G04G29G02
 -29773725.04548 -23184964.38046  20763012.4774                   20763010.2114
  -9415451.97947  -7321325.11145  22326587.2344                   22326588.1414
 -32831342.89147 -25568044.36145  21616996.1954                   21616993.8594
 -26568289.88648 -20686995.25946  20567221.9534                   20567219.8914
 -41686477.34547 -32465750.27044  23429729.1254                   23429728.4414
  10023552.96246   7823430.15143  24417382.5704                   24417382.8094
 -42135548.46848 -32816642.98746  20903882.9224                   20903878.8324
 11  8 17  1 29 30.0000000  0  7G12G25G10G05G04G29G02
 -29841296.12348 -23237617.15046  20750154.1564                   20750151.2544
  -9546322.80247  -7423302.29945  22301682.9224                   22301683.5784
 -32833985.89348 -25570103.85445  21616492.9384                   21616491.2234
 -26676845.73748 -20771584.20647  20546564.9064                   20546562.5594
 -41671930.19547 -32454414.86344  23432497.7894                   23432496.2894
   9875043.65846   7707708.70943  24389122.5474                   24389122.0514
 -42178304.15748 -32849959.10446  20895746.8674                   20895742.9964
 11  8 17  1 30  0.0000000  0  7G12G25G10G05G04G29G02
 -29908283.28648 -23289814.94046  20737407.2344                   20737404.8554
  -9676731.22647  -7524919.21245  22276867.3054                   22276868.0984
 -32836138.02347 -25571780.84545  21616083.8284                   21616081.8794
 -26784852.96248 -20855745.65947  20526011.2664                   20526009.1454
 -41657405.59147 -32443097.00543  23435261.4384                   23435260.8204
   9726467.91546   7591935.38043  24360849.8524                   24360848.1884
 -42220897.08148 -32883148.39346  20887641.5394                   20887637.7544
 11  8 17  1 30 30.0000000  0  7G12G25G10G05G04G29G02
 -29974684.05548 -23341555.78146  20724771.3364                   20724769.1764
  -9806673.08347  -7626172.55245  22252140.1564                   22252140.7734
 -32837799.40247 -25573075.41845  21615767.7034                   21615765.6994
 -26892308.31748 -20939477.07547  20505563.5554                   20505561.0514
 -41642902.56346 -32431795.94243  23438021.2734                   23438019.4774
   9577828.16446   7476112.25543  24332565.1254                   24332563.1604
 -42263326.41348 -32916210.21246  20879567.9454                   20879563.7894
 11  8 17  1 31  0.0000000  0  7G12G25G10G05G04G29G02
 -30040501.62648 -23392842.20546  20712246.6804                   20712244.0234
  -9936149.15147  -7727062.94345  22227501.6884                   22227501.0984
 -32838975.40847 -25573991.79645  21615543.7504                   21615541.9924
 -26999213.44448 -21022779.73647  20485219.6174                   20485218.1914
 -41628424.73646 -32420514.50043  23440775.9924                   23440774.9344
   9429122.05046   7360237.47343  24304266.3594                   24304266.6914
 -42305596.15748 -32949147.67946  20871523.9774                   20871519.8014
 11  8 17  1 31 30.0000000  0  7G12G25G10G05G04G29G02
 -30105739.62348 -23443677.00846  20699832.5084                   20699830.0394
 -10065161.04647  -7827591.64645  22202951.4534                   22202951.8834
 -32839672.10047 -25574534.67845  21615411.2194                   21615409.5824
 -27105571.12248 -21105655.82847  20464980.6644                   20464978.4844
 -41613976.78446 -32409256.42243  23443525.3674                   23443524.8484
   9280346.71846   7244308.74743  24275955.0234                   24275955.0474
 -42347711.10048 -32981964.51546  20863509.8674                   20863505.5824
 11  8 17  1 32  0.0000000  0  7G12G25G10G05G04G29G02
 -30170394.97048 -23494057.79946  20687528.9064                   20687526.3984
 -10193703.44647  -7927754.51445  22178490.5234                   22178491.0354
 -32839888.99847 -25574703.69245  21615369.6644                   21615368.2234
 -27211376.95848 -21188101.91046  20444846.4924                   20444844.3594
 -41599556.22446 -32398019.60943  23446269.8914                   23446268.6054
   9131506.04746   7128329.11043  24247631.8284                   24247631.4184
 -42389668.95748 -33014658.95846  20855525.3524                   20855521.8364
 11  8 17  1 32 30.0000000  0  7G12G25G10G05G04G29G02
 -30234474.22948 -23543989.68147  20675334.8674                   20675332.7894
 -10321781.15947  -8027555.28545  22154117.9064                   22154118.8014
 -32839635.49847 -25574506.16845  21615417.8444                   21615416.5234
 -27316636.64048 -21270122.41047  20424816.1414                   20424814.3634
 -41585170.96046 -32386810.30643  23449007.4534                   23449007.0004
   8982593.79146   7012293.61843  24219295.6644                   24219293.3014
 -42431477.18348 -33047236.80546  20847569.8524                   20847565.5864
 11  8 17  1 33  0.0000000  0  7G12G25G10G05G04G29G02
 -30297978.49348 -23593473.52946  20663250.4454                   20663247.9654
 -10449392.76048  -8126992.87945  22129834.5864                   22129834.9344
 -32838914.95347 -25573944.72445  21615555.0704                   21615553.4884
 -27421350.02148 -21351717.22647  20404890.0474                   20404888.0704
 -41570822.33647 -32375629.59244  23451736.9924                   23451737.4924
   8833610.18646   6896202.62343  24190944.4774                   24190942.9144
 -42473137.78348 -33079699.61846  20839642.1254                   20839638.1804
 11  8 17  1 33 30.0000000  0  7G12G25G10G05G04G29G02
 -30360906.67048 -23642508.47846  20651275.5474                   20651272.7624
 -10576535.09347  -8226064.81045  22105640.4454                   22105640.3914
 -32837728.35747 -25573020.08745  21615781.1954                   21615779.5514
 -27525514.88748 -21432884.62547  20385067.9534                   20385065.9534
 -41556510.02947 -32364477.17944  23454462.3594                   23454460.8874
   8684556.89946   6780057.29143  24162580.5944                   24162579.1484
 -42514650.68348 -33112047.33646  20831742.4144                   20831738.6454
 11  8 17  1 34  0.0000000  0  7G12G25G10G05G04G29G02
 -30423257.84048 -23691093.81646  20639410.7894                   20639408.1604
 -10703205.55747  -8324769.04745  22081535.3524                   22081535.8134
 -32836077.60847 -25571733.79345  21616095.3594                   21616093.3134
 -27629129.80148 -21513623.49447  20365350.7814                   20365348.4614
 -41542234.28047 -32353353.22944  23457178.8674                   23457177.4344
   8535435.51346   6663858.90943  24134203.4924                   24134202.2704
 -42556016.26648 -33144280.25846  20823870.5474                   20823866.3984
 11  8 17  1 34 30.0000000  0  7G12G25G10G05G04G29G02
 -30485037.83548 -23739234.06546  20627654.0234                   20627651.5234
 -10829407.49147  -8423108.19745  22057519.9844                   22057519.9804
 -32833970.81147 -25570092.13845  21616495.8984                   21616494.3054
 -27732198.97848 -21593937.11147  20345737.0234                   20345735.4144
 -41528001.29647 -32342262.62644  23459886.7664                   23459885.7194
   8386241.29946   6547603.69043  24105812.7034                   24105812.2304
 -42597240.73848 -33176403.23646  20816025.6724                   20816021.9384
 11  8 17  1 35  0.0000000  0  7G12G25G10G05G04G29G02
 -30546243.22748 -23786926.59447  20616007.4534                   20616004.9304
 -10955135.08648  -8521077.75545  22033594.6724                   22033595.0234
 -32831406.76447 -25568094.17345  21616983.8594                   21616982.5864
 -27834717.51448 -21673821.65647  20326228.5004                   20326226.5664
 -41513808.02047 -32331202.97244  23462586.9384                   23462587.3554
   8236978.34246   6431294.99144  24077408.1884                   24077407.7344
 -42638321.21448 -33208414.01146  20808208.8754                   20808204.7584
 11  8 17  1 35 30.0000000  0  7G12G25G10G05G04G29G02
 -29031453.49948 -22606570.96647  20904262.4224                   20904259.3984
  -9504963.77948  -7391074.14845  22309553.3364                   22309553.3204
 -31252970.06348 -24338143.50945  21917350.6954                   21917348.6454
 -26361262.97647 -20525675.23547  20606617.5004                   20606616.0354
 -39924237.37647 -31092576.54144  23765072.4304                   23765071.7384
   9663071.37346   7542536.37244  24348785.2894                   24348784.5204
 -41103839.10747 -32012713.66946  21100211.0314                   21100207.0864
 11  8 17  1 36  0.0000000  0  7G12G25G10G05G04G29G02
 -29091512.05248 -22653369.84546  20892833.6724                   20892830.8404
  -9629738.86048  -7488301.49345  22285809.4064                   22285809.3094
 -31249501.78248 -24335440.94345  21918010.5944                   21918009.1134
 -26462679.88348 -20604701.37847  20587318.8204                   20587316.9964
 -39910127.87847 -31081582.19244  23767757.7814                   23767757.4654
   9513672.16746   7426121.45043  24320355.5314                   24320354.4774
 -41144636.89148 -32044504.16546  21092447.7114                   21092443.8324
 11  8 17  1 36 30.0000000  0  7G12G25G10G05G04G29G02
 -29150998.01548 -22699722.54746  20881513.5084                   20881511.3794
  -9754035.54248  -7585156.06645  22262156.2034                   22262156.7544
 -31245585.94448 -24332389.63445  21918755.7114                   21918753.9264
 -26563545.45648 -20683297.90447  20568124.6094                   20568122.8484
 -39896062.33346 -31070622.03044  23770433.7274                   23770434.4734
   9364205.10546   7309653.69544  24291912.2734                   24291911.3014
 -41185295.47948 -32076186.18846  21084709.8444                   21084706.6334
 11  8 17  1 37  0.0000000  0  7G12G25G10G05G04G29G02
 -29209911.73748 -22745629.36446  20870302.8834                   20870300.1604
  -9877851.35548  -7681635.93745  22238595.2664                   22238594.8094
 -31241224.81148 -24328991.34945  21919585.4304                   21919583.4344
 -26663858.51048 -20761463.89747  20549035.8204                   20549033.5204
 -39882040.80746 -31059696.22144  23773101.7814                   23773102.7114
   9214671.25846   7193133.88244  24263457.2584                   24263456.9414
 -41225815.18548 -32107760.00446  21076999.7894                   21076995.7974
 11  8 17  1 37 30.0000000  0  7G12G25G10G05G04G29G02
 -29268255.25548 -22791091.86046  20859200.4694                   20859197.7304
 -10001186.42248  -7777741.18645  22215125.3594                   22215125.7584
 -31236423.01947 -24325249.70245  21920499.1804                   21920497.1024
 -26763620.13747 -20839200.20047  20530051.4844                   20530049.5594
 -39868066.22446 -31048807.00743  23775760.9144                   23775761.5634
   9065069.59546   7076561.20344  24234989.7894                   24234988.4064
 -41266199.02248 -32139227.93046  21069314.6174                   21069310.9614
 11  8 17  1 38  0.0000000  0  7G12G25G10G05G04G29G02
 -29326027.13848 -22836108.91846  20848206.7894                   20848204.1994
 -10124037.24148  -7873469.12046  22191748.0234                   22191747.9614
 -31231181.30047 -24321165.24545  21921496.5394                   21921494.8754
 -26862827.95047 -20916504.95747  20511172.7344                   20511171.1254
 -39854137.75346 -31037953.67643  23778411.7344                   23778412.0784
   8915402.56446   6959937.60344  24206508.3674                   24206507.8054
 -41306446.49348 -32170589.60446  21061656.0784                   21061651.9694
 11  8 17  1 38 30.0000000  0  7G12G25G10G05G04G29G02
 -29383228.84148 -22880681.69946  20837321.7034                   20837319.2504
 -10246402.89148  -7968818.99846  22168462.3914                   22168462.2034
 -31225503.41147 -24316740.90745  21922577.0164                   21922575.3244
 -26961482.30348 -20993378.45247  20492399.4844                   20492397.4384
 -39840256.97946 -31027137.53143  23781053.9064                   23781052.7854
   8765669.88246   6843262.82944  24178015.4694                   24178013.9104
 -41346559.41947 -32201846.44146  21054022.6564                   21054018.6254
 11  8 17  1 39  0.0000000  0  7G12G25G10G05G04G29G02
 -29439858.35048 -22924808.60446  20826545.2894                   20826543.3834
 -10368278.85248  -8063787.28446  22145269.8594                   22145269.6914
 -31219389.43247 -24311976.76545  21923740.4774                   21923739.1484
 -27059579.48248 -21069817.77547  20473732.4924                   20473730.1524
 -39826422.00746 -31016357.06243  23783685.9924                   23783685.4924
   8615875.08846   6726539.64744  24149510.6724                   24149509.3094
 -41386536.07948 -32232997.09446  21046415.5864                   21046411.3984
 11  8 17  1 39 30.0000000  0  7G12G25G10G05G04G29G02
 -29495916.72848 -22968490.48047  20815877.6724                   20815875.4104
 -10489664.20248  -8158373.29746  22122170.7974                   22122171.7114
 -31212843.11747 -24306875.75445  21924986.6954                   21924984.3594
 -27157119.69348 -21145823.10747  20455171.1254                   20455168.4804
 -39812634.48446 -31005613.57143  23786310.5004                   23786308.6524
   8466018.19146   6609768.11844  24120993.1024                   24120992.7974
 -41426378.21448 -32264042.92146  21038834.0234                   21038830.0044
 11  8 17  1 40  0.0000000  0  7G12G25G10G05G04G29G02
 -29551405.75448 -23011728.68546  20805318.7894                   20805316.3364
 -10610558.62948  -8252576.74845  22099165.5314                   22099166.5084
 -31205868.39547 -24301440.90145  21926313.7584                   21926311.9654
 -27254103.84748 -21221395.15147  20436715.7194                   20436713.7114
 -39798896.48347 -30994908.62943  23788924.8674                   23788923.6214
   8316098.23346   6492947.39644  24092464.4304                   24092463.6294
 -41466088.37448 -32294985.91246  21031276.9304                   21031272.9264
 11  8 17  1 40 30.0000000  0  7G12G25G10G05G04G29G02
 -29606324.88948 -23054522.84746  20794867.9224                   20794865.5394
 -10730959.27648  -8346395.43446  22076254.1254                   22076255.1374
 -31198467.05147 -24295673.63345  21927722.2274                   21927720.3674
 -27350530.33848 -21296532.65047  20418365.9774                   20418364.1684
 -39785207.73846 -30984242.11043  23791529.0634                   23791528.3634
   8166117.08246   6376079.03443  24063924.1174                   24063923.9224
 -41505666.24848 -32325825.81646  21023745.7344                   21023741.9534
 11  8 17  1 41  0.0000000  0  7G12G25G10G05G04G29G02
 -29660674.42248 -23096873.14846  20784525.3754                   20784523.0274
 -10850863.79948  -8439827.53946  22053436.8754                   22053437.5394
 -31190640.96747 -24289575.38745  21929211.2894                   21929209.6214
 -27446398.00348 -21371234.69247  20400123.3524                   20400121.2934
 -39771568.53747 -30973614.17943  23794125.0704                   23794125.0514
   8016076.42846   6259164.23644  24035372.0394                   24035371.7814
 -41545112.45148 -32356563.12846  21016239.7894                   21016235.0514
 11  8 17  1 41 30.0000000  0  7G12G25G10G05G04G29G02
 -29714455.32348 -23138780.36946  20774291.2344                   20774289.2194
 -10970270.98148  -8532872.09246  22030714.6174                   22030715.3404
 -31182393.74747 -24283148.98745  21930781.1024                   21930779.0784
 -27541706.65848 -21445501.15447  20381986.3834                   20381984.2664
 -39757979.86346 -30963025.65143  23796710.6644                   23796709.9064
   7865976.56546   6142203.36344  24006809.5084                   24006808.3594
 -41584428.54647 -32387199.05146  21008757.6334                   21008753.8014
 11  8 17  1 42  0.0000000  0  7G12G25G10G05G04G29G02
 -29767669.62148 -23180246.07746  20764165.0474                   20764162.3714
 -11089180.41448  -8625528.77346  22008087.0474                   22008087.5274
 -31173729.39247 -24276397.54845  21932429.7584                   21932427.6684
 -27636457.11648 -21519332.65547  20363955.9614                   20363953.5634
 -39744443.86546 -30952478.09843  23799286.1804                   23799286.5204
   7715817.10546   6025196.03244  23978234.6564                   23978233.6334
 -41623616.69547 -32417735.28346  21001300.5554                   21001296.3444
 11  8 17  1 42 30.0000000  0  7G12G25G10G05G04G29G02
 -29820315.87348 -23221269.15146  20754146.6724                   20754144.3244
 -11207588.59148  -8717794.87446  21985554.3914                   21985554.9104
 -31164648.93047 -24269321.88445  21934157.5234                   21934155.3244
 -27730646.96148 -21592727.31747  20346032.5704                   20346030.6524
 -39730959.63247 -30941970.93043  23801852.6254                   23801852.1884
   7565600.34247   5908144.02344  23949649.1414                   23949648.3524
 -41662675.70148 -32448170.87546  20993867.8674                   20993863.3164
 11  8 17  1 43  0.0000000  0  7G12G25G10G05G04G29G02
 -29872397.39148 -23261852.17646  20744235.8594                   20744233.6994
 -11325496.61848  -8809671.24046  21963117.6644                   21963118.0004
 -31155158.03347 -24261926.38745  21935963.8754                   21935961.7544
 -27824278.69548 -21665687.07947  20328214.9774                   20328212.5354
 -39717530.23347 -30931506.51943  23804408.0394                   23804407.7894
   7415324.54147   5791046.05044  23921052.4694                   23921051.7624
 -41701609.35248 -32478508.78246  20986458.7814                   20986454.8014
 11  8 17  1 43 30.0000000  0  7G12G25G10G05G04G29G02
 -29923912.92348 -23301994.16046  20734432.9064                   20734430.7894
 -11442900.87248  -8901155.04546  21940776.2894                   21940776.7464
 -31145257.59847 -24254211.78145  21937847.4774                   21937845.9064
 -27917349.68148 -21738209.90747  20310504.2114                   20310502.0784
 -39704154.55346 -30921083.92043  23806953.7344                   23806952.9384
   7264992.49047   5673904.20844  23892445.6414                   23892445.1764
 -41740416.65248 -32508748.23646  20979074.2894                   20979069.8984
 11  8 17  1 44  0.0000000  0  7G12G25G10G05G04G29G02
 -29974862.04848 -23341694.79246  20724737.4844                   20724735.2384
 -11559798.42448  -8992244.01046  21918531.3594                   21918531.8954
 -31134948.65947 -24246178.86345  21939808.7034                   21939807.2664
 -28009858.12848 -21810294.39547  20292900.1094                   20292898.2774
 -39690832.11547 -30910702.82343  23809488.8674                   23809487.8014
   7114606.79247   5556720.55244  23863828.2194                   23863827.0084
 -41779097.35647 -32538889.03946  20971713.4924                   20971709.7734
 11  8 17  1 44 30.0000000  0  7G12G25G10G05G04G29G02
 -30025245.77248 -23380954.86046  20715150.0704                   20715147.7504
 -11676188.14648  -9082937.27546  21896383.2584                   21896383.4734
 -31124234.69047 -24237830.33445  21941848.2194                   21941846.4454
 -28101804.52048 -21881940.92247  20275403.3134                   20275401.0514
 -39677563.95646 -30900364.01643  23812013.2424                   23812012.9104
   6964167.28846   5439494.96744  23835200.1484                   23835199.8874
 -41817652.70148 -32568932.15846  20964376.8914                   20964372.8634
 11  8 17  1 45  0.0000000  0  7G12G25G10G05G04G29G02
 -30075065.73248 -23419775.61946  20705669.3914                   20705667.2854
 -11792069.18548  -9173234.15046  21874331.4224                   21874331.9384
 -31113119.55347 -24229169.20945  21943962.9694                   21943961.4884
 -28193188.68348 -21953149.33747  20258013.1884                   20258011.3164
 -39664351.36446 -30890068.55043  23814528.0784                   23814526.1994
   6813674.22146   5322227.67644  23806562.3364                   23806561.4224
 -41856084.44848 -32598878.97846  20957063.3914                   20957059.3404
 11  8 17  1 45 30.0000000  0  7G12G25G10G05G04G29G02
 -30124319.99948 -23458155.58946  20696296.6334                   20696294.6414
 -11907437.38948  -9263131.41346  21852377.6804                   21852377.8674
 -31101603.16747 -24220195.42445  21946155.0634                   21946153.4264
 -28284007.99848 -22023917.62547  20240731.3524                   20240729.0434
 -39651192.74246 -30879815.03343  23817031.8594                   23817031.2154
   6663131.09246   5204921.37944  23777914.3594                   23777914.5984
 -41894390.93148 -32628728.18146  20949773.6724                   20949769.2974
 11  8 17  1 46  0.0000000  0  7G12G25G10G05G04G29G02
 -30173012.63148 -23496097.92046  20687030.9614                   20687028.3834
 -12022294.48148  -9352630.40046  21830521.3364                   21830521.1254
 -31089691.86647 -24210913.91945  21948421.8754                   21948419.8204
 -28374265.36348 -22094248.01847  20223555.9774                   20223553.2234
 -39638091.61746 -30869606.42943  23819524.7974                   23819524.1024
   6512535.97746   5087574.52744  23749258.1954                   23749257.6414
 -41932576.12248 -32658482.86046  20942507.8834                   20942503.4104
 11  8 17  1 46 30.0000000  0  7G12G25G10G05G04G29G02
 -30221144.63248 -23533603.38446  20677871.5704                   20677869.2544
 -12136638.53948  -9441729.62546  21808762.3134                   21808762.3954
 -31077388.11547 -24201326.61345  21950762.6564                   21950761.3204
 -28463960.13548 -22164140.03047  20206487.4064                   20206485.0704
 -39625048.63446 -30859443.04743  23822006.2974                   23822006.2274
   6361889.54246   4970187.71444  23720590.7034                   23720589.5234
 -41970640.74148 -32688143.59346  20935264.1174                   20935259.6994
 11  8 17  1 47  0.0000000  0  7G12G25G10G05G04G29G02
 -28693294.95648 -22343071.18346  20968611.7274                   20968609.6994
 -10675044.81548  -8302825.38646  22086894.1564                   22086894.6644
 -29489275.73147 -22963836.44545  22252970.8524                   22252968.6484
 -26977669.28748 -21005991.30547  20489319.0004                   20489317.1484
 -38036644.93846 -29621725.94543  24124270.0394                   24124268.6254
   7786617.72747   6080365.55144  23991707.6024                   23991706.4774
 -40433164.95248 -31490110.50746  21227836.0864                   21227831.9774
 11  8 17  1 47 30.0000000  0  7G12G25G10G05G04G29G02
 -28740307.42048 -22379704.28546  20959665.5164                   20959663.3094
 -10788358.53448  -8391121.74946  22065331.3834                   22065331.6024
 -29476195.86347 -22953644.36545  22255459.1334                   22255457.6374
 -27066238.03248 -21075005.89147  20472464.6254                   20472462.7304
 -38023719.65846 -29611654.23443  24126728.9454                   24126729.3324
   7635871.82947   5962901.20144  23963021.4924                   23963020.8794
 -40470991.06348 -31519585.37446  21220637.7814                   21220633.8324
 11  8 17  1 48  0.0000000  0  7G12G25G10G05G04G29G02
 -28786760.77948 -22415901.71646  20950825.7734                   20950823.4844
 -10901154.07448  -8479014.33946  22043866.9454                   22043867.2194
 -29462731.46447 -22943152.64045  22258021.2814                   22258020.5084
 -27154242.54548 -21143580.81147  20455718.2974                   20455716.0354
 -38010853.28746 -29601628.56343  24129178.5004                   24129177.9184
   7485078.43547   5845399.87844  23934326.7734                   23934325.9414
 -40508698.40748 -31548967.71346  21213462.1644                   21213457.8554
 11  8 17  1 48 30.0000000  0  7G12G25G10G05G04G29G02
 -28832655.49148 -22451663.83846  20942092.2504                   20942089.9774
 -11013429.54448  -8566501.67646  22022501.6884                   22022501.6804
 -29448884.69247 -22932362.97345  22260656.9924                   22260655.0864
 -27241682.04948 -21211715.47147  20439079.0944                   20439076.8754
 -37998046.33246 -29591649.06143  24131615.0704                   24131614.7274
   7334238.81846   5727862.55444  23905622.5634                   23905621.7344
 -40546287.22448 -31578257.67146  21206309.7814                   21206305.6334
 11  8 17  1 49  0.0000000  0  7G12G25G10G05G04G29G02
 -28877994.09948 -22486992.61746  20933464.9924                   20933462.5044
 -11125184.94148  -8653583.77946  22001234.9844                   22001235.9574
 -29434659.97047 -22921278.78645  22263363.1724                   22263362.1214
 -27328558.08848 -21279411.07047  20422547.0704                   20422545.1604
 -37985300.69746 -29581717.51043  24134039.9454                   24134040.4144
   7183352.59746   5610288.89444  23876909.8054                   23876908.9534
 -40583760.33048 -31607457.48146  21199178.5314                   21199174.6884
 11  8 17  1 49 30.0000000  0  7G12G25G10G05G04G29G02
 -28922778.64848 -22521889.68046  20924942.8204                   20924940.2544
 -11236420.24348  -8740260.59646  21980067.6954                   21980067.9694
 -29420061.48647 -22909903.38345  22266141.7114                   22266140.1844
 -27414871.87648 -21346668.55147  20406122.2114                   20406119.9734
 -37972618.26646 -29571835.16743  24136454.5784                   24136453.3954
   7032419.19347   5492678.50144  23848187.7424                   23848188.0314
 -40621119.62247 -31636568.60746  21192069.5784                   21192065.3524
 11  8 17  1 50  0.0000000  0  7G12G25G10G05G04G29G02
 -28967008.33948 -22556354.38146  20916525.9224                   20916524.0944
 -11347132.01448  -8826529.48246  21959000.0704                   21959000.2344
 -29405090.43447 -22898237.62945  22268990.8754                   22268988.6914
 -27500621.23348 -21413486.21347  20389804.7504                   20389802.5554
 -37959997.73746 -29562000.93843  24138854.7974                   24138855.3284
   6881441.70847   5375033.75744  23819457.9454                   23819456.9734
 -40658364.02048 -31665590.19546  21184981.8984                   21184977.9414
 11  8 17  1 50 30.0000000  0  7G12G25G10G05G04G29G02
 -29010684.66148 -22590387.88046  20908214.7424                   20908212.3364
 -11457319.47248  -8912389.81246  21938032.1724                   21938032.3984
 -29389750.20447 -22886284.21645  22271909.6094                   22271907.7774
 -27585806.45148 -21479864.27947  20373594.4924                   20373592.4304
 -37947439.92546 -29552215.66143  24141244.7034                   24141245.2344
   6730420.93047   5257355.24044  23790719.6644                   23790718.4454
 -40695494.76847 -31694523.21546  21177916.1644                   21177912.2344
 11  8 17  1 51  0.0000000  0  7G12G25G10G05G04G29G02
 -29053808.68948 -22623991.02546  20900008.6094                   20900006.2544
 -11566981.23248  -8997840.50446  21917163.8914                   21917164.2814
 -29374043.64547 -22874045.34645  22274898.6954                   22274896.6294
 -27670427.70048 -21545802.89747  20357491.3444                   20357489.2154
 -37934945.65846 -29542479.92143  24143623.0864                   24143623.0904
   6579357.46347   5139643.50544  23761973.2034                   23761972.5824
 -40732512.51547 -31723368.20846  21170872.1094                   21170868.0664
 11  8 17  1 51 30.0000000  0  7G12G25G10G05G04G29G02
 -29096379.40148 -22657163.01446  20891907.6334                   20891905.2584
 -11676113.84848  -9082878.87846  21896396.9144                   21896397.0044
 -29357971.42547 -22861521.54045  22277957.0944                   22277955.0554
 -27754482.44948 -21611300.08547  20341496.4534                   20341493.9064
 -37922513.21846 -29532792.28743  24145989.4694                   24145988.6174
   6428254.45347   5021900.95544  23733218.6024                   23733218.5234
 -40769416.53648 -31752124.56746  21163849.4844                   21163845.0634
 11  8 17  1 52  0.0000000  0  7G12G25G10G05G04G29G02
 -29138400.97548 -22689907.09346  20883911.0394                   20883908.5824
 -11784718.90348  -9167506.18046  21875729.7034                   21875730.1294
 -29341539.40947 -22848717.38845  22281084.4454                   22281082.7814
 -27837973.84448 -21676358.28847  20325608.4534                   20325606.0514
 -37910146.11746 -29523155.56443  24148342.1024                   24148342.2854
   6277110.25647   4904126.29944  23704457.6334                   23704456.5124
 -40806210.33048 -31780795.04046  21156847.7974                   21156843.4494
 11  8 17  1 52 30.0000000  0  7G12G25G10G05G04G29G02
 -29179872.89548 -22722222.88646  20876019.6254                   20876016.7734
 -11892793.89748  -9251720.44246  21855163.9384                   21855164.3794
 -29324749.40147 -22835634.27745  22284279.0164                   22284277.3524
 -27920900.59548 -21740976.52147  20309828.0164                   20309825.5554
 -37897843.57846 -29513569.23143  24150683.2584                   24150682.2894
   6125926.92647   4786321.17544  23675688.0234                   23675687.0634
 -40842893.14748 -31809379.03546  21149867.1094                   21149862.8204
 11  8 17  1 53  0.0000000  0  7G12G25G10G05G04G29G02
 -29220799.58348 -22754113.80946  20868231.2584                   20868228.7234
 -12000340.42448  -9335522.89946  21834698.8204                   21834698.3714
 -29307607.07447 -22822276.61245  22287541.6564                   22287539.5434
 -28003265.55148 -21805156.98647  20294154.3054                   20294152.0274
 -37885609.00446 -29504035.74043  24153010.9534                   24153010.3594
   5974702.66347   4668484.11644  23646910.8914                   23646909.9494
 -40879469.01648 -31837879.68746  21142907.0084                   21142902.8324
 11  8 17  1 53 30.0000000  0  7G12G25G10G05G04G29G02
 -29261178.81248 -22785578.14946  20860547.0004                   20860544.8954
 -12107354.03548  -9418910.10946  21814334.4534                   21814334.7734
 -29290112.24647 -22808644.30545  22290870.5784                   22290868.7074
 -28085065.53948 -21868897.21547  20278588.6484                   20278586.2304
 -37873439.77846 -29494553.21243  24155326.8444                   24155326.5784
   5823441.97147   4550618.71444  23618126.3364                   23618124.9454
 -40915935.40948 -31866295.05346  21135967.3984                   21135964.0864
 11  8 17  1 54  0.0000000  0  7G12G25G10G05G04G29G02
 -29301012.99548 -22816617.77946  20852966.9844                   20852964.8594
 -12213834.52948  -9501881.91846  21794071.8754                   21794071.7664
 -29272268.81847 -22794740.33245  22294266.1094                   22294264.0234
 -28166301.73248 -21932198.12247  20263129.7274                   20263127.7814
 -37861337.31946 -29485122.75443  24157629.7814                   24157629.0474
   5672144.75447   4432724.84744  23589336.0084                   23589334.9734
 -40952294.01348 -31894626.41946  21129048.8754                   21129045.2344
 11  8 17  1 54 30.0000000  0  7G12G25G10G05G04G29G02
 -29340302.43948 -22847232.94046  20845490.4144                   20845488.3634
 -12319780.02048  -9584436.84246  21773911.1644                   21773911.2424
 -29254079.17247 -22780566.59645  22297727.0634                   22297725.6724
 -28246973.29948 -21995059.06547  20247778.6644                   20247775.9384
 -37849301.36147 -29475743.98943  24159921.3284                   24159919.4184
   5520812.63547   4314803.74644  23560538.1094                   23560537.7704
 -40988545.11348 -31922874.01146  21122150.4384                   21122146.3094
 11  8 17  1 55  0.0000000  0  7G12G25G10G05G04G29G02
 -29379049.78748 -22877425.68446  20838117.1414                   20838114.7194
 -12425190.86548  -9666575.16046  21753852.2974                   21753852.4024
 -29235547.48047 -22766126.31045  22301253.9454                   22301252.0084
 -28327082.59448 -22057481.86647  20232533.6564                   20232531.8874
 -37837334.17846 -29466418.88443  24162198.0234                   24162197.8444
   5369445.41847   4196855.30244  23531734.1884                   23531734.2464
 -41024690.86048 -31951039.51546  21115272.0864                   21115267.9184
 11  8 17  1 55 30.0000000  0  7G12G25G10G05G04G29G02
 -29417254.86648 -22907195.89546  20830846.7814                   20830844.9104
 -12530064.12148  -9748294.56746  21733895.1024                   21733896.1414
 -29216675.07647 -22751420.54145  22304845.1334                   22304843.0744
 -28406627.08448 -22119464.56147  20217397.6334                   20217395.0944
 -37825434.32546 -29457146.21443  24164461.9534                   24164461.1294
   5218046.01947   4078881.81644  23502924.4144                   23502922.6564
 -41060730.22648 -31979122.13246  21108414.1644                   21108409.8714
 11  8 17  1 56  0.0000000  0  7G12G25G10G05G04G29G02
 -29454920.13947 -22936545.46846  20823679.5944                   20823677.3984
 -12634399.80348  -9829595.09846  21714040.9844                   21714041.3674
 -29197466.08747 -22736452.53945  22308500.2504                   22308498.0124
 -28485608.30548 -22181008.35147  20202367.7894                   20202365.0234
 -37813603.36446 -29447927.28643  24166713.3674                   24166712.4804
   5066614.23447   3960883.05845  23474107.4614                   23474107.3794
 -41096665.25147 -32007123.45746  21101575.9064                   21101571.5784
 11  8 17  1 56 30.0000000  0  7G12G25G10G05G04G29G02
 -29492045.43447 -22965474.29146  20816615.1484                   20816612.7194
 -12738195.23348  -9910474.65246  21694289.5784                   21694289.3524
 -29177921.68147 -22721223.12445  22312219.5634                   22312217.7774
 -28564025.20348 -22242112.40347  20187445.4844                   20187443.0664
 -37801840.15146 -29438761.13742  24168952.1024                   24168950.2544
   4915152.67747   3842861.08744  23445285.2194                   23445284.3094
 -41132495.04048 -32035042.77046  21094757.5634                   21094753.3404
 11  8 17  1 57  0.0000000  0  7G12G25G10G05G04G29G02
 -29528632.63148 -22993983.79846  20809652.7424                   20809650.3714
 -12841450.23148  -9990933.09446  21674640.7274                   21674640.7974
 -29158046.07747 -22705735.65844  22316001.5474                   22315999.9384
 -28641878.70148 -22302777.44047  20172630.6174                   20172628.0944
 -37790146.13846 -29429648.89843  24171176.5554                   24171174.8954
   4763661.82747   3724816.30244  23416457.2424                   23416457.0434
 -41168221.27248 -32062881.39446  21087959.1174                   21087954.5394
 11  8 17  1 57 30.0000000  0  7G12G25G10G05G04G29G02
 -29564682.87748 -23022074.92246  20802792.2974                   20802790.2154
 -12944163.28148 -10070969.24646  21655094.7344                   21655094.8834
 -29137841.63647 -22689991.95145  22319846.6954                   22319844.8794
 -28719168.83648 -22363003.50347  20157922.4304                   20157920.0234
 -37778521.35746 -29420590.59543  24173388.9614                   24173387.7384
   4612143.01447   3606749.70944  23387624.2974                   23387623.2734
 -41203844.23548 -32090639.54746  21081180.1024                   21081176.0124
 11  8 17  1 58  0.0000000  0  8G12G25G10G26G05G04G29G02
 -29600197.29948 -23049748.51046  20796034.6024                   20796032.1644
 -13046333.05148 -10150582.05946  21635652.5944                   21635652.9264
 -29117311.03147 -22673994.06845  22323753.1644                   22323751.4694
  15524411.89255  12108708.67652  24673031.2344                   24673032.7114
 -28795895.24748 -22422790.29447  20143322.0704                   20143319.6804
 -37766965.86146 -29411586.28743  24175588.6094                   24175586.3984
   4460597.79247   3488662.52844  23358785.8594                   23358784.7734
 -41239364.30848 -32118317.53446  21074421.0704                   21074417.0704
 11  8 17  1 58 30.0000000  0  8G12G25G10G26G05G04G29G02
 -28059764.29848 -21849411.11346  21089169.0394                   21089167.1294
 -11572543.57448  -9002174.66746  21916105.3134                   21916105.5944
 -27521046.21747 -21430151.38244  22627512.5004                   22627510.2114
  16938593.65345  13210668.53043  24942140.7734                   24942141.3714
 -27296644.38448 -21254542.84347  20428619.7274                   20428617.4534
 -36180069.08146 -28175043.37543  24477564.5944                   24477564.1134
   5884443.99147   4598153.04744  23629735.7814                   23629734.0554
 -39699369.56548 -30918321.64046  21367472.3364                   21367468.0124
 11  8 17  1 59  0.0000000  0  8G12G25G10G26G05G04G29G02
 -28094227.25048 -21876265.37046  21082610.9924                   21082608.3324
 -11673639.94848  -9080951.08346  21896867.4144                   21896867.8794
 -27499888.00247 -21413664.45744  22631538.8204                   22631537.2304
  16777200.59746  13084907.80343  24911430.7664                   24911430.2544
 -27372260.76148 -21313464.67247  20414230.4844                   20414228.2814
 -36168669.85446 -28166160.85943  24479733.6644                   24479732.9884
   5732833.16147   4480014.70944  23600884.4774                   23600883.6644
 -39734702.26048 -30945853.61746  21360748.8054                   21360744.8554
 11  8 17  1 59 30.0000000  0  8G12G25G10G26G05G04G29G02
 -28128161.03647 -21902707.29946  21076153.5164                   21076151.2504
 -11774192.46148  -9159303.70046  21877732.8204                   21877733.4184
 -27478414.67047 -21396932.01944  22635624.5784                   22635623.3404
  16615666.28046  12959036.89543  24880690.3914                   24880689.9844
 -27447316.87448 -21371949.93647  20399947.8364                   20399945.4654
 -36157343.73646 -28157335.32643  24481888.8754                   24481888.1214
   5581197.13547   4361856.76044  23572029.3204                   23572028.8554
 -39769936.60147 -30973308.94946  21354043.8914                   21354039.6294
 11  8 17  2  0  0.0000000  0  8G12G25G10G26G05G04G29G02
 -28161568.71948 -21928739.27646  21069796.3444                   21069793.8914
 -11874201.45048  -9237232.78346  21858702.1564                   21858702.1684
 -27456630.93747 -21379957.71844  22639770.0864                   22639768.7114
  16453992.33646  12833057.30542  24849924.5634                   24849924.8134
 -27521814.35348 -21429999.89047  20385771.3284                   20385769.2704
 -36146092.18846 -28148567.91343  24484030.0084                   24484029.2424
   5429535.68147   4243678.97344  23543168.5004                   23543168.4064
 -39805074.65548 -31000689.26446  21347357.1564                   21347353.5984
 11  8 17  2  0 30.0000000  0  8G12G25G10G26G05G04G29G02
 -28194448.17148 -21954359.62346  21063539.7734                   21063537.4694
 -11973662.67448  -9314735.04046  21839775.0554                   21839775.1884
 -27434536.24447 -21362741.08744  22643974.7034                   22643973.2194
  16292184.81046  12706973.51343  24819133.9384                   24819134.1804
 -27595750.70948 -21487612.61647  20371701.7814                   20371699.8284
 -36134912.36046 -28139856.34143  24486157.4924                   24486157.3524
   5277853.24247   4125484.85344  23514304.4774                   23514303.5664
 -39840113.75248 -31027992.45846  21340689.2974                   21340685.2704
 11  8 17  2  1  0.0000000  0  8G12G25G10G26G05G04G29G02
 -28226795.93048 -21979565.67746  21057383.9384                   21057381.9104
 -12072570.29747  -9391805.90846  21820953.5234                   21820953.8634
 -27412128.48446 -21345280.50144  22648239.2894                   22648237.0984
  16130251.40546  12580791.78443  24788318.9224                   24788319.2344
 -27669121.09048 -21544784.31347  20357739.8054                   20357737.9694
 -36123799.51946 -28131197.05043  24488271.6564                   24488271.6174
   5126156.25747   4007279.39144  23485437.5394                   23485437.3714
 -39875049.58548 -31055215.18046  21334041.4304                   21334036.9774
 11  8 17  2  1 30.0000000  0  8G12G25G10G26G05G04G29G02
 -28258616.92548 -22004361.26546  21051328.5314                   21051326.4654
 -12170926.99748  -9468447.51146  21802237.0084                   21802237.2234
 -27389414.53446 -21327581.32844  22652561.2664                   22652559.6804
  15968191.45746  12454511.37543  24757480.3364                   24757479.7854
 -27741929.44648 -21601518.08847  20343884.8754                   20343882.5084
 -36112757.95746 -28122593.20843  24490374.1024                   24490373.1684
   4974442.28047   3889060.65944  23456567.6094                   23456566.5904
 -39909886.60548 -31082360.91546  21327412.3754                   21327408.2234
 11  8 17  2  2  0.0000000  0  8G12G25G10G26G05G04G29G02
 -28289910.47448 -22028745.85046  21045373.5704                   21045371.0634
 -12268729.03848  -9544656.90546  21783626.1414                   21783626.0124
 -27366393.77747 -21309643.10244  22656941.9384                   22656939.8404
  15806010.54346  12328136.66743  24726618.5084                   24726618.2344
 -27814173.49448 -21657812.12247  20330137.0634                   20330135.0904
 -36101785.11247 -28114042.93443  24492461.9454                   24492461.1884
   4822715.37146   3770831.89744  23427694.9844                   23427693.9144
 -39944622.54348 -31109427.86946  21320802.3134                   21320798.8324
 11  8 17  2  2 30.0000000  0  8G12G25G10G26G05G04G29G02
 -28320677.21448 -22052719.93946  21039518.7114                   21039516.6954
 -12365974.86748  -9620432.88046  21765120.3444                   21765120.4964
 -27343068.77747 -21291467.79644  22661380.5164                   22661378.4924
  15643712.34846  12201670.58843  24695734.0704                   24695734.0904
 -27885852.77948 -21713666.08547  20316497.3444                   20316494.9384
 -36090880.48546 -28105545.82043  24494536.7974                   24494535.4924
   4670977.10946   3652594.24944  23398820.0554                   23398819.4344
 -39979257.15048 -31136415.85246  21314211.6484                   21314207.0474
 11  8 17  2  3  0.0000000  0  8G12G25G10G26G05G04G29G02
 -28350922.86748 -22076287.97146  21033763.1644                   21033761.2624
 -12462667.62648  -9695777.87346  21746720.6564                   21746720.8094
 -27319446.76747 -21273061.02844  22665875.1174                   22665873.1094
  15481295.97546  12075112.46443  24664827.3134                   24664827.4804
 -27956971.86248 -21769083.53847  20302963.3204                   20302961.2624
 -36080048.34947 -28097105.15243  24496598.1884                   24496597.7894
   4519225.61547   3534346.37044  23369942.9534                   23369942.5744
 -40013794.92848 -31163328.40246  21307638.9924                   21307635.1884
 11  8 17  2  3 30.0000000  0  8G12G25G10G26G05G04G29G02
 -28380645.47448 -22099448.44146  21028107.5474                   21028105.2464
 -12558803.10348  -9770688.64746  21728426.3204                   21728426.5554
 -27295527.20547 -21254422.42244  22670427.9774                   22670425.3134
  15318767.45946  11948466.95243  24633898.7034                   24633899.3554
 -28027528.11348 -21824062.40947  20289537.0944                   20289534.9184
 -36069285.77446 -28088718.74343  24498645.6884                   24498644.8794
   4367465.22047   3416091.50444  23341064.1484                   23341063.6214
 -40048233.45447 -31190163.61046  21301086.2194                   21301081.4184
 11  8 17  2  4  0.0000000  0  8G12G25G10G26G05G04G29G02
 -28409848.74448 -22122204.23346  21022550.6174                   21022548.1094
 -12654382.84647  -9845166.35246  21710238.4844                   21710238.6724
 -27271315.24247 -21235555.99344  22675034.9844                   22675033.8014
  15156127.47346  11821734.63443  24602949.2274                   24602949.8794
 -28097524.11948 -21878604.72047  20276217.5164                   20276215.1054
 -36058595.29546 -28080388.45543  24500679.6724                   24500679.6414
   4215694.95847   3297829.00144  23312183.2274                   23312182.1024
 -40082575.49547 -31216923.61446  21294550.8054                   21294546.7304
 11  8 17  2  4 30.0000000  0  8G12G25G10G26G05G04G29G02
 -28438534.04248 -22144556.40646  21017091.3204                   21017089.2074
 -12749405.72748  -9919210.15446  21692155.5944                   21692155.7344
 -27246813.32046 -21216463.62144  22679696.8834                   22679696.1564
  14993379.24546  11694917.92243  24571978.9774                   24571979.4574
 -28166960.21748 -21932710.75447  20263004.2194                   20263001.9964
 -36047976.79846 -28072114.23343  24502700.9924                   24502700.3094
   4063916.46147   3179560.05345  23283300.5234                   23283300.1604
 -40116821.31947 -31243608.65146  21288034.1484                   21288029.8524
 11  8 17  2  5  0.0000000  0  8G12G25G10G26G05G04G29G02
 -28466703.15848 -22166506.35946  21011731.0234                   21011728.9304
 -12843870.77548  -9992819.27846  21674179.9454                   21674180.1914
 -27222024.37346 -21197147.55444  22684414.2734                   22684413.5434
  14830525.98246  11568019.38743  24540989.3284                   24540989.5784
 -28235836.97548 -21986380.93047  20249897.1334                   20249894.6294
 -36037430.43946 -28063896.37143  24504708.7504                   24504708.0084
   3912131.03747   3061285.71345  23254416.2194                   23254415.3244
 -40150970.90648 -31270218.70246  21281535.5944                   21281531.5704
 11  8 17  2  5 30.0000000  0  8G12G25G10G26G05G04G29G02
 -28494356.02148 -22188054.03846  21006468.9694                   21006466.4384
 -12937775.66748 -10065991.91346  21656310.3524                   21656311.3754
 -27196949.70046 -21177608.88244  22689186.5164                   22689184.2384
  14667572.46446  11441042.73943  24509979.6954                   24509980.0084
 -28304153.10748 -22039614.26347  20236896.9844                   20236894.8364
 -36026954.81946 -28055733.55743  24506701.3754                   24506701.1994
   3760341.84147   2943008.48745  23225532.3444                   23225530.8984
 -40185023.95548 -31296753.53046  21275055.5704                   21275051.0044
 11  8 17  2  6  0.0000000  0  8G12G25G10G26G05G04G29G02
 -28521497.04448 -22209202.87846  21001304.0784                   21001301.5274
 -13031122.33748 -10138729.56646  21638546.8914                   21638547.1374
 -27171594.60047 -21157851.65044  22694010.8204                   22694009.0634
  14504518.73146  11313987.94643  24478951.3754                   24478951.5084
 -28371911.85048 -22092413.27047  20224002.6094                   20224000.8524
 -36016552.91046 -28047628.10043  24508680.2664                   24508680.0784
   3608547.58047   2824727.27845  23196647.0004                   23196645.9064
 -40218983.78348 -31323215.70446  21268593.0634                   21268588.5394
 11  8 17  2  6 30.0000000  0  8G12G25G10G26G05G04G29G02
 -28548126.20248 -22229952.85746  20996236.7664                   20996234.6214
 -13123908.40747 -10211030.38146  21620890.5314                   21620891.0354
 -27145960.40147 -21137876.97944  22698888.8914                   22698887.1724
  14341369.59046  11186858.91442  24447905.3444                   24447904.0234
 -28439112.05748 -22144777.04847  20211215.1564                   20211212.9184
 -36006223.17746 -28039578.96443  24510646.5864                   24510644.9734
   3456751.58247   2706444.74645  23167760.3674                   23167760.0004
 -40252848.40347 -31349603.69346  21262148.7344                   21262144.1294
 11  8 17  2  7  0.0000000  0  8G12G25G10G26G05G04G29G02
 -28574244.62648 -22250304.86646  20991266.4304                   20991263.9414
 -13216132.38248 -10282893.19846  21603340.5394                   21603340.7894
 -27120049.54146 -21117686.71244  22703819.9454                   22703817.5904
  14178128.82446  11059658.41042  24416841.8524                   24416840.8714
 -28505753.75748 -22196705.62847  20198533.6954                   20198531.4104
 -35995965.23046 -28031585.74642  24512598.6414                   24512596.8364
   3304955.54847   2588162.15445  23138875.0004                   23138873.5434
 -40286617.79847 -31375917.48146  21255722.6174                   21255718.2074
 11  8 17  2  7 30.0000000  0  8G12G25G10G26G05G04G29G02
 -28599855.13448 -22270261.09746  20986393.1954                   20986391.1374
 -13307795.05148 -10354318.63646  21585898.1884                   21585898.1024
 -27093865.86247 -21097283.86144  22708802.1414                   22708800.7774
  14014797.98646  10932387.73842  24385760.8054                   24385759.8594
 -28571839.14348 -22248200.70947  20185957.9454                   20185955.3754
 -35985780.49346 -28023649.51642  24514536.5004                   24514535.8554
   3153159.77747   2469879.83045  23109988.6954                   23109988.0234
 -40320294.16947 -31402158.79746  21249314.5944                   21249309.8954
 11  8 17  2  8  0.0000000  0  8G12G25G10G26G05G04G29G02
 -28624960.60348 -22289823.79546  20981615.7424                   20981613.6294
 -13398896.85348 -10425307.04246  21568562.0554                   21568562.1054
 -27067413.60047 -21076671.73544  22713836.2734                   22713834.8794
  13851379.23446  10805048.59443  24354663.8284                   24354662.3714
 -28637369.78348 -22299263.53547  20173487.6254                   20173485.2304
 -35975670.42846 -28015771.58642  24516460.5004                   24516459.7974
   3001364.70846   2351598.01645  23081103.2274                   23081102.1684
 -40353878.95747 -31428328.73646  21242923.0004                   21242919.5634
 11  8 17  2  8 30.0000000  0  8G12G25G10G26G05G04G29G02
 -28649561.26248 -22308993.12846  20976934.1804                   20976931.8984
 -13489435.50048 -10495856.61146  21551333.1884                   21551333.0124
 -27040693.99447 -21055851.30344  22718920.8594                   22718918.6484
  13687877.18246  10677644.54843  24323550.2194                   24323549.6024
 -28702344.93448 -22349893.50147  20161123.7814                   20161121.6414
 -35965633.47446 -28007950.53542  24518370.5944                   24518369.2974
   2849573.43447   2233319.19245  23052218.8204                   23052217.0904
 -40387370.94547 -31454426.37946  21236549.4774                   21236545.3874
 11  8 17  2  9  0.0000000  0  8G12G25G10G26G05G04G29G02
 -28673659.74348 -22327771.15546  20972348.5164                   20972345.7814
 -13579411.15048 -10565967.47846  21534211.0474                   21534211.3204
 -27013710.77946 -21034825.43244  22724055.0234                   22724053.2774
  13524294.28547  10550177.45543  24292420.8524                   24292420.8204
 -28766765.81448 -22400091.57247  20148864.8204                   20148862.5354
 -35955670.39346 -28000187.05043  24520265.9384                   24520265.6214
   2697786.62047   2115043.82445  23023334.1254                   23023332.4924
 -40420771.43447 -31480452.69346  21230194.0704                   21230189.5594
 11  8 17  2  9 30.0000000  0  8G12G25G10G26G05G04G29G02
 -28697259.53748 -22346160.60246  20967857.8134                   20967855.3324
 -13668824.81548 -10635640.44346  21517196.0784                   21517196.3244
 -26986468.16646 -21013597.45644  22729239.3364                   22729237.5274
  13360631.87647  10422648.43243  24261276.9694                   24261276.7814
 -28830634.59448 -22449859.44247  20136710.9064                   20136708.6564
 -35945783.20846 -27992482.79443  24522147.4064                   24522147.7704
   2546004.12746   1996771.84644  22994450.5314                   22994449.9654
 -40454082.29947 -31506409.19946  21223855.2274                   21223850.6524
 11  8 17  2 10  0.0000000  0  8G12G25G10G26G05G04G29G02
 -27144939.51148 -21136560.57546  21263254.4694                   21263251.6094
 -12182250.98548  -9477271.21346  21800081.8524                   21800081.9924
 -25383547.98246 -19764568.78944  23034265.3834                   23034263.0124
  14772320.65847  11522665.77143  24529912.1724                   24529912.2424
 -27318528.35148 -21271594.82547  20424455.0004                   20424452.0164
 -34360550.43647 -26757236.50243  24823807.8984                   24823806.4024
   3969654.37946   3106109.77944  23265362.3054                   23265360.4494
 -38911881.14447 -30304694.00746  21517326.3754                   21517322.7234
 11  8 17  2 10 30.0000000  0  7G12G25G10G26G05G29G02
 -27167543.66348 -21154174.20246  21258952.7814                   21258950.0784
 -12270535.56448  -9546064.37046  21783281.8204                   21783282.2504
 -25355791.61446 -19742940.47844  23039547.1024                   23039546.2194
  14608512.29347  11395023.02643  24498740.2504                   24498739.8134
 -27381292.52948 -21320501.94747  20412511.7974                   20412509.2854
   3817888.31747   2987850.60044  23236481.8284                   23236481.0434
 -38945011.14848 -30330509.57946  21511021.5864                   21511017.5864
 11  8 17  2 11  0.0000000  0  7G12G25G10G26G05G29G02
 -27189653.74148 -21171402.82946  21254745.3914                   21254742.8164
 -12358255.83948  -9614417.80546  21766589.3364                   21766589.6724
 -25327783.70446 -19721116.15444  23044876.8524                   23044874.8204
  14444634.62447  11267326.26443  24467555.8134                   24467555.1294
 -27443506.41448 -21368980.28447  20400672.6724                   20400670.0394
   3666131.99746   2869599.00745  23207603.1724                   23207603.2734
 -38978052.16947 -30356255.82146  21504734.2974                   21504729.8874
 11  8 17  2 11 30.0000000  0  7G12G25G10G26G05G29G02
 -27211264.68448 -21188242.50746  21250632.7114                   21250630.2894
 -12445404.27148  -9682325.66646  21750005.6484                   21750005.6414
 -25299519.90046 -19699092.45744  23050255.6414                   23050253.4384
  14280697.93946  11139583.50743  24436359.0234                   24436359.0004
 -27505164.03548 -21417025.16847  20388939.6564                   20388936.8954
   3514393.81846   2751361.55145  23178728.7734                   23178728.4104
 -39010997.99447 -30381927.88746  21498465.1254                   21498460.6764
 11  8 17  2 12  0.0000000  0  7G12G25G10G26G05G29G02
 -27232378.29548 -21204694.67846  21246615.0944                   21246612.6414
 -12531980.26048  -9749787.45946  21733530.5554                   21733530.4104
 -25271003.21846 -19676871.68044  23055682.1024                   23055679.7304
  14116705.19246  11011797.06743  24405152.0084                   24405152.6294
 -27566265.89648 -21464636.99047  20377312.1644                   20377309.7464
   3362675.43247   2633139.51945  23149858.0314                   23149856.4304
 -39043848.54847 -30407525.70846  21492213.7274                   21492209.5824
 11  8 17  2 12 30.0000000  0  7G12G25G10G26G05G29G02
 -27253000.59648 -21220763.99646  21242690.5864                   21242688.4304
 -12617987.64948  -9816806.18446  21717163.5164                   21717163.6454
 -25242240.96247 -19654459.56644  23061155.5234                   23061153.3054
  13952655.72246  10883966.45743  24373934.6094                   24373934.8714
 -27626816.93648 -21511819.59947  20365789.5944                   20365787.1054
   3210974.12447   2514930.78845  23120990.2504                   23120988.6524
 -39076608.56647 -30433052.99746  21485979.9924                   21485975.4494
 11  8 17  2 13  0.0000000  0  7G12G25G10G26G05G29G02
 -27273134.55948 -21236452.78546  21238859.4774                   21238856.6994
 -12703427.06648  -9883382.34046  21700905.2504                   21700905.8324
 -25213236.56546 -19631858.81744  23066674.6644                   23066673.1954
  13788551.37146  10756093.05343  24342705.7344                   24342706.7424
 -27686819.14848 -21558574.55347  20354371.6804                   20354369.0044
   3059290.46046   2396735.78045  23092125.4774                   23092124.9884
 -39109279.71847 -30458511.04746  21479762.1724                   21479758.3794
 11  8 17  2 13 30.0000000  0  7G12G25G10G26G05G29G02
 -27292786.33348 -21251765.85446  21235119.9844                   21235117.3054
 -12788302.04548  -9949518.67446  21684754.0234                   21684753.9344
 -25183997.09246 -19609074.85744  23072239.2114                   23072236.6914
  13624391.61646  10628176.49843  24311467.7894                   24311467.6804
 -27746277.62548 -21604905.81347  20343057.0164                   20343054.4574
   2907621.99047   2278552.64345  23063263.5944                   23063262.7814
 -39141865.91648 -30483902.88746  21473561.9224                   21473557.3094
 11  8 17  2 14  0.0000000  0  7G12G25G10G26G05G29G02
 -27311959.51448 -21266705.99246  21231471.2894                   21231468.1684
 -12872614.08548 -10015216.36646  21668709.8984                   21668709.6374
 -25154527.03346 -19586111.21444  23077846.6644                   23077844.9804
  13460177.73046  10500217.70743  24280218.3444                   24280218.5514
 -27805195.11448 -21650815.52047  20331845.3594                   20331842.9414
   2755968.57547   2160381.24045  23034405.1254                   23034404.0354
 -39174369.61348 -30509230.45346  21467376.3984                   21467372.0004
 11  8 17  2 14 30.0000000  0  7G12G25G10G26G05G29G02
 -27330654.17548 -21281273.25546  21227913.8914                   21227911.6844
 -12956360.99248 -10080473.67646  21652773.5084                   21652773.7384
 -25124827.29646 -19562968.61444  23083498.9844                   23083497.3444
  13295915.00746  10372220.95043  24248960.4924                   24248960.0164
 -27863570.63848 -21696302.91847  20320736.5944                   20320734.2034
   2604333.70747   2042224.26845  23005549.6954                   23005549.3284
 -39206789.35848 -30534492.59246  21461207.2734                   21461203.1454
 11  8 17  2 15  0.0000000  0  7G12G25G10G26G05G29G02
 -27348875.21748 -21295471.46346  21224446.6804                   21224443.9454
 -13039545.21248 -10145292.54046  21636944.0314                   21636944.4144
 -25094903.84546 -19539651.65244  23089192.6804                   23089190.6724
  13131603.69246  10244186.32143  24217692.8914                   24217692.4264
 -27921407.92748 -21741370.92547  20309730.6644                   20309728.1994
   2452716.26147   1924080.86245  22976698.2274                   22976696.4574
 -39239127.99647 -30559691.53146  21455053.4144                   21455049.1334
 11  8 17  2 15 30.0000000  0  7G12G25G10G26G05G29G02
 -27366623.08348 -21309300.96346  21221069.0004                   21221066.5594
 -13122164.51648 -10209671.21246  21621222.2894                   21621222.5124
 -25064757.32546 -19516160.95544  23094929.0474                   23094928.5274
  12967249.02046  10116117.82843  24186416.8204                   24186416.7304
 -27978706.10648 -21786018.82747  20298827.3674                   20298824.6214
   2301119.73347   1805953.75845  22947850.8134                   22947849.3754
 -39271384.35148 -30584826.35746  21448915.1094                   21448911.1644
 11  8 17  2 16  0.0000000  0  7G12G25G10G26G05G29G02
 -27383900.04948 -21322763.52946  21217781.3204                   21217778.8554
 -13204219.23148 -10273609.95046  21605607.7274                   21605607.7704
 -25034391.07447 -19492498.99644  23100708.1644                   23100706.5044
  12802853.40847   9988017.39243  24155133.4144                   24155132.8914
 -28035466.65248 -21830247.80247  20288026.2034                   20288023.4104
   2149545.11247   1687843.73345  22919006.1254                   22919005.4694
 -39303559.16148 -30609897.63946  21442792.1724                   21442788.3914
 11  8 17  2 16 30.0000000  0  7G12G25G10G26G05G29G02
 -27400708.01248 -21335860.64946  21214582.9924                   21214580.3204
 -13285709.05648 -10337108.50446  21590100.5004                   21590100.6294
 -25003808.01947 -19468668.09544  23106527.4844                   23106526.5704
  12638420.64347   9859888.02143  24123843.2194                   24123842.4884
 -28091690.58248 -21874058.64047  20277327.0164                   20277324.5314
   1997994.11747   1569752.09545  22890167.1644                   22890166.2584
 -39335652.71348 -30634905.61046  21436685.2034                   21436680.1254
 11  8 17  2 17  0.0000000  0  7G12G25G10G26G05G29G02
 -27417050.68348 -21348595.19546  21211473.2584                   21211470.6844
 -13366635.12048 -10400167.75346  21574700.8834                   21574700.9064
 -24973012.19946 -19444671.42444  23112388.0474                   23112387.1024
  12473952.44147   9731730.99243  24092546.5084                   24092545.8094
 -28147380.46048 -21917453.32547  20266729.7504                   20266726.9574
   1846467.06647   1451679.12045  22861332.5084                   22861331.3324
 -39367666.81848 -30659851.67946  21430593.2734                   21430589.4654
 11  8 17  2 17 30.0000000  0  7G12G25G10G26G05G29G02
 -27432931.09648 -21360969.53846  21208451.0634                   21208448.7424
 -13446998.41648 -10462788.49346  21559408.4844                   21559408.3524
 -24942007.41547 -19420511.90744  23118287.5554                   23118286.2704
  12309450.86546   9603547.98743  24061243.2734                   24061241.2774
 -28202538.20548 -21960433.36847  20256233.0634                   20256230.7704
   1694964.59347   1333625.29845  22832502.5704                   22832501.3014
 -39399602.68448 -30684736.76646  21424516.3134                   21424511.6024
 11  8 17  2 18  0.0000000  0  7G12G25G10G26G05G29G02
 -27448348.29048 -21372982.93846  21205517.2274                   21205515.5554
 -13526795.80048 -10524968.26246  21544223.3834                   21544223.5904
 -24910793.64447 -19396189.51344  23124227.5634                   23124226.7704
  12144922.22746   9475343.97543  24029933.4694                   24029932.5514
 -28257162.17148 -22002997.47047  20245838.5864                   20245835.6054
   1543491.23447   1215594.14145  22803677.9384                   22803677.0084
 -39431457.92548 -30709559.02746  21418454.3054                   21418450.0554
 11  8 17  2 18 30.0000000  0  7G12G25G10G26G05G29G02
 -27463306.29748 -21384638.52046  21202671.0634                   21202668.5944
 -13606028.78248 -10586708.22046  21529145.4064                   21529146.1844
 -24879375.06147 -19371707.57344  23130206.3594                   23130204.8094
  11980368.21946   9347120.08743  23998620.5394                   23998619.1174
 -28311255.19648 -22045147.85447  20235545.2584                   20235542.1094
   1392046.92047   1097585.63845  22774859.1334                   22774858.6094
 -39463234.36048 -30734319.88246  21412407.0474                   21412402.9344
 11  8 17  2 19  0.0000000  0  7G12G25G10G26G05G29G02
 -27477806.09648 -21395937.06746  21199911.7424                   21199909.0984
 -13684696.01748 -10648007.33346  21514176.1414                   21514176.4414
 -24847753.49247 -19347067.39744  23136224.7974                   23136223.0904
  11815793.44046   9218880.08144  23967302.2664                   23967301.9844
 -28364816.79548 -22086884.14747  20225352.7664                   20225350.2664
   1240634.67847    979602.10145  22746045.9224                   22746044.7584
 -39494931.09348 -30759018.63046  21406375.5084                   21406371.4264
 11  8 17  2 19 30.0000000  0  7G12G25G10G26G05G29G02
 -27491851.87748 -21406881.83746  21197238.6954                   21197236.2504
 -13762799.65548 -10708867.29046  21499313.2194                   21499313.2154
 -24815934.10347 -19322273.11343  23142279.1954                   23142277.2504
  11651198.92146   9090624.67543  23935981.8984                   23935981.4224
 -28417850.63648 -22128209.20347  20215260.5394                   20215258.2274
   1089254.11447    861643.26145  22717239.5084                   22717237.9574
 -39526550.52548 -30783657.15346  21400358.6254                   21400354.1094
 11  8 17  2 20  0.0000000  0  7G12G25G10G26G05G29G02
 -27505442.30148 -21417471.78046  21194652.6804                   21194650.3444
 -13840335.81348 -10769285.04746  21484558.4614                   21484558.5864
 -24783915.46547 -19297323.54544  23148372.1254                   23148370.0474
  11486591.84346   8962359.49343  23904656.9844                   23904657.4454
 -28470354.21448 -22169121.06847  20205269.2814                   20205267.3834
    937910.61147    743713.28045  22688439.7974                   22688438.0704
 -39558089.09648 -30808232.65146  21394357.2814                   21394352.8404
 11  8 17  2 20 30.0000000  0  7G12G25G10G26G05G29G02
 -27518579.96748 -21427708.93546  21192152.4384                   21192150.4694
 -13917305.16748 -10829261.13346  21469911.9534                   21469911.5394
 -24751701.22447 -19272221.56244  23154502.0394                   23154500.2974
  11321974.89546   8834086.58043  23873330.9064                   23873331.8134
 -28522329.30448 -22209621.12547  20195379.1484                   20195376.8554
    786605.20347    625813.00145  22659647.1024                   22659645.8054
 -39589548.03448 -30832746.09746  21388370.4304                   21388366.4224
 11  8 17  2 21  0.0000000  0  7G12G25G10G26G05G29G02
 -27531268.63848 -21437596.21146  21189738.0634                   21189735.9844
 -13993708.98548 -10888796.54346  21455372.6254                   21455372.5394
 -24719295.41747 -19246970.28544  23160669.0784                   23160666.9104
  11157350.28446   8705807.79143  23842004.3284                   23842004.6454
 -28573778.32848 -22249711.26247  20185588.7974                   20185586.3444
    635338.44147    507942.84345  22630862.2894                   22630859.6844
 -39620928.91948 -30857198.71946  21382398.8674                   21382394.5984
 11  8 17  2 21 30.0000000  0  7G12G25G10G26G05G29G02
 -25968090.31248 -20219535.17646  21487201.2974                   21487198.6994
 -12494125.68148  -9720290.04246  21740733.9064                   21740733.9924
 -23111283.12247 -17993973.74843  23466663.2424                   23466661.6524
  12568145.76346   9805129.01543  24110470.6884                   24110469.6024
 -27049281.82948 -21061791.90247  20475690.5314                   20475688.0044
   2059536.26947   1617707.41145  22901877.9614                   22901876.9534
 -38076811.69648 -29653990.48146  21676234.6884                   21676230.2774
 11  8 17  2 22  0.0000000  0  7G12G25G10G26G05G29G02
 -25979886.83648 -20228727.27846  21484956.2424                   21484953.7814
 -12569398.23948  -9778943.94146  21726409.8444                   21726410.1414
 -23078502.56047 -17968430.41843  23472901.5234                   23472899.9224
  12403516.01346   9676846.14843  24079141.9844                   24079141.6954
 -27099682.40248 -21101065.06247  20466099.5474                   20466097.1054
   1908352.27347   1499901.73545  22873108.3204                   22873106.6914
 -38108036.44948 -29678321.43746  21670292.7814                   21670288.6844
 11  8 17  2 22 30.0000000  0  7G12G25G10G26G05G29G02
 -25991239.99048 -20237573.88746  21482795.8134                   21482793.5944
 -12644104.33248  -9837156.45246  21712193.8984                   21712193.9574
 -23045537.71647 -17942743.56644  23479174.4924                   23479173.6334
  12238889.61046   9548565.91543  24047814.9224                   24047813.5824
 -27149559.89948 -21139930.63747  20456608.4774                   20456605.9494
   1757213.36447   1382131.20145  22844347.5314                   22844346.1764
 -38139182.68648 -29702591.22146  21664366.1024                   21664361.6844
 11  8 17  2 23  0.0000000  0  7G12G25G10G26G05G29G02
 -26002150.93148 -20246075.92146  21480719.5554                   21480716.6804
 -12718243.05048  -9894926.82646  21698085.5784                   21698086.3554
 -23012390.16047 -17916914.31343  23485482.7734                   23485481.0004
  12074271.14246   9420291.85343  24016488.4924                   24016487.9344
 -27198914.05948 -21178388.41347  20447216.5234                   20447213.9304
   1606122.25247   1264397.91045  22815596.6564                   22815594.9924
 -38170249.69848 -29726799.26746  21658453.9774                   21658449.8014
 11  8 17  2 23 30.0000000  0  7G12G25G10G26G05G29G02
 -26012621.09448 -20254234.47746  21478727.5084                   21478724.6524
 -12791813.78948  -9952254.63546  21684085.9454                   21684085.5704
 -22979062.19947 -17890944.50244  23491825.0784                   23491822.9534
  11909664.55946   9292027.07143  23985164.9534                   23985164.2974
 -27247745.90148 -21216439.19347  20437924.3054                   20437921.0744
   1455081.32047   1146703.70945  22786853.5394                   22786851.7274
 -38201236.88448 -29750945.10246  21652557.4144                   21652553.2664
 11  8 17  2 24  0.0000000  0  7G12G25G10G26G05G29G02
 -26022656.66147 -20262054.40046  21476817.3914                   21476814.7664
 -12864820.36048 -10009142.84446  21670192.5704                   21670192.8094
 -22945560.16647 -17864839.02244  23498199.6644                   23498198.8484
  11745069.66646   9163771.42143  23953842.7274                   23953842.9924
 -27296060.09148 -21254086.59247  20428730.1564                   20428727.5124
   1304088.87747   1029047.29845  22758121.0704                   22758119.6414
 -38232148.18548 -29775031.80846  21646674.9614                   21646670.2274
 11  8 17  2 24 30.0000000  0  7G12G25G10G26G05G29G02
 -26032259.67748 -20269537.26646  21474990.1644                   21474987.9144
 -12937262.51148 -10065591.24346  21656407.4534                   21656407.3404
 -22911886.36747 -17838599.72344  23504607.7504                   23504606.1844
  11580490.54246   9035528.03043  23922525.0394                   23922524.6254
 -27343857.82248 -21291331.57247  20419634.4924                   20419632.3244
   1153146.92547    911430.25445  22729397.7424                   22729396.2424
 -38262983.29748 -29799059.15146  21640807.7664                   21640803.4304
 11  8 17  2 25  0.0000000  0  7G12G25G10G26G05G29G02
 -26041429.49548 -20276682.57446  21473245.3754                   21473242.4804
 -13009137.84848 -10121597.97046  21642730.1484                   21642729.9064
 -22878040.62447 -17812226.42144  23511047.9614                   23511047.1454
  11415932.95447   8907301.38143  23891211.3594                   23891209.8204
 -27391137.80748 -21328173.10347  20410637.6484                   20410635.0164
   1002260.18147    793856.22845  22700684.9224                   22700683.3444
 -38293739.52848 -29823025.03746  21634954.4844                   21634950.2504
 11  8 17  2 25 30.0000000  0  7G12G25G10G26G05G29G02
 -26050170.78848 -20283493.97446  21471581.9454                   21471579.5204
 -13080448.72848 -10177164.86246  21629160.2114                   21629159.8554
 -22844028.02247 -17785723.10244  23517520.4384                   23517519.7074
  11251398.22946   8779092.61044  23859900.4384                   23859900.0314
 -27437903.55348 -21364613.92347  20401738.5234                   20401735.5744
    851428.16447    676324.86045  22671982.7734                   22671980.9884
 -38324419.85748 -29846931.76146  21629116.3524                   21629111.5904
 11  8 17  2 26  0.0000000  0  7G12G25G10G26G05G29G02
 -26058485.15848 -20289972.68646  21469999.9384                   21469997.4614
 -13151194.65448 -10232291.53046  21615697.3524                   21615697.2424
 -22809850.45547 -17759091.25743  23524024.3284                   23524022.2504
  11086890.69146   8650904.96943  23828595.6414                   23828595.4104
 -27484156.09448 -21400654.86347  20392936.8754                   20392934.2384
    700653.52247    558838.18945  22643291.0004                   22643288.7934
 -38355023.29348 -29870778.58046  21623292.5554                   21623288.2464
 11  8 17  2 26 30.0000000  0  7G12G25G10G26G05G29G02
 -26066376.38448 -20296121.69046  21468497.8914                   21468495.6524
 -13221377.30248 -10286979.29946  21602342.0394                   21602342.3984
 -22775512.25647 -17732334.22443  23530558.7504                   23530556.7974
  10922412.19746   8522740.01544  23797296.1804                   23797295.9064
 -27529897.73348 -21436297.68247  20384232.6334                   20384229.9184
    549936.89947    441396.74045  22614610.1094                   22614609.1844
 -38385551.51448 -29894566.79546  21617483.5554                   21617478.3834
 11  8 17  2 27  0.0000000  0  7G12G25G10G26G05G29G02
 -26073845.47348 -20301941.76246  21467077.0234                   21467074.5744
 -13290995.71948 -10341227.39746  21589094.2814                   21589094.3014
 -22741014.53346 -17705452.91343  23537123.3914                   23537121.3984
  10757967.79846   8394601.57844  23766003.8674                   23766002.9884
 -27575128.75248 -21471542.61947  20375625.2114                   20375622.6724
    399281.06747    324002.67945  22585941.3204                   22585940.2774
 -38416003.56248 -29918295.64246  21611688.7664                   21611683.6764
 11  8 17  2 27 30.0000000  0  7G12G25G10G26G05G29G02
 -26080893.72448 -20307433.89246  21465735.1724                   21465733.2704
 -13360048.77248 -10395034.95846  21575953.6804                   21575953.6804
 -22706358.56846 -17678448.20643  23543717.8524                   23543716.5164
  10593562.31146   8266493.50744  23734718.5634                   23734717.9614
 -27619849.31147 -21506389.79647  20367115.1094                   20367112.4494
    248689.49747    206658.67945  22557284.7584                   22557283.2894
 -38446377.90948 -29941963.96846  21605908.2114                   21605903.7234
 11  8 17  2 28  0.0000000  0  7G12G25G10G26G05G29G02
 -26087526.29448 -20312602.11746  21464473.1334                   21464470.9064
 -13428539.76148 -10448404.54346  21562920.5784                   21562920.3444
 -22671550.09347 -17651324.69943  23550342.0474                   23550339.4454
  10429196.34146   8138416.17344  23703440.8204                   23703440.6684
 -27664063.97947 -21540842.77547  20358701.2344                   20358698.5044
     98161.22247     89364.00945  22528639.4064                   22528638.5864
 -38476677.91648 -29965574.34346  21600142.8054                   21600138.3484
 11  8 17  2 28 30.0000000  0  7G12G25G10G26G05G29G02
 -26093745.40247 -20317448.15746  21463289.8984                   21463287.1024
 -13496468.91748 -10501336.33746  21549994.2424                   21549993.8984
 -22636591.69447 -17624084.37743  23556994.4144                   23556992.3834
  10264873.45046   8010372.47844  23672170.8834                   23672170.8594
 -27707774.13548 -21574902.61547  20350383.6804                   20350381.5274
    -52301.95947    -27879.93545  22500007.4774                   22500006.5044
 -38506903.58548 -29989126.81046  21594390.5944                   21594386.4574
 11  8 17  2 29  0.0000000  0  8G12G25G10G26G05G15G29G02
 -26099552.50047 -20321973.16046  21462185.0164                   21462182.3714
 -13563835.55848 -10553829.80746  21537174.3204                   21537174.1804
 -22601484.84647 -17596728.39244  23563674.7034                   23563673.0864
  10100598.10746   7882365.80444  23640910.2814                   23640909.8484
 -27750979.76548 -21608569.34047  20342161.6334                   20342158.9844
  20244083.51956  15789028.14454  24559031.2664                   24559032.0394
   -202696.83047   -145070.64845  22471388.5474                   22471387.2704
 -38537053.60648 -30012620.32746  21588653.3754                   21588648.5514
 11  8 17  2 29 30.0000000  0  8G12G25G10G26G05G15G29G02
 -26104953.91247 -20326182.04646  21461157.1024                   21461154.7464
 -13630643.67248 -10605888.05746  21524461.2584                   21524461.4694
 -22566235.67047 -17569261.44444  23570382.8134                   23570380.7344
   9936370.49746   7754396.31344  23609658.7114                   23609658.4024
 -27793686.20047 -21641847.06747  20334034.9384                   20334032.5124
  20081220.38946  15662122.01543  24528039.5394                   24528039.2424
   -353025.06147   -262209.44645  22442781.6094                   22442779.9774
 -38567131.73948 -30036057.83746  21582929.5944                   21582925.0354
 11  8 17  2 30  0.0000000  0  8G12G25G10G26G05G15G29G02
 -26109955.06647 -20330079.04746  21460205.0084                   21460203.1684
 -13696897.17548 -10657514.15346  21511853.3524                   21511853.6644
 -22530850.51247 -17541688.60744  23577116.4384                   23577114.8484
   9772190.58446   7626463.96644  23578416.0084                   23578415.6884
 -27835898.37147 -21674739.65747  20326002.3834                   20325999.5474
  19918210.42045  15535101.53743  24497018.7894                   24497018.6884
   -503288.25347   -379297.56645  22414187.4844                   22414186.9144
 -38597141.78548 -30059442.29446  21577219.0314                   21577214.3404
 11  8 17  2 30 30.0000000  0  8G12G25G10G26G05G15G29G02
 -26114555.97247 -20333664.16746  21459329.7814                   21459327.4884
 -13762593.81147 -10708706.32946  21499351.9224                   21499352.2074
 -22495329.25947 -17514009.70643  23583875.4224                   23583874.6414
   9608064.82347   7498573.86044  23547184.0314                   23547182.9694
 -27877615.16248 -21707246.22947  20318063.9534                   20318061.6764
  19755059.18545  15407970.95243  24465971.9844                   24465971.7344
   -653481.65147   -496331.31545  22385606.4304                   22385605.0664
 -38627080.94148 -30082771.49545  21571521.4454                   21571517.4654
 11  8 17  2 31  0.0000000  0  8G12G25G10G26G05G15G29G02
 -26118753.11247 -20336934.67446  21458530.8834                   21458528.7854
 -13827727.96048 -10759460.19446  21486957.3134                   21486957.3164
 -22459668.35347 -17486222.02943  23590661.6884                   23590660.2274
   9444002.52546   7370733.16543  23515964.0944                   23515962.8674
 -27918832.14747 -21739363.34847  20310220.6804                   20310218.4264
  19591775.30345  15280737.04543  24434900.9224                   24434899.7894
   -803597.43747   -613304.59145  22357040.1644                   22357038.8554
 -38656943.35148 -30106040.92546  21565839.0864                   21565835.0594
 11  8 17  2 31 30.0000000  0  8G12G25G10G26G05G15G29G02
 -26122547.80747 -20339891.59346  21457808.7584                   21457806.6884
 -13892299.19848 -10809775.44446  21474669.6414                   21474670.0984
 -22423869.02946 -17458326.45743  23597473.8524                   23597472.6954
   9280008.39846   7242945.60943  23484757.1334                   23484755.7384
 -27959549.89048 -21771091.43747  20302472.4224                   20302469.8444
  19428362.19245  15153402.42242  24403803.5784                   24403803.5084
   -953632.26147   -730214.78245  22328490.0634                   22328488.4614
 -38686728.09948 -30129249.83245  21560171.2344                   21560166.8094
 11  8 17  2 32  0.0000000  0  8G12G25G10G26G05G15G29G02
 -26125943.08248 -20342537.26846  21457162.6094                   21457160.0234
 -13956308.42048 -10859652.74146  21462489.0704                   21462489.6564
 -22387934.66846 -17430325.71543  23604311.0084                   23604310.2234
   9116085.72346   7115213.70643  23453563.8594                   23453562.3714
 -27999770.27848 -21802431.99247  20294818.7344                   20294816.1914
  19264822.40346  15025969.02042  24372682.7504                   24372681.3874
  -1103584.96847   -847060.96845  22299954.6254                   22299953.1684
 -38716435.59148 -30152398.52346  21554517.8284                   21554513.8634
 11  8 17  2 32 30.0000000  0  8G12G25G10G26G05G15G29G02
 -26128937.36148 -20344870.48946  21456593.4694                   21456591.2304
 -14019752.05848 -10909089.33346  21450416.3594                   21450416.4384
 -22351863.65746 -17402218.44043  23611175.6024                   23611174.9774
   8952242.15446   6987543.47443  23422384.6644                   23422382.7814
 -28039491.06247 -21833383.23047  20287259.6564                   20287257.0004
  19101162.43446  14898441.96243  24341538.7814                   24341539.3794
  -1253449.23547   -963838.25645  22271436.6334                   22271434.9614
 -38746061.54348 -30175483.68246  21548880.2424                   21548876.5004
 11  8 17  2 33  0.0000000  0  8G12G25G10G26G05G15G29G02
 -24556117.14948 -19119296.30946  21755891.2504                   21755888.6804
 -12507212.76748  -9730487.28846  21738242.9144                   21738243.1174
 -20740244.09146 -16146411.01743  23917857.4224                   23917856.7114
  10363902.60146   8087538.74043  23691014.8054                   23691013.7974
 -26503296.33247 -20636348.36647  20579588.0084                   20579585.6024
  20512806.30647  15998424.46043  24610166.2194                   24610166.2664
    172197.77747    147055.56545  22542727.9224                   22542726.7734
 -37200189.44448 -28970908.03345  21843050.1644                   21843045.3984
 11  8 17  2 33 30.0000000  0  8G12G25G10G26G05G15G29G02
 -24558322.52648 -19121014.79746  21755470.6884                   21755468.7274
 -12569532.72148  -9779048.28346  21726384.0234                   21726383.8134
 -20703913.36547 -16118101.38643  23924770.9694                   23924769.9024
  10200222.51847   7959995.86244  23659867.3834                   23659866.5864
 -26542027.73047 -20666528.66847  20572217.5004                   20572215.0744
  20348908.35647  15870712.04644  24578977.2664                   24578976.9144
     22510.54047     30416.21945  22514242.9844                   22514242.0164
 -37229658.62448 -28993871.02945  21837442.5234                   21837437.5634
 11  8 17  2 34  0.0000000  0  8G12G25G10G26G05G15G29G02
 -24560135.74948 -19122427.69946  21755125.9224                   21755124.1684
 -12631290.39148  -9827171.15246  21714631.6724                   21714631.1844
 -20667455.19047 -16089692.42544  23931709.0004                   23931707.5664
  10036630.85347   7832521.89444  23628737.4924                   23628736.5944
 -26580266.11848 -20696324.79247  20564941.5084                   20564938.5744
  20184896.81046  15742911.03844  24547766.7274                   24547767.0354
   -127083.63847    -86150.61845  22485776.5314                   22485775.3164
 -37259048.34548 -29016772.10845  21831849.3524                   21831845.2154
 11  8 17  2 34 30.0000000  0  8G12G25G10G26G05G15G29G02
 -24561559.87848 -19123537.42046  21754855.2734                   21754852.4734
 -12692486.80947  -9874856.67246  21702986.6334                   21702986.4924
 -20630872.45147 -16061186.40544  23938670.0704                   23938669.3954
   9873130.78647   7705119.31944  23597623.9774                   23597623.5044
 -26618013.06848 -20725737.98547  20557758.0474                   20557755.1724
  20020773.90546  15615023.28544  24516534.6804                   24516534.7384
   -276583.01547   -202643.59145  22457327.8834                   22457326.2544
 -37288358.66747 -29039611.31846  21826272.2664                   21826267.3874
 11  8 17  2 35  0.0000000  0  8G12G25G10G26G05G15G29G02
 -24562596.06747 -19124344.85346  21754657.7114                   21754655.3094
 -12753121.73747  -9922104.65946  21691448.1564                   21691448.0984
 -20594166.77047 -16032584.60343  23945655.0704                   23945654.8134
   9709727.18547   7577791.90544  23566529.2734                   23566528.2814
 -26655269.04348 -20754768.59447  20550668.7584                   20550665.9694
  19856543.32546  15487051.60344  24485282.6954                   24485282.5904
   -425984.70647   -319060.43545  22428897.9224                   22428896.0274
 -37317588.64947 -29062387.91546  21820709.5944                   21820705.4184
 11  8 17  2 35 30.0000000  0  8G12G25G10G26G05G15G29G02
 -24563250.38047 -19124854.70846  21754532.6334                   21754531.0704
 -12813198.20747  -9968917.48446  21680015.6174                   21680015.3324
 -20557343.01146 -16003890.91243  23952662.6094                   23952661.4734
   9546421.22847   7450540.57744  23535453.2734                   23535452.4694
 -26692038.58948 -20783420.17647  20543671.4384                   20543668.9454
  19692205.39546  15358996.29543  24454009.4454                   24454009.7854
   -575288.91047   -435401.31745  22400486.0864                   22400484.2424
 -37346740.66247 -29085103.75745  21815162.4064                   21815157.6764
 11  8 17  2 36  0.0000000  0  8G12G25G10G26G05G15G29G02
 -24563524.69647 -19125068.46846  21754481.0784                   21754478.4384
 -12872716.69248 -10015295.51046  21668690.1174                   21668689.8204
 -20520403.53146 -15975106.88343  23959691.1174                   23959690.7384
   9383216.68747   7323368.30444  23504396.4614                   23504395.9024
 -26728323.38547 -20811694.02947  20536766.8754                   20536764.3054
  19527762.88846  15230859.52543  24422717.6564                   24422717.3444
   -724493.32547   -551664.44345  22372093.2814                   22372091.8984
 -37375814.42647 -29107758.61145  21809629.3674                   21809625.3754
 11  8 17  2 36 30.0000000  0  8G12G25G10G26G05G15G29G02
 -24563423.78147 -19124989.84746  21754500.3914                   21754497.7464
 -12931680.18848 -10061241.08846  21657469.4844                   21657469.4104
 -20483352.97746 -15946236.44443  23966741.9774                   23966741.8164
   9220115.14947   7196276.24244  23473359.1804                   23473358.3444
 -26764126.90547 -20839592.84847  20529953.4454                   20529950.5164
  19363216.23046  15102641.50443  24391404.3284                   24391404.8874
   -873598.45347   -667850.19345  22343719.6414                   22343718.0314
 -37404812.29347 -29130354.35145  21804112.1724                   21804107.4774
 11  8 17  2 37  0.0000000  0  8G12G25G10G26G05G15G29G02
 -24562949.49347 -19124620.28846  21754590.8914                   21754588.4144
 -12990089.01048 -10106754.43746  21646354.6724                   21646354.5904
 -20446193.42946 -15917281.00743  23973814.3204                   23973812.7274
   9057120.55647   7069267.55644  23442342.7664                   23442341.5204
 -26799450.44748 -20867117.68047  20523231.7034                   20523229.1254
  19198568.99046  14974345.15943  24360072.9844                   24360073.5664
  -1022601.59847   -783956.49145  22315365.2814                   22315363.1604
 -37433733.86747 -29152890.61745  21798608.1254                   21798603.7154
 11  8 17  2 37 30.0000000  0  8G12G25G10G26G05G15G29G02
 -24562104.49147 -19123961.84446  21754751.1414                   21754748.8874
 -13047943.67847 -10151836.00546  21635345.3594                   21635344.7664
 -20408927.31347 -15888242.56544  23980905.6334                   23980904.9494
   8894237.05147   6942345.43544  23411346.5474                   23411345.5044
 -26834295.61448 -20894269.73947  20516600.7034                   20516598.3524
  19033824.04546  14845972.62744  24328724.1334                   24328723.1844
  -1171500.15647   -899981.28545  22287030.7974                   22287028.6094
 -37462578.65547 -29175367.06245  21793118.9304                   21793115.5594
 11  8 17  2 38  0.0000000  0  8G12G25G10G26G05G15G29G02
 -24560890.38147 -19123015.79646  21754982.3594                   21754979.7584
 -13105243.80148 -10196485.45646  21624441.3284                   21624441.5784
 -20371555.41347 -15859121.69443  23988017.4924                   23988016.0164
   8731469.38947   6815513.56944  23380373.1094                   23380371.6214
 -26868662.67848 -20921049.24747  20510061.1564                   20510058.4964
  18868985.33047  14717527.01244  24297356.1954                   24297355.1524
  -1320291.20347  -1015922.28945  22258716.5864                   22258714.9304
 -37491345.22048 -29197782.53846  21787645.2974                   21787641.0824
 11  8 17  2 38 30.0000000  0  8G12G25G10G26G05G15G29G02
 -24559311.14647 -19121785.23346  21755282.8284                   21755280.2774
 -13161992.42448 -10240705.17246  21613642.5704                   21613642.5434
 -20334082.83147 -15829922.22543  23995148.2344                   23995146.4144
   8568819.35246   6688773.33844  23349420.9924                   23349421.0784
 -26902555.92748 -20947459.56647  20503611.3444                   20503608.7424
  18704053.41647  14589008.75544  24265970.2894                   24265968.9304
  -1468974.37647  -1131779.23846  22230423.3594                   22230421.5314
 -37520036.06247 -29220139.01645  21782185.5164                   21782180.6454
 11  8 17  2 39  0.0000000  0  8G12G25G10G26G05G15G29G02
 -24557369.62847 -19120272.37546  21755652.0004                   21755649.8554
 -13218190.24648 -10284495.68546  21602948.3984                   21602948.4614
 -20296511.68547 -15800646.08543  24002297.5864                   24002295.3954
   8406290.36047   6562127.47144  23318492.8444                   23318491.8874
 -26935977.02647 -20973501.95847  20497251.4384                   20497248.8444
  18539031.42347  14460420.30644  24234567.8364                   24234565.9734
  -1617547.10247  -1247550.14445  22202150.2504                   22202149.3164
 -37548650.79047 -29242436.20745  21776740.1644                   21776735.9844
 11  8 17  2 39 30.0000000  0  8G12G25G10G26G05G15G29G02
 -24555066.96947 -19118478.10746  21756090.8364                   21756088.2074
 -13273836.19048 -10327856.17046  21592359.5554                   21592359.3054
 -20258842.38147 -15771293.31643  24009466.2344                   24009462.8164
   8243888.46647   6435580.58444  23287588.8204                   23287587.6644
 -26968925.76048 -20999176.28147  20490981.5394                   20490978.7234
  18373923.63247  14331764.96344  24203147.9694                   24203147.5594
  -1766005.89947  -1363232.25245  22173899.5944                   22173898.0514
 -37577187.60547 -29264672.66345  21771309.7974                   21771305.5514
 11  8 17  2 40  0.0000000  0  8G12G25G10G26G05G15G29G02
 -24552405.16847 -19116403.98446  21756597.2734                   21756594.8954
 -13328930.76448 -10370787.01446  21581875.2034                   21581875.3094
 -20221077.11247 -15741865.83743  24016651.3364                   24016648.7734
   8081617.72747   6309135.92743  23256710.4144                   23256709.0084
 -27001403.39348 -21024483.52347  20484801.1804                   20484798.7234
  18208733.59147  14203045.63744  24171714.1414                   24171713.1764
  -1914348.01847  -1478823.46046  22145670.8984                   22145669.6524
 -37605645.69647 -29286847.79245  21765894.5164                   21765890.2384
 11  8 17  2 40 30.0000000  0  8G12G25G10G26G05G15G29G02
 -24549388.96847 -19114053.69846  21757170.9224                   21757168.5554
 -13383477.09648 -10413290.66746  21571495.3134                   21571495.2854
 -20183220.62446 -15712367.24143  24023856.0084                   24023853.9224
   7919479.61547   6182794.58444  23225856.1954                   23225854.8554
 -27033414.07048 -21049426.89147  20478709.8364                   20478707.1454
  18043461.92746  14074262.64643  24140263.2664                   24140262.5234
  -2062573.36747  -1594323.66746  22117464.5864                   22117462.9414
 -37634027.16247 -29308963.20745  21760493.7194                   21760489.3834
 11  8 17  2 41  0.0000000  0  8G12G25G10G26G05G15G29G02
 -24546021.18347 -19111429.47646  21757811.7894                   21757809.6724
 -13437476.17648 -10455367.87546  21561219.5164                   21561219.8164
 -20145275.28846 -15682799.57843  24031076.2424                   24031075.6994
   7757477.80047   6056559.46544  23195028.1094                   23195026.6254
 -27064959.63748 -21074007.83947  20472706.9454                   20472704.0314
  17878111.29546  13945418.18743  24108798.7424                   24108797.7854
  -2210680.05647  -1709731.41745  22089280.8204                   22089278.9064
 -37662331.99047 -29331018.92145  21755107.4224                   21755103.0704
 11  8 17  2 41 30.0000000  0  8G12G25G10G26G05G15G29G02
 -24542305.17348 -19108533.90646  21758518.9144                   21758517.0474
 -13490929.70748 -10497019.98446  21551047.9304                   21551047.9494
 -20107244.12646 -15653164.90543  24038313.7194                   24038312.2074
   7595615.34747   5930432.91844  23164226.4534                   23164225.2304
 -27096042.75348 -21098228.43747  20466792.1254                   20466789.6334
  17712683.91846  13816513.86344  24077317.6724                   24077317.4804
  -2358666.56247  -1825045.53246  22061119.8524                   22061117.8554
 -37690560.91047 -29353015.48245  21749735.4304                   21749731.2344
 11  8 17  2 42  0.0000000  0  8G12G25G10G26G05G15G29G02
 -24538242.14648 -19105367.93746  21759292.3204                   21759289.8874
 -13543837.02348 -10538246.45546  21540980.0474                   21540979.7274
 -20069127.66046 -15623463.84643  24045566.9144                   24045565.1724
   7433897.67247   5804419.18144  23133453.2114                   23133451.7074
 -27126663.47847 -21122088.73046  20460964.9844                   20460961.9774
  17547184.15546  13687553.19643  24045823.8674                   24045822.7734
  -2506529.18047  -1940263.10646  22032982.4844                   22032980.6954
 -37718712.21947 -29374951.57245  21744378.5234                   21744374.3524
 11  8 17  2 42 30.0000000  0  8G12G25G10G26G05G15G29G02
 -24533834.71348 -19101933.59346  21760130.9694                   21760128.3324
 -13596199.54648 -10579048.41946  21531016.0944                   21531015.6174
 -20030928.73246 -15593698.50743  24052836.4614                   24052835.2304
   7272328.01247   5678520.80444  23102706.9694                   23102706.5514
 -27156823.78547 -21145590.25647  20455225.9774                   20455223.0044
  17381614.67146  13558538.20743  24014318.2344                   24014316.6374
  -2654265.88447  -2055382.57946  22004869.3054                   22004867.8554
 -37746786.21947 -29396827.42145  21739036.0784                   21739031.7624
 11  8 17  2 43  0.0000000  0  8G12G25G10G26G05G15G29G02
 -24529086.87348 -19098233.98646  21761034.6564                   21761032.4384
 -13648019.42648 -10619427.53946  21521154.6644                   21521154.8914
 -19992651.18446 -15563871.87143  24060119.2344                   24060118.4654
   7110909.17547   5552739.97644  23071989.5474                   23071989.3284
 -27186527.16648 -21168735.74247  20449573.4144                   20449570.7074
  17215976.99247  13429470.02444  23982798.3524                   23982796.6484
  -2801875.58047  -2170403.06646  21976780.3054                   21976777.8484
 -37774783.81848 -29418643.71945  21733708.3984                   21733703.8204
 11  8 17  2 43 30.0000000  0  8G12G25G10G26G05G15G29G02
 -24524000.52848 -19094270.62646  21762002.7584                   21762000.1484
 -13699296.70348 -10659383.84446  21511396.8984                   21511397.1054
 -19954295.99146 -15533984.72343  24067419.0394                   24067417.8954
   6949645.90247   5427080.31644  23041302.8284                   23041301.9064
 -27215774.26548 -21191525.67546  20444008.0634                   20444005.1214
  17050275.06847  13300351.82244  23951266.0634                   23951264.7304
  -2949354.83847  -2285321.93446  21948715.7664                   21948713.5634
 -37802703.65147 -29440399.44545  21728395.4224                   21728390.9884
 11  8 17  2 44  0.0000000  0  8G12G25G10G26G05G15G29G02
 -24518580.84848 -19090047.52946  21763033.8444                   21763031.4964
 -13750035.04248 -10698920.20546  21501741.8594                   21501741.8674
 -19915868.14846 -15504040.95743  24074731.7734                   24074730.0314
   6788539.55547   5301542.96144  23010645.2274                   23010644.3204
 -27244569.72648 -21213963.68946  20438528.3204                   20438525.3284
  16884509.33947  13171183.83843  23919722.1024                   23919719.5274
  -3096704.04147  -2400139.45546  21920676.3444                   21920674.1294
 -37830547.91048 -29462096.28045  21723096.8444                   21723091.9534
 11  8 17  2 44 30.0000000  0  8G12G25G10G26G05G15G29G02
 -22937409.70148 -17857966.13646  22063920.8594                   22063918.2154
 -12224812.71248  -9510435.27046  21791981.9144                   21791982.0554
 -18301949.95146 -14246442.34743  24381850.4534                   24381848.4384
   8203020.17747   6403735.70144  23279811.3204                   23279810.7424
 -25697493.09148 -20008449.42246  20732926.9454                   20732924.3674
  18294109.43747  14269573.64043  24187959.2974                   24187957.1334
  -1668495.02247  -1287249.27046  22192454.8444                   22192452.6844
 -36282894.98847 -28256132.97345  22017605.1024                   22017600.8404
 11  8 17  2 45  0.0000000  0  8G12G25G10G26G05G15G29G02
 -22931330.26148 -17853228.92946  22065077.4534                   22065075.6134
 -12274475.27548  -9549133.36746  21782531.7424                   21782531.0664
 -18263382.62146 -14216389.85243  24389188.9384                   24389187.0274
   8042239.88146   6278452.42544  23249215.9924                   23249214.9494
 -25725389.10248 -20030186.56746  20727618.6954                   20727616.2774
  18128225.86147  14140313.79043  24156392.2504                   24156391.1484
  -1815576.43047  -1401858.12646  22164466.6334                   22164464.4654
 -36310587.38647 -28277711.48245  22012335.6804                   22012331.2424
 11  8 17  2 45 30.0000000  0  8G12G25G10G26G05G15G29G02
 -22924923.06548 -17848236.32646  22066297.1564                   22066294.3554
 -12323599.83648  -9587412.23246  21773183.3984                   21773183.2424
 -18224747.08646 -14186284.24443  24396541.3834                   24396539.7934
   7881630.42946   6153302.27444  23218652.8284                   23218652.3134
 -25752836.69748 -20051574.30346  20722395.8204                   20722392.8794
  17962289.56146  14011012.93643  24124815.6954                   24124814.3244
  -1962518.79447  -1516358.63446  22136504.1024                   22136502.0984
 -36338201.44347 -28299228.92545  22007081.3524                   22007076.7114
 11  8 17  2 46  0.0000000  0  8G12G25G10G26G05G15G29G02
 -22918193.76947 -17842992.74846  22067577.6334                   22067575.1174
 -12372190.41648  -9625275.01146  21763936.7034                   21763936.8444
 -18186048.58746 -14156129.53142  24403904.5234                   24403903.1604
   7721192.30747   6028285.59144  23188122.3594                   23188121.8094
 -25779840.54048 -20072616.25846  20717256.5084                   20717253.5984
  17796300.43046  13881670.84343  24093228.1254                   24093226.9534
  -2109322.53247  -1630751.11045  22108568.5474                   22108566.3014
 -36365740.15347 -28320687.67045  22001840.6564                   22001835.4574
 11  8 17  2 46 30.0000000  0  8G12G25G10G26G05G15G29G02
 -22911144.75448 -17837500.02346  22068918.8674                   22068916.5744
 -12420248.23348  -9662722.64246  21754791.8984                   21754791.5824
 -18147289.13146 -14125927.25442  24411280.3834                   24411278.7464
   7560929.66647   5903405.65844  23157625.6094                   23157625.0824
 -25806402.68848 -20093314.03546  20712201.9614                   20712199.6454
  17630261.49946  13752290.02443  24061632.3674                   24061631.4184
  -2255985.48947  -1745033.89746  22080659.3364                   22080656.9734
 -36393203.12847 -28342087.39445  21996614.6564                   21996609.9184
 11  8 17  2 47  0.0000000  0  8G12G25G10G26G05G15G29G02
 -22903778.81948 -17831760.33946  22070320.5234                   22070318.5864
 -12467773.72248  -9699755.48746  21745747.9304                   21745748.0984
 -18108470.73246 -14095679.10543  24418666.7974                   24418666.2704
   7400846.95647   5778665.95444  23127162.6724                   23127161.4184
 -25832524.27748 -20113668.51446  20707231.7734                   20707228.8364
  17464176.74746  13622873.40144  24030027.7034                   24030026.4494
  -2402504.53447  -1859204.53846  22052777.7194                   22052775.9264
 -36420589.21747 -28363427.18645  21991403.2274                   21991398.6994
 11  8 17  2 47 30.0000000  0  8G12G25G10G26G05G15G29G02
 -22896097.42548 -17825774.84846  22071782.2894                   22071779.7814
 -12514767.48648  -9736373.99246  21736805.3204                   21736805.2664
 -18069595.22346 -14065386.49243  24426065.5164                   24426063.4534
   7240948.55647   5654069.85144  23096735.5944                   23096734.1524
 -25858206.53847 -20133680.66746  20702343.9064                   20702341.9264
  17298049.55946  13493423.80044  23998414.3134                   23998413.3594
  -2548876.67747  -1973260.70645  22024923.4774                   22024922.1484
 -36447897.60247 -28384706.44545  21986206.2734                   21986202.3984
 11  8 17  2 48  0.0000000  0  8G12G25G10G26G05G15G29G02
 -22888104.27248 -17819546.42346  22073303.5084                   22073300.9654
 -12561231.52548  -9772579.72246  21727963.7344                   21727963.8244
 -18030664.95346 -14035051.13143  24433474.1564                   24433471.7234
   7081237.79847   5529619.94644  23066343.0554                   23066341.5904
 -25883452.06747 -20153352.50846  20697539.9614                   20697537.1954
  17131882.23546  13363942.87944  23966794.0314                   23966793.4534
  -2695100.24247  -2087201.10146  21997098.5164                   21997096.6414
 -36475128.91847 -28405925.65245  21981024.2114                   21981020.5044
 11  8 17  2 48 30.0000000  0  8G12G25G10G26G05G15G29G02
 -22879802.95648 -17813077.88346  22074882.7894                   22074880.8914
 -12607167.79348  -9808374.21046  21719222.3054                   21719222.0124
 -17991682.91046 -14004675.43543  24440891.0944                   24440890.3404
   6921717.70847   5405318.63144  23035987.7424                   23035986.1524
 -25908263.69348 -20172686.23946  20692818.7114                   20692816.1454
  16965676.98946  13234432.39844  23935165.8754                   23935165.5004
  -2841173.70747  -2201024.52046  21969301.4224                   21969299.9184
 -36502283.64147 -28427085.16745  21975856.8444                   21975852.7544
 11  8 17  2 49  0.0000000  0  8G12G25G10G26G05G15G29G02
 -22871194.98348 -17806370.37246  22076521.3054                   22076518.8244
 -12652576.76748  -9843757.81246  21710580.8914                   21710581.2504
 -17952650.73146 -13974260.62243  24448318.5314                   24448317.7894
   6762393.01847   5281169.56844  23005668.4924                   23005667.7664
 -25932642.42748 -20191682.64646  20688179.7894                   20688176.9964
  16799437.69947  13104895.38144  23903531.9534                   23903530.4804
  -2987093.87447  -2314728.49846  21941533.5164                   21941531.7774
 -36529360.65147 -28448184.12545  21970704.4454                   21970699.9024
 11  8 17  2 49 30.0000000  0  9G12G25G10G26G05G15G29G21G02
 -22862286.60348 -17799428.77746  22078216.5944                   22078213.9344
 -12697462.97148  -9878734.08546  21702039.5314                   21702039.4304
 -17913573.72346 -13943810.91343  24455755.5004                   24455753.1954
   6603264.38847   5157173.26644  22975387.7034                   22975386.6644
 -25956593.73848 -20210346.00246  20683621.8204                   20683619.4104
  16633164.34846  12975331.83044  23871890.8594                   23871889.5164
  -3132861.68347  -2428313.73846  21913795.1954                   21913792.8284
  23459848.48756  18302298.50852  25182565.6954                   25182564.6294
 -36556362.83247 -28469224.77445  21965566.1094                   21965562.0394
 11  8 17  2 50  0.0000000  0  9G12G25G10G26G05G15G29G21G02
 -22853084.06247 -17792257.97346  22079967.4454                   22079965.0234
 -12741831.22348  -9913306.75246  21693596.6254                   21693596.2544
 -17874457.62745 -13913330.74943  24463198.0704                   24463197.0864
   6444331.96247   5033329.89744  22945143.5004                   22945142.2664
 -25980122.98748 -20228680.47646  20679143.9694                   20679141.6174
  16466856.13747  12845741.06644  23840243.2114                   23840241.9964
  -3278478.22347  -2541781.12846  21886085.1954                   21886083.0594
  23333192.67946  18203605.80942  25158464.9384                   25158464.0044
 -36583293.38447 -28490209.61545  21960440.9774                   21960436.7074
 11  8 17  2 50 30.0000000  0  9G12G25G10G26G05G15G29G21G02
 -22843591.54447 -17784861.22046  22081773.7814                   22081771.9694
 -12785684.44148  -9947478.08046  21685251.8364                   21685251.4414
 -17835306.15946 -13882823.04643  24470648.2114                   24470646.2934
   6285598.25547   4909641.33044  22914937.8834                   22914936.8834
 -26003233.58548 -20246688.72546  20674746.6724                   20674743.8484
  16300514.56447  12716124.33844  23808589.5394                   23808587.8954
  -3423942.60147  -2655129.93846  21858403.6724                   21858401.7664
  23206531.01146  18104908.52143  25134361.0784                   25134360.5904
 -36610153.78447 -28511139.79045  21955329.8834                   21955325.7234
 11  8 17  2 51  0.0000000  0  9G12G25G10G26G05G15G29G21G02
 -22833810.00547 -17777239.25546  22083634.7734                   22083633.0514
 -12829022.16148  -9981247.73946  21677004.7114                   21677004.3284
 -17796119.41945 -13852287.82842  24478105.5234                   24478103.2384
   6127068.80447   4786111.91844  22884770.6254                   22884769.9344
 -26025925.72848 -20264370.90046  20670428.1954                   20670425.7464
  16134144.90246  12586485.75144  23776930.0314                   23776929.3754
  -3569250.55547  -2768356.85046  21830752.6484                   21830750.6024
  23079864.67446  18006207.59343  25110257.2734                   25110256.6524
 -36636941.92147 -28532013.64145  21950232.9694                   21950228.5354
 11  8 17  2 51 30.0000000  0  9G12G25G10G26G05G15G29G21G02
 -22823736.16447 -17769389.50346  22085552.1414                   22085549.6844
 -12871839.72548 -10014612.07946  21668857.1254                   21668856.5124
 -17756893.92446 -13821722.41943  24485569.6174                   24485568.1174
   5968753.56247   4662749.47544  22854644.0004                   22854643.7464
 -26048195.56248 -20281724.00946  20666190.4614                   20666187.8834
  15967755.86947  12456832.00143  23745267.8364                   23745265.7974
  -3714393.76048  -2881455.40946  21803132.9064                   21803130.6884
  22953199.53346  17907507.61143  25086154.1174                   25086152.9064
 -36663651.15247 -28552826.03145  21945149.6954                   21945145.5554
 11  8 17  2 52  0.0000000  0  9G12G25G10G26G05G15G29G21G02
 -22813375.43147 -17761316.21445  22087523.6564                   22087521.6564
 -12914141.14748 -10047574.23146  21660807.1644                   21660806.7344
 -17717634.32846 -13791130.35043  24493040.6484                   24493038.8954
   5810654.07047   4539555.12144  22824559.0554                   22824557.8204
 -26070047.62948 -20298751.58446  20662032.1484                   20662029.7464
  15801348.19947  12327163.73944  23713601.2344                   23713599.0704
  -3859372.46048  -2994425.76046  21775544.3524                   21775542.3714
  22826532.73546  17808806.33343  25062050.7894                   25062048.5004
 -36690283.81647 -28573578.75045  21940081.6804                   21940077.3834
 11  8 17  2 52 30.0000000  0  9G12G25G10G26G05G15G29G21G02
 -22802726.41047 -17753018.28545  22089549.7814                   22089547.9024
 -12955923.98648 -10080132.28046  21652856.1024                   21652856.0044
 -17678338.60445 -13760510.25543  24500518.5234                   24500516.3914
   5652777.84947   4416534.73544  22794516.1804                   22794515.1684
 -26091480.01148 -20315452.11146  20657953.5944                   20657950.9454
  15634928.51847  12197486.10244  23681931.9064                   23681931.5044
  -4004180.56548  -3107263.18446  21747988.4064                   21747986.4614
  22699867.57046  17710106.26243  25037946.2584                   25037945.0124
 -36716836.15447 -28594268.86545  21935028.8054                   21935024.5394
 11  8 17  2 53  0.0000000  0  8G12G25G26G05G15G29G21G02
 -22791793.13947 -17744498.85545  22091630.4384                   22091628.6804
 -12997190.53048 -10112288.04146  21645003.1564                   21645003.1994
   5495128.11347   4293690.83545  22764516.5004                   22764515.3094
 -26112495.49748 -20331827.80846  20653954.6484                   20653952.3244
  15468499.26946  12067801.06644  23650261.8914                   23650260.1644
  -4148816.27848  -3219966.28346  21720465.0394                   21720463.0704
  22573202.70846  17611406.46143  25013843.2974                   25013841.2664
 -36743308.25747 -28614896.46745  21929991.3364                   21929987.2194
 11  8 17  2 53 30.0000000  0  8G12G25G26G05G15G29G21G02
 -22780575.82647 -17735758.08445  22093765.3444                   22093763.5664
 -13037939.67948 -10144040.62646  21637249.1174                   21637249.1454
   5337711.12147   4171028.28245  22734561.2034                   22734559.8754
 -26133093.75748 -20347878.37846  20650034.8134                   20650032.3014
  15302066.22647  11938113.09344  23618590.3594                   23618589.1884
  -4293274.74548  -3332531.26646  21692975.3444                   21692973.0084
  22446540.72346  17512708.88343  24989739.9614                   24989738.1764
 -36769697.41147 -28635459.43345  21924969.8364                   21924965.7814
 11  8 17  2 54  0.0000000  0  8G12G25G26G05G15G29G21G02
 -22769073.17047 -17726794.96345  22095954.4064                   22095952.1564
 -13078168.74248 -10175387.93746  21629593.6414                   21629593.3954
   5180534.91147   4048553.38245  22704651.0704                   22704649.6454
 -26153272.67848 -20363602.19146  20646194.7814                   20646192.0354
  15135636.23047  11808427.42644  23586920.0084                   23586918.6174
  -4437548.91748  -3444952.65146  21665521.1094                   21665518.8364
  22319885.21246  17414016.34643  24965637.5474                   24965636.3754
 -36795998.84847 -28655954.05145  21919965.1414                   21919960.2664
 11  8 17  2 54 30.0000000  0  8G12G25G26G05G15G29G21G02
 -22757286.27747 -17717610.37845  22098196.9304                   22098195.3404
 -13117877.84148 -10206330.08846  21622037.3594                   21622037.7234
   5023604.91047   3926270.32044  22674788.1254                   22674786.4734
 -26173032.87348 -20378999.72846  20642434.6484                   20642431.8484
  14969214.11946  11678747.92644  23555251.4224                   23555249.2664
  -4581635.12548  -3557227.57046  21638102.4064                   21638100.0864
  22193237.24946  17315329.77043  24941537.6954                   24941536.7854
 -36822210.93447 -28676379.05445  21914976.6564                   21914972.1764
 11  8 17  2 55  0.0000000  0  8G12G25G26G05G15G29G21G02
 -22745221.46247 -17708209.21745  22100493.0944                   22100490.4304
 -13157072.00448 -10236870.99246  21614578.8754                   21614578.5394
   4866921.56347   3804179.44044  22644972.4534                   22644970.3984
 -26192379.52848 -20394075.02346  20638753.4304                   20638750.6564
  14802799.50946  11549074.30844  23523583.2274                   23523581.5744
  -4725534.62548  -3669357.00346  21610718.9694                   21610716.6134
  22066592.97546  17216646.02843  24917437.8914                   24917437.0434
 -36848337.14147 -28696737.13345  21910005.5634                   21910000.9774
 11  8 17  2 55 30.0000000  0  8G12G25G26G05G15G29G21G02
 -21157465.46647 -16470996.73545  22402632.7664                   22402630.7384
 -11620335.38048  -9039413.88246  21907010.2894                   21907009.6254
   6285910.10947   4909884.83544  22914996.9924                   22914994.3914
 -24635898.40747 -19181232.57346  20934941.5864                   20934939.0234
  16211817.12446  12647010.19844  23791709.8444                   23791708.8404
  -3293824.01648  -2553738.32346  21883164.6954
  21883161.7344   23515372.43646  18345565.14443  25193131.2974   25193130.4144
 -35298959.79848 -27489430.08145  22204841.6954                   22204836.9534
 11  8 17  2 56  0.0000000  0  8G12G25G26G05G15G29G21G02
 -21144864.40547 -16461177.71445  22405030.6884                   22405028.4654
 -11658515.71848  -9069164.79546  21899744.6414                   21899744.6094
   6129720.31347   4788178.55444  22885274.8594                   22885272.2154
 -24654436.28047 -19195677.64846  20931413.9224                   20931411.1684
  16045415.39646  12517346.58644  23760045.4774                   23760043.9224
  -3437354.16748  -2665579.95646  21855851.5164
  21855849.3754   23388723.20146  18246877.57443  25169031.1564   25169029.0474
 -35324923.98348 -27509661.91145  22199901.0944                   22199896.4694
 11  8 17  2 56 30.0000000  0  8G12G25G26G05G15G29G21G02
 -21132001.79747 -16451154.90045  22407478.3204                   22407476.1294
 -11696193.55248  -9098524.14646  21892574.8054                   21892574.2544
   5973781.03247   4666667.47144  22855600.4534                   22855597.9654
 -24672574.62747 -19209811.40546  20927962.3754                   20927959.8054
  15879022.74046  12387690.01744  23728381.2664                   23728380.0984
  -3580697.78548  -2777276.25146  21828573.9224
  21828571.4734   23262069.38046  18148186.36643  25144929.3524   25144928.4614
 -35350808.35548 -27529831.54245  22194975.4144                   22194970.8754
 11  8 17  2 57  0.0000000  0  8G12G25G26G05G15G29G21G02
 -21118882.13347 -16440931.76845  22409975.1954                   22409972.8284
 -11733372.48848  -9127494.73246  21885499.5474                   21885499.5944
   5818094.41947   4545353.31044  22825973.6564                   22825972.5394
 -24690318.28048 -19223637.61246  20924586.0084                   20924583.6454
  15712640.36946  12258041.47444  23696720.1724                   23696718.6374
  -3723854.57748  -2888826.96446  21801332.2734
  21801330.3244   23135407.69046  18049488.99543  25120826.8364   25120825.5514
 -35376614.76248 -27549940.42845  22190064.5944                   22190060.4694
 11  8 17  2 57 30.0000000  0  8G12G25G26G05G15G29G21G02
 -21105509.57347 -16430511.58945  22412519.7734                   22412517.2624
 -11770055.69648  -9156079.05146  21878519.1954                   21878519.3284
   5662662.48246   4424237.58544  22796396.8204                   22796394.3834
 -24707669.95948 -19237158.38346  20921284.2194                   20921281.3324
  15546270.17547  12128402.45544  23665061.3444                   23665059.6174
  -3866823.34848  -3000231.17446  21774126.3674
  21774124.2504   23008736.99946  17950784.60743  25096721.5554   25096719.3364
 -35402344.59248 -27569989.64545  22185168.1414                   22185163.8364
 11  8 17  2 58  0.0000000  0  8G12G25G26G05G15G29G21G02
 -21091885.99947 -16419895.82245  22415112.0234                   22415109.9104
 -11806243.51248  -9184277.34346  21871632.7114                   21871632.9024
   5507490.54347   4303324.40844  22766868.5474                   22766866.1054
 -24724630.71148 -19250374.53646  20918056.4774                   20918053.6454
  15379916.17246  11998776.02144  23633404.5234                   23633403.3984
  -4009600.42748  -3111486.01046  21746956.3364
  21746954.1954   22882058.01946  17852073.85343  25072614.5164   25072613.0904
 -35427995.98848 -27589977.73745  22180287.3834                   22180282.1564
 11  8 17  2 58 30.0000000  0  8G12G25G26G05G15G29G21G02
 -21078014.98847 -16409087.23945  22417751.8594                   22417749.6954
 -11841938.50248  -9212091.60146  21864840.4144                   21864840.6174
   5352581.80947   4182616.36944  22737390.4064                   22737388.5944
 -24741203.70448 -19263288.54146  20914902.8754                   20914900.0044
  15213580.77846  11869164.08644  23601751.6564                   23601750.1454
  -4152184.47148  -3222590.42346  21719823.7114
  21719821.5474   22755369.34946  17753355.40443  25048507.4224   25048505.2814
 -35453569.26048 -27609904.96645  22175420.5704                   22175415.5004
 11  8 17  2 59  0.0000000  0  8G12G25G26G05G15G29G21G02
 -21063899.06247 -16398087.81345  22420437.7424                   22420435.4064
 -11877142.21148  -9239523.04646  21858141.4144                   21858141.6454
   5197940.04047   4062116.35845  22707962.7274                   22707961.0664
 -24757390.99048 -19275901.98846  20911822.0704                   20911819.5044
  15047267.39546  11739569.31044  23570103.8444                   23570101.9844
  -4294572.38148  -3333542.01146  21692727.8754
  21692726.1804   22628671.21346  17654629.65343  25024397.2974   25024395.8094
 -35479063.94748 -27629770.95145  22170569.1174                   22170564.5784
 11  8 17  2 59 30.0000000  0  8G12G25G26G05G15G29G21G02
 -21049540.76247 -16386899.54545  22423170.8204                   22423168.3754
 -11911855.98448  -9266572.71846  21851534.9844                   21851535.6294
   5043569.78447   3941827.90845  22678587.3134                   22678586.1454
 -24773194.22548 -19288216.18646  20908814.9924                   20908812.0204
  14880979.58846  11609994.45444  23538460.2584                   23538458.7814
  -4436761.61348  -3444338.77846  21665670.4844
  21665668.4344   22501963.25946  17555896.28142  25000285.1644   25000283.2114
 -35504479.40948 -27649575.20745  22165732.8054                   22165727.6724
 11  8 17  3  0  0.0000000  0  8G12G25G26G05G15G29G21G02
 -21034944.60347 -16375525.92045  22425948.2504                   22425945.8134
 -11946083.51248  -9293243.51246  21845022.3524                   21845022.0084
   4889472.81247   3821752.39645  22649263.4224                   22649262.2894
 -24788617.52748 -19300234.33946  20905880.5234                   20905877.6804
  14714718.55346  11480440.49344  23506822.0474                   23506819.9024
  -4578751.57648  -3554980.28846  21638650.4224
  21638648.6374   22375243.25746  17457153.53542  24976170.8134   24976169.6484
 -35529817.11747 -27669318.88445  22160911.3524                   22160906.5474
 11  8 17  3  0 30.0000000  0  8G12G25G26G05G15G29G21G02
 -21020112.45747 -16363968.41145  22428771.0704                   22428768.2384
 -11979825.28648  -9319535.79246  21838601.2344                   21838601.3164
   4735654.43847   3701893.98745  22619992.7114                   22619991.1724
 -24803661.37948 -19311956.80646  20903017.3984                   20903014.8484
  14548488.89946  11350910.97644  23475189.0704                   23475186.9734
  -4720538.38948  -3665463.49246  21611669.4614
  21611667.1684   22248512.59346  17358402.48042  24952054.7344   24952053.7664
 -35555075.31647 -27689000.60945  22156104.9844                   22156100.3324
 11  8 17  3  1  0.0000000  0  8G12G25G26G05G15G29G21G02
 -21005046.35747 -16352228.60545  22431637.1254                   22431634.7894
 -12013082.20748  -9345450.26646  21832273.0864                   21832272.5274
   4582119.22647   3582256.19245  22590775.8754                   22590774.5594
 -24818327.29048 -19323384.78246  20900226.4534                   20900223.7814
  14382294.46546  11221408.87844  23443563.3204                   23443561.5944
  -4862118.61848  -3775785.71246  21584727.4614
  21584725.0164   22121771.45746  17259643.18442  24927937.7114   24927934.6214
 -35580252.70148 -27708619.36045  22151313.3914                   22151309.4344
 11  8 17  3  1 30.0000000  0  8G12G25G26G05G15G29G21G02
 -20989751.05547 -16340310.20745  22434547.5554                   22434545.5044
 -12045857.85048  -9370989.70646  21826035.6564                   21826035.3714
   4428869.32047   3462840.73645  22561613.1804                   22561611.3204
 -24832619.39647 -19334521.48046  20897506.6024                   20897504.3794
  14216136.59247  11091935.31044  23411944.3984                   23411942.3914
  -5003491.68848  -3885946.49646  21557825.2114
  21557823.0434   21995017.85446  17160874.21542  24903816.0004   24903814.1954
 -35605350.58347 -27728176.15345  22146538.0944                   22146533.1764
 11  8 17  3  2  0.0000000  0  8G12G25G26G05G15G29G21G02
 -20974229.98747 -16328215.87445  22437501.3754                   22437499.3794
 -12078154.94248  -9396156.26046  21819889.8524                   21819889.5824
   4275908.05547   3343650.18145  22532506.1414                   22532503.8284
 -24846540.61047 -19345369.16546  20894857.9144                   20894854.8874
  14050017.82747  10962492.19744  23380333.1254                   23380331.1564
  -5144655.94948  -3995944.59046  21530962.5394
  21530960.4264   21868250.37846  17062094.45742  24879693.3754   24879691.6454
 -35630369.41548 -27747671.34745  22141776.6564                   22141772.1134
 11  8 17  3  2 30.0000000  0  8G12G25G26G05G15G29G21G02
 -20958485.37647 -16315947.35045  22440497.8914                   22440495.1644
 -12109974.79448  -9420950.94646  21813834.7814                   21813834.8954
   4123239.35147   3224687.63445  22503453.7664                   22503452.1724
 -24860092.56948 -19355929.12846  20892279.0944                   20892276.3134
  13883941.77347  10833082.35944  23348729.7974                   23348727.7734
  -5285608.26048  -4105777.51446  21504139.9694
  21504137.7734   21741469.17446  16963303.97943  24855568.7584   24855565.2114
 -35655308.17947 -27767104.14245  22137031.1954                   22137026.5864
 11  8 17  3  3  0.0000000  0  8G12G25G26G05G15G29G21G02
 -20942519.39147 -16303506.32945  22443535.9694                   22443533.6024
 -12141318.73848  -9445374.78846  21807869.5864                   21807869.6914
   3970867.85447   3105956.65445  22474458.8914                   22474457.0744
 -24873276.69848 -19366202.47046  20889769.8054                   20889766.9694
  13717912.21547  10703708.74244  23317135.6884                   23317132.5664
  -5426345.64948  -4215442.98146  21477358.7114
  21477356.1054   21614674.63746  16864503.10942  24831439.5234   24831436.9024
 -35680166.17648 -27786474.01645  22132300.8754                   22132296.3094
 11  8 17  3  3 30.0000000  0  8G12G25G26G05G15G29G21G02
 -20926335.40747 -16290895.44745  22446615.5314                   22446613.2504
 -12172188.85148  -9469429.42346  21801995.4844                   21801995.7304
   3818797.32247   2987460.17345  22445520.4924                   22445518.9144
 -24886095.72648 -19376191.31446  20887330.9614                   20887327.6764
  13551932.21347  10574373.72944  23285550.5234                   23285547.8754
  -5566865.60548  -4324939.00646  21450618.3364
  21450616.4024   21487866.09846  16765691.30143  24807308.5864   24807306.0234
 -35704943.10647 -27805780.72645  22127585.8444                   22127581.6054
 11  8 17  3  4  0.0000000  0  8G12G25G26G05G15G29G21G02
 -20909935.28247 -16278116.13145  22449736.9144                   22449734.2114
 -12202586.30248  -9493115.75746  21796211.1884                   21796210.9804
   3667032.15547   2869201.66245  22416640.1414                   22416638.2114
 -24898550.84548 -19385896.60046  20884960.6094                   20884957.8134
  13386005.76847  10445080.45344  23253975.7974                   23253973.6954
  -5707165.15948  -4434263.28046  21423920.0634
  21423918.0434   21361044.40546  16666869.26843  24783175.8364   24783174.1914
 -35729637.62147 -27825023.20745  22122886.5394                   22122881.5784
 11  8 17  3  4 30.0000000  0  8G12G25G26G05G15G29G21G02
 -20893322.77847 -16265171.33145  22452897.8444                   22452895.2894
 -12232513.61048  -9516435.73046  21790516.6094                   21790516.4184
   3515575.85447   2751183.81144  22387818.9844                   22387816.7544
 -24910644.90148 -19395320.53246  20882658.9384                   20882656.0394
  13220135.35347  10315830.86944  23222411.4774                   23222409.8204
  -5847242.34048  -4543414.27946  21397264.4614
  21397262.5274   21234208.49546  16568036.17843  24759039.4304   24759038.1214
 -35754249.89947 -27844201.60445  22118203.1954                   22118198.5004
 11  8 17  3  5  0.0000000  0  8G12G25G26G05G15G29G21G02
 -20876501.91947 -16252064.18945  22456098.8134                   22456096.2114
 -12261973.94948  -9539391.83446  21784910.4844                   21784910.3914
   3364430.93847   2633408.59144  22359056.5234                   22359055.5274
 -24922381.41647 -19404465.85346  20880425.6024                   20880422.7234
  13054322.97947  10186626.47244  23190858.1094                   23190856.1214
  -5987095.78348  -4652390.93746  21370651.2504
  21370648.7894   21107356.28846  16469190.36443  24734899.6644   24734898.0704
 -35778780.65148 -27863316.47645  22113535.1804                   22113530.2814
 11  8 17  3  5 30.0000000  0  8G12G25G26G05G15G29G21G02
 -20859474.79347 -16238796.30645  22459338.9614                   22459337.1134
 -12290968.86348  -9561985.26346  21779392.6024                   21779392.9924
   3213601.61347   2515879.29045  22330355.5784                   22330353.6844
 -24933761.86447 -19413333.73546  20878259.7974                   20878257.6914
  12888572.28047  10057470.16044  23159317.7274                   23159315.2544
  -6126722.58548  -4761191.00146  21344081.5704
  21344078.4654   20980488.16247  16370332.16843  24710758.5944   24710756.0864
 -35803229.29348 -27882367.37145  22108882.7274                   22108877.9144
 11  8 17  3  6  0.0000000  0  8G12G25G26G05G15G29G21G02
 -20842243.44847 -16225369.30045  22462618.0474                   22462615.1414
 -12319498.80548  -9584216.38746  21773963.7114                   21773963.6884
   3063093.27847   2398600.13245  22301713.7584                   22301712.0354
 -24944787.00048 -19421924.73946  20876162.1804                   20876158.8444
  12722888.06747   9928365.63344  23127788.2894                   23127786.2624
  -6266118.67448  -4869811.28146  21317555.2034
  21317552.6524   20853605.52046  16271462.72743  24686612.3054   24686610.3754
 -35827593.40047 -27901352.38045  22104246.1954                   22104241.2544
 11  8 17  3  6 30.0000000  0  8G12G25G26G05G15G29G21G02
 -20824814.33347 -16211788.17045  22465934.4064                   22465931.9574
 -12347569.72648  -9606089.83546  21768621.8364                   21768621.5274
   2912905.74947   2281570.95145  22273134.7114                   22273132.6254
 -24955463.42147 -19430244.02046  20874130.2584                   20874127.1214
  12557269.73047   9799312.45345  23096271.8594                   23096270.5314
  -6405285.16648  -4978252.66646  21291072.8134
  21291070.3054   20726703.90246  16172578.46143  24662463.4534   24662462.5394
 -35851876.59047 -27920274.35745  22099625.2344                   22099620.8954
 11  8 17  3  7  0.0000000  0  8G12G25G26G05G15G29G21G02
 -19231768.24347 -14970453.56745  22769081.1414                   22769078.4024
 -10799760.13948  -8400004.44746  22063160.3134                   22063160.7274
   4338470.62547   3392400.75245  22544410.5394                   22544408.5394
 -23390370.10647 -18210690.78646  21171957.6254                   21171954.6564
  13967148.53347  10897919.38444  23364562.6254                   23364561.4344
  -4968792.53448  -3858907.70146  21564427.8054
  21564425.3444   22175209.73847  17301284.38143  24938105.7584   24938104.5434
 -34300655.13347 -26711530.35745  22394813.4614                   22394808.3484
 11  8 17  3  7 30.0000000  0  8G12G25G26G05G15G29G21G02
 -19213947.24747 -14956567.08245  22772472.3914                   22772469.8834
 -10826914.27748  -8421163.52746  22057993.1564                   22057992.7424
   4188941.33147   3275884.49145  22515956.4534                   22515954.3404
 -23400350.30748 -18218467.55646  21170058.2974                   21170055.2704
  13801676.29847  10768980.05044  23333074.6724                   23333072.7894
  -5107487.93248  -3966981.99346  21538035.0314                   21538032.2894
  22048274.14946  17202373.63143  24913950.1334                   24913948.8244
 -34324770.69647 -26730321.70045  22390224.3364                   22390219.9064
 11  8 17  3  8  0.0000000  0  8G12G25G26G05G15G29G21G02
 -19195934.05047 -14942530.84445  22775900.3054                   22775897.7704
 -10853612.55648  -8441967.38346  22052912.6024                   22052912.7624
   4039747.35447   3159629.47245  22487565.4694                   22487563.6844
 -23409985.18547 -18225975.25346  21168225.1484                   21168222.3594
  13636282.52947  10640101.84445  23301601.2424                   23301599.0864
  -5245943.38048  -4074869.31146  21511687.5394                   21511685.5234
  21921321.38846  17103449.49843  24889792.2814                   24889790.6724
 -34348801.09947 -26749046.69345  22385651.2424                   22385646.5274
 11  8 17  3  8 30.0000000  0  8G12G25G26G05G15G29G21G02
 -19177732.36347 -14928347.71445  22779363.8914                   22779361.7194
 -10879858.22748  -8462418.54946  22047918.0164                   22047918.2624
   3890891.58147   3043638.01345  22459238.8054                   22459236.9734
 -23419277.97848 -18233216.37146  21166456.5164                   21166453.5004
  13470969.26747  10511286.39544  23270142.9614                   23270141.1724
  -5384157.62848  -4182568.67546  21485386.4924                   21485384.2814
  21794350.35946  17004511.15843  24865630.1094                   24865628.7304
 -34372746.84047 -26767705.70345  22381094.6414                   22381089.7074
 11  8 17  3  9  0.0000000  0  8G12G25G26G05G15G29G21G02
 -19159344.74447 -14914019.71345  22782862.8054                   22782859.9844
 -10905652.44148  -8482517.94746  22043009.7814                   22043009.7464
   3742378.41347   2927913.53145  22430977.7194                   22430976.1334
 -23428230.22047 -18240192.13346  21164753.0474                   21164750.3594
  13305740.82047  10382537.00244  23238700.6254                   23238699.0084
  -5522127.16248  -4290077.35446  21459131.6804                   21459128.7544
  21667361.65746  16905559.02243  24841464.7274                   24841463.0354
 -34396606.68047 -26786297.77945  22376553.9384                   22376549.7624
 11  8 17  3  9 30.0000000  0  8G12G25G26G05G15G29G21G02
 -19140774.48247 -14899549.40145  22786396.6884                   22786394.3634
 -10930998.02148  -8502267.73746  22038186.4144                   22038186.2344
   3594211.15347   2812458.57345  22402782.4144                   22402780.3954
 -23436844.90448 -18246904.86246  21163113.7344                   21163110.8164
  13140599.76247  10253855.73644  23207276.2344                   23207273.5204
  -5659849.93048  -4397393.75046  21432924.0394                   21432920.8014
  21540354.02046  16806592.13543  24817295.1804                   24817294.5354
 -34420380.93547 -26804823.15345  22372030.1334                   22372025.7814
 11  8 17  3 10  0.0000000  0  8G12G25G26G05G15G29G21G02
 -19122024.64747 -14884939.17445  22789964.4144                   22789962.1684
 -10955897.23048  -8521669.73146  22033448.3674                   22033448.0824
   3446393.32147   2697275.89945  22374653.7424                   22374651.9384
 -23445124.24648 -18253356.28746  21161538.2274                   21161535.1884
  12975548.91147  10125244.73944  23175867.9224                   23175865.9534
  -5797323.78048  -4504516.18446  21406763.2894                   21406761.2464
  21413327.27446  16707610.33143  24793123.7584                   24793122.4884
 -34444069.16347 -26823281.51245  22367522.4924                   22367517.3594
 11  8 17  3 10 30.0000000  0  8G12G25G26G05G15G29G21G02
 -19103097.64647 -14870190.86045  22793565.9774                   22793564.2664
 -10980351.73348  -8540725.19646  22028794.9844                   22028795.0944
   3298929.32947   2582368.93845  22346592.2584                   22346589.8754
 -23453070.14448 -18259547.89446  21160026.4384                   21160023.1054
  12810592.20147   9996707.10144  23144477.0004                   23144475.2464
  -5934545.58448  -4611442.23046  21380651.1174                   21380648.4184
  21286281.28546  16608613.62743  24768946.4924                   24768945.3984
 -34467670.30947 -26841672.00645  22363030.9844                   22363026.5164
 11  8 17  3 11  0.0000000  0  8G12G25G26G05G15G29G21G02
 -19083998.80347 -14855308.64845  22797200.3444                   22797198.4734
 -11004366.03748  -8559437.65346  22024225.1644                   22024225.0944
   3151820.76247   2467738.93845  22318598.5164                   22318595.7974
 -23460686.94248 -18265483.04646  21158576.7424                   21158573.6954
  12645730.83147   9868243.77044  23113105.1564                   23113103.5554
  -6071515.01048  -4718171.61846  21354586.9774                   21354583.8874
  21159213.44746  16509599.78243  24744767.2734                   24744764.7814
 -34491186.13547 -26859996.02845  22358556.3444                   22358551.5554
 11  8 17  3 11 30.0000000  0  8G12G25G26G05G15G29G21G02
 -19064731.32547 -14840295.04745  22800867.0314                   22800864.6684
 -11027943.04148  -8577809.34746  22019738.9534                   22019738.3364
   3005070.54547   2353388.15645  22290672.7664                   22290670.5004
 -23467977.95448 -18271164.35046  21157189.3524                   21157186.0594
  12480967.05847   9739856.48144  23081751.8444                   23081749.7424
  -6208230.38548  -4824703.03946  21328570.2114                   21328568.2544
  21032122.90446  16410568.35643  24720583.7034                   24720580.5204
 -34514617.04347 -26878253.85945  22354097.2734                   22354093.2894
 11  8 17  3 12  0.0000000  0  8G12G25G26G05G15G29G21G02
 -19045296.07147 -14825150.72445  22804565.6564                   22804563.1764
 -11051082.73048  -8595840.27546  22015335.3524                   22015335.2934
   2858684.51447   2239321.18045  22262816.6884                   22262814.8524
 -23474942.90047 -18276591.56746  21155864.0394                   21155860.8094
  12316306.58947   9611549.69245  23050417.5164                   23050415.8404
  -6344686.79648  -4931032.66746  21302603.4384                   21302600.5904
  20905011.35346  16311520.49643  24696393.7894                   24696390.9264
 -34537960.20748 -26896443.32545  22349655.5084                   22349651.3284
 11  8 17  3 12 30.0000000  0  8G12G25G26G05G15G29G21G02
 -19025697.66847 -14809879.26545  22808294.4694                   22808292.4924
 -11073788.89848  -8613533.39846  22011014.2424                   22011014.4384
   2712664.96448   2125539.76445  22235030.1884                   22235027.9064
 -23481585.63047 -18281767.71946  21154599.8134                   21154597.0044
  12151750.79947   9483324.45345  23019103.8984                   23019101.9264
  -6480883.59548  -5037159.99846  21276685.8834                   21276683.3484
  20777877.10746  16212454.99943  24672200.5864                   24672198.4414
 -34561216.92047 -26914565.43745  22345229.7974                   22345225.3014
 11  8 17  3 13  0.0000000  0  8G12G25G26G05G15G29G21G02
 -19005939.26147 -14794483.12645  22812055.3754                   22812052.8054
 -11096064.31648  -8630890.85746  22006775.4304                   22006775.5594
   2567015.11147   2012046.40345  22207313.9844                   22207311.7814
 -23487909.02847 -18286695.03646  21153396.7194                   21153393.4384
  11987302.75647   9355183.20945  22987809.8984                   22987808.2624
  -6616818.00848  -5143082.89046  21250818.6024                   21250815.7734
  20650719.58646  16113371.29643  24648003.3134                   24648002.0824
 -34584386.91548 -26932619.96745  22340821.0394                   22340816.2464
 11  8 17  3 13 30.0000000  0  8G12G25G26G05G15G29G21G02
 -18986024.78547 -14778965.36445  22815844.8054                   22815842.2424
 -11117911.89248  -8647914.93146  22002617.7734                   22002617.8484
   2421738.35448   1898843.77945  22179668.3444                   22179666.0744
 -23493916.15548 -18291375.90446  21152253.4144                   21152250.5044
  11822965.00147   9227127.87045  22956538.0554                   22956535.7194
  -6752488.96048  -5248800.48946  21225001.1804                   21224998.8984
  20523537.30346  16014268.28143  24623801.5164                   24623799.5904
 -34607470.63747 -26950607.27345  22336428.2424                   22336423.2974
 11  8 17  3 14  0.0000000  0  9G12G25G18G26G05G15G29G21G02
 -18965955.48847 -14763326.97945  22819663.3834                   22819661.1254
 -11139332.45148  -8664606.29146  21998541.3134                   21998541.5394
  26550728.26956  20703237.59153  24631169.7584                   24631167.9304
   2276839.33947   1785935.50245  22152094.8674                   22152092.7194
 -23499607.91547 -18295811.03546  21151170.3054                   21151167.0474
  11658742.15847   9099162.10045  22925287.5944                   22925285.2584
  -6887892.42548  -5354309.63446  21199234.4304                   21199231.7194
  20396331.51946  15915147.10743  24599594.9144                   24599592.7704
 -34630465.85747 -26968525.60445  22332051.6644                   22332047.8554
 11  8 17  3 14 30.0000000  0  9G12G25G18G26G05G15G29G21G02
 -18945738.61147 -14747573.57945  22823511.1024                   22823508.9494
 -11160332.85248  -8680970.23946  21994545.6954                   21994545.8054
  26390766.08746  20578591.95743  24600730.7424                   24600728.8484
   2132317.59347   1673321.19845  22124593.1254                   22124591.2034
 -23504990.64848 -18300005.36546  21150146.3204                   21150143.5204
  11494632.98647   8971284.88345  22894058.2894                   22894056.7464
  -7023030.20248  -5459611.76246  21173519.3754                   21173516.0984
  20269097.75146  15816003.98543  24575383.0394                   24575380.9454
 -34653376.73547 -26986378.23545  22327692.5704                   22327688.1524
 11  8 17  3 15  0.0000000  0  9G12G25G18G26G05G15G29G21G02
 -18925377.68447 -14731707.95145  22827385.1884                   22827382.6134
 -11180915.74648  -8697008.86846  21990628.5394                   21990629.1134
  26230952.33646  20454061.86843  24570319.1334                   24570316.9384
   1988176.36347   1561003.40045  22097163.7034                   22097161.8204
 -23510067.31148 -18303961.19846  21149180.1254                   21149176.9804
  11330640.34147   8843498.46245  22862851.9304                   22862849.8014
  -7157899.85748  -5564704.95846  21147853.8754                   21147851.3714
  20141834.95146  15716838.26643  24551165.4924                   24551162.3554
 -34676203.26047 -27004165.12645  22323348.4224                   22323344.5944
 11  8 17  3 15 30.0000000  0  9G12G25G18G26G05G15G29G21G02
 -18904875.58847 -14715732.29645  22831287.0004                   22831284.9184
 -11201083.38248  -8712723.90646  21986791.2034                   21986791.3324
  26071288.38046  20329648.49143  24539935.7814                   24539934.4574
   1844419.40847   1448985.05045  22069807.7114                   22069806.4494
 -23514840.03147 -18307680.19346  21148271.6484                   21148268.4694
  11166767.53247   8715805.44545  22831667.1954                   22831665.3554
  -7292498.93948  -5669587.31746  21122240.4144                   21122238.4104
  20014543.12246  15617650.01243  24526942.6644                   24526940.8554
 -34698944.44447 -27021885.51945  22319020.8754                   22319016.4734
 11  8 17  3 16  0.0000000  0  9G12G25G18G26G05G15G29G21G02
 -18884232.27047 -14699646.63245  22835215.7274                   22835213.1054
 -11220835.56148  -8728115.22546  21983032.3134                   21983032.4804
  25911778.43146  20205355.12243  24509582.0634                   24509579.7624
   1701052.87947   1337270.92245  22042525.7734                   22042524.0634
 -23519308.68348 -18311162.24946  21147421.2974                   21147418.5634
  11003020.47447   8588210.39945  22800507.4304                   22800505.5044
  -7426822.52648  -5774255.02946  21096679.7814                   21096677.0164
  19887224.31646  15518440.71643  24502714.6724                   24502712.7584
 -34721597.60447 -27039537.34145  22314710.4384                   22314705.4104
 11  8 17  3 16 30.0000000  0  9G12G25G18G26G05G15G29G21G02
 -18863445.19447 -14683448.93745  22839170.7504                   22839168.6094
 -11240168.99848  -8743180.24646  21979352.9454                   21979352.5164
  25752429.66946  20081187.33343  24479258.7584                   24479256.9694
   1558086.14047   1225868.30145  22015320.9144                   22015318.4844
 -23523469.74448 -18314404.62846  21146629.6564                   21146626.4224
  10839408.18147   8460720.35145  22769372.9224                   22769371.5164
  -7560862.29048  -5878701.55146  21071172.5004                   21071170.0594
  19759883.85146  15419214.51543  24478482.4384                   24478479.5984
 -34744156.28547 -27057115.51545  22310417.6254                   22310412.6454
 11  8 17  3 17  0.0000000  0  9G12G25G18G26G05G15G29G21G02
 -18842518.82747 -14667142.68645  22843152.8444                   22843150.6954
 -11259087.58748  -8757922.02646  21975752.8914                   21975752.7074
  25593241.98346  19957145.11143  24448967.0164                   24448964.9924
   1415521.54347   1114779.04645  21988191.3524                   21988189.2424
 -23527327.18047 -18317410.41146  21145895.5944                   21145892.8014
  10675932.38047   8333336.68345  22738264.8674                   22738262.5274
  -7694617.13448  -5982926.09046  21045720.1174                   21045717.5354
  19632520.37646  15319970.33443  24454246.6254                   24454243.7344
 -34766621.60647 -27074620.95445  22306142.3914                   22306137.9614
 11  8 17  3 17 30.0000000  0  9G12G25G18G26G05G15G29G21G02
 -18821456.67347 -14650730.62845  22847161.0634                   22847158.3954
 -11277594.29248  -8772342.84845  21972231.5474                   21972231.5704
  25434216.50246  19833229.24743  24418704.6954                   24418702.1454
   1273362.11147   1004005.52945  21961139.4304                   21961137.4144
 -23530883.84648 -18320181.83946  21145218.5314                   21145215.9924
  10512595.51347   8206061.26245  22707182.0004                   22707180.5044
  -7828085.39448  -6086927.29646  21020321.8914                   21020319.3134
  19505132.72246  15220707.39543  24430004.9844                   24430002.8484
 -34788993.74047 -27092053.79345  22301885.0314                   22301880.8134
 11  8 17  3 18  0.0000000  0  9G12G25G18G26G05G15G29G21G02
 -17224840.61747 -13406614.25345  23150986.8984                   23150984.5084
  -9720269.47448  -7558842.99746  22268580.7114   22268580.2344   26850780.85846
  20937045.71443                  24688268.4694                   24688265.6254
   2707037.78847   2121155.45045  22233957.9534                   22233956.4534
 -21958720.27748 -17095119.31046  21444391.4224                   21444388.8284
  11924828.04047   9306502.25345  22975920.8594                   22975919.0784
  -6385838.33148  -4963098.39046  21294772.1484   21294769.6804   20953146.07746
  16349029.64043                  24705552.0314                   24705550.1764
 -33235849.78247 -25881811.76145  22597438.8594                   22597434.1254
 11  8 17  3 18 30.0000000  0  9G12G25G18G26G05G15G29G21G02
 -17203513.32247 -13389995.60945  23155045.2424                   23155042.3714
  -9737957.65948  -7572626.00446  22265214.7974   22265214.5434   26692085.20446
  20813386.83243                  24658070.1954                   24658066.5434
   2565701.56047   2011023.37645  22207063.0234                   22207061.4804
 -21961680.07348 -17097425.64346  21443828.2274                   21443825.3054
  11761781.61147   9179453.12145  22944894.7734                   22944892.2384
  -6518723.21048  -5066645.03146  21269485.1254   21269482.8164   20825710.87246
  16249729.63843                  24681302.2504                   24681298.9694
 -33258031.88947 -25899096.52145  22593218.0704                   22593213.2704
 11  8 17  3 19  0.0000000  0  9G12G25G18G26G05G15G29G21G02
 -17182058.29647 -13373277.39945  23159128.0864                   23159126.2034
  -9755240.67248  -7586093.29746  22261925.6884   22261925.5044   26533556.59946
  20689858.15543                  24627901.5474                   24627899.1604
   2424781.90147   1901215.90645  22180246.7814                   22180244.6484
 -21964345.45648 -17099502.55646  21443321.0554                   21443318.1524
  11598884.70647   9052520.54945  22913896.6094                   22913894.1954
  -6651313.11448  -5169961.82246  21244254.2424   21244252.0004   20698251.26446
  16150410.61043                  24657046.9614                   24657045.1374
 -33280118.58847 -25916306.93845  22589014.7424                   22589010.1564
 11  8 17  3 19 30.0000000  0  9G12G25G18G26G05G15G29G21G02
 -17160477.60047 -13356461.27845  23163234.8284                   23163233.4304
  -9772120.19248  -7599246.18346  22258713.6254   22258713.7584   26375196.84046
  20566461.05543                  24597767.3674                   24597765.5084
   2284283.06647   1791736.33245  22153510.5394                   22153508.9304
 -21966718.04548 -17101351.32746  21442869.5704                   21442866.5984
  11436141.20247   8925707.46545  22882927.3444                   22882924.7774
  -6783604.72148  -5273046.17446  21219079.8674   21219077.7114   20570767.60146
  16051072.82343                  24632788.7194                   24632785.5594
 -33302108.59847 -25933442.03345  22584830.2034                   22584825.9734
 11  8 17  3 20  0.0000000  0  9G12G25G18G26G05G15G29G21G02
 -17138775.74047 -13339550.73445  23167364.8134                   23167362.4924
  -9788600.14248  -7612087.71246  22255577.7114   22255578.2274   26217006.13446
  20443195.66143                  24567664.7974                   24567662.9384
   2144207.20847   1682586.36145  22126855.0634                   22126853.3754
 -21968801.20748 -17102974.55846  21442472.9454                   21442470.4184
  11273553.22847   8799015.58445  22851987.5314                   22851985.1684
  -6915597.15248  -5375897.39746  21193962.5864   21193960.0944   20443258.26646
  15951715.04743                  24608523.7114                   24608521.5984
 -33324002.63647 -25950502.33245  22580663.8204                   22580659.1844
 11  8 17  3 20 30.0000000  0  9G12G25G18G26G05G15G29G21G02
 -17116957.32047 -13322549.40545  23171516.5864                   23171514.1954
  -9804684.71048  -7624621.15846  22252516.8054   22252517.3874   26058983.76346
  20320061.47243                  24537594.1254                   24537590.8134
   2004556.35347   1573767.55345  22100280.4534                   22100278.9694
 -21970599.22148 -17104375.59846  21442130.7114                   21442128.4414
  11111122.40047   8672446.17045  22821078.1884                   22821075.6804
  -7047289.52348  -5478514.81846  21168902.4454   21168899.8714   20315721.15446
  15852335.58843                  24584253.6414                   24584251.9184
 -33345802.30047 -25967489.08945  22576515.4924                   22576511.0394
 11  8 17  3 21  0.0000000  0  9G12G25G18G26G05G15G29G21G02
 -17095024.06847 -13305458.56945  23175690.3754                   23175688.3874
  -9820375.47448  -7636847.75146  22249531.1174   22249531.5204   25901132.58046
  20197060.65643                  24507555.5944                   24507552.8594
   1865335.01247   1465283.41445  22073787.0314                   22073785.9024
 -21972113.17848 -17105555.29546  21441842.6094                   21441840.1024
  10948852.71647   8546002.29945  22790198.9224                   22790196.5704
  -7178678.16848  -5580895.56146  21143899.9774   21143897.5594   20188156.79647
  15752934.99343                  24559979.1804                   24559976.3914
 -33367505.79647 -25984400.89945  22572385.6174                   22572380.8364
 11  8 17  3 21 30.0000000  0  9G12G25G18G26G05G15G29G21G02
 -17072980.80947 -13288281.98945  23179884.8594                   23179882.6294
  -9835676.70848  -7648770.79746  22246619.7504   22246619.7934   25743451.88746
  20074192.60443                  24477550.7974                   24477548.2584
   1726544.93247   1357135.34845  22047376.5474                   22047375.0474
 -21973347.60848 -17106517.18646  21441608.3204                   21441605.3244
  10786745.48747   8419685.03745  22759351.1414                   22759349.2504
  -7309762.41148  -5683039.11346  21118955.4454   21118953.0314   20060563.09847
  15653511.38943                  24535699.1564                   24535696.8364
 -33389114.46847 -26001238.85645  22568273.4304                   22568269.5664
 11  8 17  3 22  0.0000000  0  9G12G25G18G26G05G15G29G21G02
 -17050830.15247 -13271021.75845  23184100.5704                   23184097.6484
  -9850590.98948  -7660392.33346  22243781.3134   22243780.9534   25585942.87946
  19951458.47543                  24447576.3134                   24447574.3754
   1588189.58947   1249326.01645  22021048.4224                   22021046.3984
 -21974304.72748 -17107262.97446  21441425.5234                   21441422.9804
  10624804.28847   8293497.14345  22728534.7894                   22728531.8634
  -7440539.95148  -5784943.66746  21094069.0864   21094066.6174   19932940.01846
  15554064.91143                  24511412.6414                   24511410.5164
 -33410627.97247 -26018002.63645  22564179.8284                   22564175.8134
 11  8 17  3 22 30.0000000  0  9G12G25G18G26G05G15G29G21G02
 -17028573.96447 -13253679.26545  23188335.2034                   23188333.2194
  -9865119.22448  -7671713.05046  22241016.7734   22241017.0084   25428608.88746
  19828860.65643                  24417636.1644                   24417635.5514
   1450274.20747   1141859.50845  21994804.2894                   21994802.1884
 -21974984.94147 -17107793.01746  21441296.3524                   21441293.1094
  10463033.99747   8167442.42645  22697750.6094                   22697747.6994
  -7571006.71348  -5886606.05546  21069242.1564   21069239.1644   19805288.75647
  15454596.54843                  24487121.6644                   24487119.0864
 -33432043.78947 -26034690.30545  22560104.7664                   22560100.2154
 11  8 17  3 23  0.0000000  0  9G12G25G18G26G05G15G29G21G02
 -17006217.68147 -13236258.79945  23192589.5784                   23192587.3714
  -9879266.78448  -7682737.13146  22238324.5864   22238325.1134   25271448.44546
  19706398.10543                  24387730.3914                   24387728.2734
   1312799.45148   1034736.34145  21968643.1954                   21968641.4654
 -21975393.38148 -17108111.27046  21441218.8134                   21441215.9964
  10301435.38247   8041521.46845  22666999.9694                   22666997.3834
  -7701162.72548  -5988026.31646  21044474.0634   21044471.8874   19677606.34346
  15355103.83943                  24462824.3914                   24462821.9494
 -33453364.68747 -26051303.98045  22556047.0634                   22556043.1644
 11  8 17  3 23 30.0000000  0  9G12G25G18G26G05G15G29G21G02
 -16983762.07147 -13218760.91345  23196863.0554                   23196860.5634
  -9893034.03148  -7693464.86746  22235704.9384   22235704.8594   25114464.83846
  19584073.32043                  24357857.6024                   24357854.5514
   1175770.96947    927960.94745  21942567.7664                   21942565.8444
 -21975530.40048 -17108218.02046  21441192.1644                   21441189.4384
  10140013.49647   7915738.23545  22636282.3284                   22636279.5474
  -7831003.36348  -6089200.81746  21019766.5634   21019763.7544   19549894.54546
  15255588.25943                  24438521.2664                   24438518.7424
 -33474587.48547 -26067841.24545  22552008.2814                   22552004.0044
 11  8 17  3 24  0.0000000  0  9G12G25G18G26G05G15G29G21G02
 -16961210.24347 -13201188.05245  23201154.5314                   23201151.5394
  -9906423.79548  -7703898.44745  22233157.1724   22233157.3164   24957659.44646
  19461887.42643                  24328017.5004                   24328015.4304
   1039192.32747    821536.06245  21916577.0864                   21916576.0864
 -21975398.53048 -17108115.25846  21441217.3674                   21441214.5634
   9978771.26547   7790094.97645  22605598.6414                   22605596.6174
  -7960526.50547  -6190127.92146  20995118.9224   20995116.5084   19422153.02046
  15156049.51543                  24414213.6414                   24414209.8364
 -33495711.99847 -26084301.89645  22547988.9064                   22547984.1484
 11  8 17  3 24 30.0000000  0  9G12G25G18G26G05G15G29G21G02
 -16938565.02347 -13183542.43745  23205464.2274                   23205461.7304
  -9919438.95147  -7714040.14245  22230679.7894   22230680.2974   24801032.98546
  19339841.00843                  24298212.9454                   24298210.2974
    903066.36948    715463.92245  21890673.4144                   21890671.5944
 -21975000.22448 -17107804.87346  21441293.5164                   21441290.2664
   9817711.86347   7664594.18545  22574949.5784                   22574947.5084
  -8089729.89147  -6290805.86246  20970532.2974   20970530.0044   19294381.12446
  15056487.09943                  24389898.1174                   24389895.5784
 -33516737.92547 -26100685.74745  22543987.6254                   22543983.1564
 11  8 17  3 25  0.0000000  0  9G12G25G18G26G05G15G29G21G02
 -16915829.89347 -13165826.75445  23209789.4384                   23209787.3324
  -9932082.67847  -7723892.40246  22228274.0634   22228274.3244   24644586.33546
  19217934.58643                  24268441.6254                   24268439.0314
    767396.05048    609746.82245  21864856.9454                   21864854.5944
 -21974338.54648 -17107289.27446  21441418.8204                   21441416.5394
   9656838.17047   7539238.07845  22544336.8054                   22544333.8674
  -8218611.44147  -6391233.03046  20946006.9064   20946004.5044   19166577.90946
  14956900.29143                  24365578.7034                   24365576.1724
 -33537665.58847 -26116993.03945  22540004.9924                   22540000.6764
 11  8 17  3 25 30.0000000  0  9G12G25G18G26G05G15G29G21G02
 -16893007.95047 -13148043.43444  23214132.0394                   23214130.3984
  -9944357.49647  -7733457.20146  22225938.2584   22225938.2544   24488320.80446
  19096169.43243                  24238706.0704                   24238703.6844
    632185.05948    504387.63645  21839126.8754                   21839124.2234
 -21973415.66348 -17106570.13046  21441594.8984                   21441592.7194
   9496153.19947   7414029.06145  22513759.8444                   22513756.5824
  -8347168.60648  -6491407.41946  20921543.3674   20921540.6414   19038743.34446
  14857289.02843                  24341252.3834                   24341249.7234
 -33558494.23347 -26133223.18845  22536041.2424                   22536036.2074
 11  8 17  3 26  0.0000000  0  9G12G25G18G26G05G15G29G21G02
 -16870101.90947 -13130194.57044  23218491.7194                   23218489.1484
  -9956265.86147  -7742736.44746  22223672.3444   22223672.1174   24332238.04246
  18974546.61643                  24209003.4534                   24209001.3404
    497436.86347    399389.10245  21813484.7814                   21813482.6334
 -21972233.63048 -17105649.06546  21441819.9454                   21441816.7194
   9335660.74647   7288970.05745  22483218.6804                   22483215.7774
  -8475398.94048  -6591327.13846  20897141.8204   20897139.6254   18910877.45746
  14757653.36643                  24316920.2194                   24316916.8134
 -33579223.09247 -26149375.55445  22532097.0314                   22532091.8874
 11  8 17  3 26 30.0000000  0  9G12G25G18G26G05G15G29G21G02
 -16847114.27347 -13112282.10944  23222865.7584                   23222864.0864
  -9967810.21147  -7751732.05246  22221474.5084   22221475.1414   24176339.57246
  18853067.35443                  24179337.3674                   24179335.1454
    363155.15647    294754.05745  21787931.6804                   21787929.8444
 -21970794.64948 -17104527.76546  21442093.8444                   21442090.5864
   9175364.25847   7164063.74945  22452715.1254                   22452712.3244
  -8603299.51548  -6690989.90746  20872803.4924   20872800.6214   18782980.13846
  14657993.15043                  24292582.0164                   24292579.5984
 -33599851.17447 -26165449.38345  22528172.2344                   22528166.7624
 11  8 17  3 27  0.0000000  0  9G12G25G18G26G05G15G29G21G02
 -16824049.05847 -13094309.22044  23227254.9534                   23227252.2274
  -9978994.10547  -7760446.77445  22219347.2974   22219346.8754   24020625.41046
  18731731.76643                  24149706.2504                   24149703.8674
    229342.27247    190484.29945  21762468.2814                   21762465.6764
 -21969101.87148 -17103208.71146  21442415.8594                   21442412.5904
   9015265.84147   7039311.77445  22422249.7894                   22422247.2894
  -8730868.50048  -6790394.29546  20848527.3444   20848525.3364   18655050.25046
  14558307.58943                  24268237.9534                   24268235.2274
 -33620379.07047 -26181445.16345  22524265.7504                   22524260.7464
 11  8 17  3 27 30.0000000  0  9G12G25G18G26G05G15G29G21G02
 -16800911.39147 -13076279.89444  23231657.6954                   23231655.6914
  -9989822.72347  -7768884.63746  22217286.3054   22217286.2154   23865094.52646
  18610538.94243                  24120109.0314                   24120107.2114
     95999.25047     86580.68045  21737093.8364                   21737091.5944
 -21967159.81248 -17101695.40846  21442785.7734                   21442782.4884
   8855366.31147   6914714.77445  22391821.6724                   22391819.4924
  -8858106.59748  -6889540.85246  20824315.0704   20824312.4384   18527084.91146
  14458594.39543                  24243886.9144                   24243884.5904
 -33640808.75347 -26197364.43745  22520377.6954                   22520373.5704
 11  8 17  3 28  0.0000000  0  9G12G25G18G26G05G15G29G21G02
 -16777701.85947 -13058194.55144  23236074.7894                   23236072.1804
 -10000296.28447  -7777045.86445  22215293.5164   22215293.4264   23709750.99946
  18489492.12043                  24090548.8594                   24090546.3754
    -36868.21047    -16952.37045  21711809.8284                   21711807.4144
 -21964968.39848 -17099987.82146  21443202.3594                   21443199.5514
   8695671.48647   6790277.29345  22361432.1954                   22361430.1884
  -8985008.62548  -6988425.52946  20800166.4924   20800163.5234   18399086.22146
  14358855.25743                  24219528.7194                   24219526.6764
 -33661137.29347 -26213204.88645  22516509.6174                   22516504.8874
 11  8 17  3 28 30.0000000  0  9G12G25G18G26G05G15G29G21G02
 -16754423.03047 -13040055.21344  23240504.2814                   23240501.9344
 -10010417.35547  -7784932.40945  22213367.3984   22213367.3914   23554595.61646
  18368591.96943                  24061022.3444                   24061020.8014
   -169256.19947   -120111.81945  21686617.2424                   21686615.0514
 -21962530.24348 -17098087.93946  21443666.3594                   21443663.3874
   8536184.98447   6666002.13645  22331083.4844                   22331081.1804
  -9111571.91848  -7087046.25446  20776081.9454   20776080.0824   18271054.72546
  14259090.51443                  24195165.1724                   24195163.1764
 -33681363.86747 -26228965.86245  22512660.9384                   22512656.0824
 11  8 17  3 29  0.0000000  0  9G12G25G18G26G05G15G29G21G02
 -16731080.93247 -13021866.58044  23244946.3754                   23244943.8324
 -10020191.81147  -7792548.86245  22211507.2814   22211507.4064   23399626.78246
  18247837.10243                  24031533.4144                   24031531.1954
   -301165.08047   -222897.92245  21661516.0004                   21661513.5744
 -21959850.46148 -17095999.80646  21444176.0084                   21444173.3834
   8376906.36947   6541888.98245  22300773.1024                   22300771.1134
  -9237796.94848  -7185403.40346  20752062.5084   20752059.4384   18142986.40446
  14159297.12243                  24170794.8984                   24170792.0434
 -33701491.04147 -26244649.40345  22508830.3134                   22508825.6724
 11  8 17  3 29 30.0000000  0  9G12G25G18G26G05G15G29G21G02
 -15132256.54547 -11776029.40244  23549192.9534                   23549190.7854
  -8454199.12847  -6572294.83545  22509505.6884   22509505.4384   24820273.67446
  19354834.77943                  24301873.1484                   24301870.9614
   1142835.89547    902297.67145  21936300.0784                   21936297.6684
 -20381508.67048 -15866123.07146  21744525.0084                   21744522.0474
   9793267.48647   7645547.04345  22570298.1254                   22570294.8484
  -7788254.49948  -6055889.79246  21027901.2274   21027898.7974   19590308.06646
  15287080.30243                  24446211.3754                   24446207.9224
 -32146094.77847 -25032652.31145  22804812.2894                   22804808.7624
 11  8 17  3 30  0.0000000  0  9G12G25G18G26G05G15G29G21G02
 -15108791.53147 -11757744.96644  23553657.5704                   23553655.6374
  -8463283.16547  -6579373.31145  22507777.1174   22507777.3754   24665686.83146
  19234377.62643                  24272455.4304                   24272453.8554
   1011900.84347    800270.39145  21911383.8594                   21911381.6334
 -20378347.34948 -15863659.69946  21745126.5004                   21745122.7544
   9634420.35347   7521770.09945  22540070.5004                   22540067.8094
  -7913791.13948  -6153710.53246  21004012.3524                   21004009.9804
  19462170.76046  15187233.13043  24421827.6414                   24421824.6214
 -32166016.34947 -25048175.65145  22801021.4454                   22801017.2464
 11  8 17  3 30 30.0000000  0  9G12G25G18G26G05G15G29G21G02
 -15085268.96646 -11739415.71544  23558134.2734                   23558131.5234
  -8472025.72147  -6586185.70746  22506113.8674   22506114.0824   24511292.91846
  19114070.80043                  24243077.2814                   24243073.9104
    881458.08047    698626.71245  21886561.5634                   21886559.1094
 -20374948.25848 -15861011.05246  21745772.8674                   21745770.0864
   9475794.13247   7398165.30845  22509884.9224                   22509882.1994
  -8038979.18348  -6251259.63146  20980189.5394                   20980187.2034
  19333999.29646  15087359.33443  24397436.5004                   24397434.2584
 -32185833.88147 -25063617.93245  22797250.3594                   22797245.7814
 11  8 17  3 31  0.0000000  0  9G12G25G18G26G05G15G29G21G02
 -15061691.55946 -11721043.72644  23562621.1484                   23562618.2664
  -8480429.70547  -6592734.26745  22504513.7584   22504514.7384   24357093.11046
  18993915.12343                  24213732.5314                   24213729.8984
    751510.64947    597368.99745  21861833.2894                   21861831.0314
 -20371314.02747 -15858179.18146  21746464.3444                   21746461.7624
   9317392.09447   7274735.19145  22479742.0704                   22479738.8834
  -8163816.49148  -6348535.43346  20956434.0474                   20956431.2034
  19205793.17546  14987458.50043  24373040.1884                   24373037.4964
 -32205546.96047 -25078978.80745  22793499.4064                   22793495.1024
 11  8 17  3 31 30.0000000  0  9G12G25G18G26G05G15G29G21G02
 -15038063.07247 -11702631.92944  23567117.3054                   23567114.7704
  -8488498.46947  -6599021.60345  22502979.1334   22502978.8554   24203088.03546
  18873911.36643                  24184426.8444                   24184424.2584
    622061.24247    496499.35345  21837199.9694                   21837197.2934
 -20367447.49448 -15855166.28946  21747200.2664                   21747197.4454
   9159216.83847   7151481.78545  22449642.3754                   22449639.3954
  -8288301.37648  -6445536.62946  20932745.2274                   20932742.5234
  19077551.74246  14887530.18343  24348636.3594                   24348634.4024
 -32225155.57047 -25094258.25645  22789767.9064                   22789763.0704
 11  8 17  3 32  0.0000000  0  9G12G25G18G26G05G15G29G21G02
 -15014385.97446 -11684182.27844  23571622.3134                   23571620.4614
  -8496234.47047  -6605049.65745  22501507.1094   22501506.6054   24049279.29246
  18754060.45043                  24155158.1024                   24155153.9804
    493113.30347    396020.46845  21812661.4614                   21812659.1294
 -20363350.67848 -15851973.96046  21747979.9144                   21747976.8834
   9001271.95447   7028407.89345  22419585.8364                   22419584.2074
  -8412430.74248  -6542260.78246  20909124.4924                   20909121.8134
  18949274.76946  14787574.24143  24324226.3594                   24324222.8204
 -32244659.00247 -25109455.76544  22786056.1024                   22786052.3634
 11  8 17  3 32 30.0000000  0  9G12G25G18G26G05G15G29G21G02
 -14990663.35446 -11665697.16244  23576136.2114                   23576134.2194
  -8503640.94647  -6610820.94745  22500097.8284   22500097.8164   23895667.43946
  18634362.97043                  24125926.5704                   24125923.5704
    364669.75047    295934.62245  21788219.9064                   21788217.1524
 -20359026.22048 -15848604.25946  21748802.5944                   21748799.7304
   8843560.04047   6905515.54545  22389574.5164                   22389572.1174
  -8536202.95848  -6638706.64646  20885571.2034                   20885568.7114
  18820961.72746  14687590.09543  24299809.2974                   24299805.5944
 -32264057.22147 -25124571.28844  22782364.8364                   22782360.4884
 11  8 17  3 33  0.0000000  0  9G12G25G18G26G05G15G29G21G02
 -14966899.25746 -11647179.72044  23580659.1334                   23580657.0984
  -8510721.52047  -6616338.27445  22498750.1644   22498749.9494   23742253.07246
  18514819.35343                  24096732.6884                   24096729.3914
    236732.80247    196243.51345  21763874.1254                   21763871.9804
 -20354476.92448 -15845059.34246  21749668.3984                   21749665.6094
   8686083.55047   6782806.63545  22359607.6804                   22359605.0704
  -8659616.22948  -6734872.81646  20862086.5004                   20862083.9884
  18692611.43246  14587577.03543  24275384.4064                   24275381.8324
 -32283350.28247 -25139604.86244  22778693.1804                   22778688.6604
 11  8 17  3 33 30.0000000  0  9G12G25G18G26G05G15G29G21G02
 -14943097.94946 -11628633.23544  23585188.2584                   23585186.0124
  -8517480.68347  -6621605.15745  22497464.0004   22497463.8674   23589035.27446
  18395428.95243                  24067575.8444                   24067572.6484
    109304.02847     96948.40345  21739625.1024                   21739622.4844
 -20349707.16648 -15841342.64546  21750576.0084                   21750573.5394
   8528843.93047   6660282.31245  22329686.0864                   22329683.5084
  -8782670.12548  -6830758.93946  20838669.9614                   20838667.5314
  18564222.33246  14487533.64743  24250953.6414                   24250950.2854
 -32302539.56947 -25154557.58845  22775042.5704                   22775037.4264
 11  8 17  3 34  0.0000000  0  9G12G25G18G26G05G15G29G21G02
 -14919258.92547 -11610057.41344  23589724.8524                   23589722.9574
  -8523917.85147  -6626621.13745  22496239.0314   22496238.8834   23436018.75846
  18276195.32943                  24038458.1334                   24038455.0704
    -17609.92347     -1945.55545  21715474.5164                   21715472.0744
 -20344715.61847 -15837453.12946  21751526.0474                   21751522.8284
   8371848.06447   6537947.92045  22299811.0394                   22299808.1644
  -8905358.83148  -6926360.49446  20815323.0394                   20815320.4104
  18435797.30746  14387462.31043  24226514.8284                   24226511.1804
 -32321621.01347 -25169426.26945  22771411.4304                   22771406.4384
 11  8 17  3 34 30.0000000  0  9G12G25G18G26G05G15G29G21G02
 -14895388.56146 -11591457.14944  23594266.8914                   23594264.7814
  -8530039.45747  -6631391.22545  22495074.2274   22495074.4384   23283201.24546
  18157116.81343                  24009377.8524                   24009374.7384
   -144009.87747   -100439.00045  21691420.9774                   21691418.4614
 -20339508.57448 -15833395.67746  21752516.7894                   21752513.6094
   8215095.52647   6415803.11445  22269981.0944                   22269979.1764
  -9027683.26848  -7021678.22746  20792045.3914                   20792043.0944
  18307332.62946  14287360.08044  24202068.5164                   24202065.1884
 -32340597.68747 -25184213.32844  22767799.7664                   22767795.1054
 11  8 17  3 35  0.0000000  0  9G12G25G18G26G05G15G29G21G02
 -14871488.77547 -11572833.97544  23598815.0784                   23598813.0234
  -8535847.21747  -6635916.75045  22493968.6884   22493969.1054   23130584.78346
  18038194.97643                  23980335.7814                   23980332.8094
   -269891.35947   -198528.43845  21667466.9694                   21667465.2154
 -20334086.98048 -15829171.06146  21753548.7814                   21753546.3954
   8058590.71647   6293851.36845  22240198.9694                   22240196.9734
  -9149640.03248  -7116709.43846  20768837.8914                   20768835.6414
  18178829.32646  14187227.73943  24177614.6254                   24177611.2814
 -32359467.83547 -25198917.35544  22764208.9614                   22764203.9414
 11  8 17  3 35 30.0000000  0  9G12G25G18G26G05G15G29G21G02
 -14847562.73046 -11554190.33744  23603367.9844                   23603366.1604
  -8541344.36147  -6640200.25245  22492922.6254   22492922.6414   22978169.75246
  17919430.12543                  23951330.7814                   23951329.3134
   -395251.66747   -296211.75345  21643611.1024                   21643609.5394
 -20328453.29648 -15824781.17346  21754621.0314                   21754617.5704
   7902336.08447   6172094.55445  22210465.4224                   22210462.7384
  -9271227.35548  -7211452.79246  20745700.5474                   20745698.3204
  18050286.58947  14087064.70543  24153154.5084                   24153151.1764
 -32378231.53647 -25213538.44145  22760638.6644                   22760633.3834
 11  8 17  3 36  0.0000000  0  9G12G25G18G26G05G15G29G21G02
 -14823611.90146 -11535527.37044  23607925.8134                   23607923.6334
  -8546532.52547  -6644242.98645  22491935.1724   22491935.9454   22825958.68946
  17800824.13443                  23922366.8594                   23922364.2704
   -520086.59947   -393485.69145  21619855.9224                   21619853.6994
 -20322608.93448 -15820227.11146  21755732.9064                   21755730.0004
   7746336.42747   6050536.41445  22180779.6334                   22180776.8674
  -9392441.50248  -7305905.35046  20722634.2424                   20722632.0204
  17921705.58246  13986871.82643  24128685.4384                   24128681.9694
 -32396886.97247 -25228075.17045  22757088.2814                   22757084.3754
 11  8 17  3 36 30.0000000  0  9G12G25G18G26G05G15G29G21G02
 -14799640.08346 -11516848.05544  23612487.4224                   23612485.4614
  -8551415.41647  -6648047.83845  22491006.1644   22491005.9694   22673951.91846
  17682377.37643                  23893441.7504                   23893438.2194
   -644393.84547   -490348.45645  21596201.1724                   21596199.1684
 -20316556.84148 -15815511.21246  21756884.7114                   21756881.1724
   7590593.95047   5929178.69045  22151142.7894                   22151140.8754
  -9513280.83748  -7400065.85346  20699639.2194                   20699636.5984
  17793085.19647  13886648.21243  24104210.3364                   24104206.1214
 -32415434.37747 -25242527.72545  22753559.1954                   22753554.8204
 11  8 17  3 37  0.0000000  0  9G12G25G18G26G05G15G29G21G02
 -14775650.40346 -11498154.81244  23617052.6884                   23617050.9064
  -8555996.37647  -6651617.43145  22490134.7194   22490134.3134   22522149.90646
  17564090.16743                  23864553.7814                   23864551.5314
   -768170.99047   -586798.12745  21572647.3674                   21572644.8014
 -20310299.70448 -15810635.50346  21758075.2974                   21758072.5084
   7435110.92247   5808023.13045  22121554.7664                   22121553.1054
  -9633743.79648  -7493933.06846  20676715.9144                   20676713.6524
  17664424.54846  13786393.33044  24079726.4694                   24079723.6764
 -32433873.56647 -25256895.95145  22750050.0784                   22750046.0434
 11  8 17  3 37 30.0000000  0  9G12G25G18G26G05G15G29G21G02
 -14751645.54047 -11479449.76344  23621621.0944                   23621618.4694
  -8560277.78547  -6654953.61245  22489320.0004   22489320.0234   22370554.33446
  17445963.83943                  23835706.1094                   23835704.1484
   -891414.29047   -682831.84845  21549194.9144                   21549191.9804
 -20303839.17248 -15805601.32846  21759304.9304                   21759301.8594
   7279891.89747   5687073.27745  22092018.0554                   22092015.4454
  -9753827.21648  -7587504.55846  20653864.7114                   20653862.1524
  17535724.48046  13686107.63143  24055236.0314                   24055232.5354
 -32452203.65847 -25271179.19945  22746561.6564                   22746558.0084
 11  8 17  3 38  0.0000000  0  9G12G25G18G26G05G15G29G21G02
 -14727628.03146 -11460734.81444  23626191.7424                   23626188.5234
  -8564262.60147  -6658058.67245  22488561.7894   22488561.4574   22219166.09446
  17327999.06043                  23806897.4614                   23806895.1334
  -1014121.20047   -778447.58745  21525844.5314                   21525842.3444
 -20297177.66548 -15800410.53646  21760572.3594                   21760569.1454
   7124939.56547   5566331.24545  22062531.5554                   22062528.9264
  -9873529.15948  -7680778.77546  20631086.2274                   20631083.1724
  17406984.37747  13585790.75244  24030737.2114                   24030733.7704
 -32470423.91147 -25285376.79444  22743094.7504                   22743090.7734
 11  8 17  3 38 30.0000000  0  9G12G25G18G26G05G15G29G21G02
 -14703601.10546 -11442012.57844  23630763.5704                   23630761.2154
  -8567953.87547  -6660934.99345  22487859.3054   22487859.7234   22067986.08046
  17210196.52043                  23778129.2974                   23778126.7274
  -1136288.81747   -873643.11745  21502596.3754                   21502594.0944
 -20290317.88148 -15795065.24746  21761877.8364                   21761874.7704
   6970256.99647   5445799.42245  22033096.1724                   22033093.8094
  -9992847.42948  -7773754.04847  20608380.6334                   20608377.7664
  17278203.94546  13485442.45744  24006231.1484                   24006228.1724
 -32488534.12347 -25299488.69144  22739648.5164                   22739644.3484
 11  8 17  3 39  0.0000000  0  9G12G25G18G26G05G15G29G21G02
 -14679567.46346 -11423285.12244  23635337.3134                   23635335.4224
  -8571354.84947  -6663585.10245  22487211.9844   22487211.7934   21917014.92546
  17092556.75643                  23749400.1804                   23749397.6094
  -1257914.52647   -968416.35345  21479452.0394                   21479449.7624
 -20283261.99348 -15789567.16346  21763220.4534                   21763217.6524
   6815846.58647   5325479.65445  22003712.9454                   22003710.4734
 -10111779.75848  -7866428.58447  20585748.6564                   20585746.0354
  17149382.85147  13385062.49844  23981717.4614                   23981713.7814
 -32506534.17647 -25313514.77145  22736223.2424                   22736219.1914
 11  8 17  3 39 30.0000000  0  9G12G25G18G26G05G15G29G21G02
 -14655532.06947 -11404556.26344  23639911.1024                   23639908.6914
  -8574470.17347  -6666012.61845  22486619.6094   22486619.2934   21766251.99846
  16975079.22643                  23720711.3594                   23720708.6094
  -1378997.06647  -1062766.35745  21456410.7734                   21456408.6994
 -20276014.32548 -15783919.61846  21764599.6024                   21764596.5704
   6661710.30347   5205373.50345  21974382.0164                   21974379.1134
 -10230325.53348  -7958801.88847  20563190.1564                   20563187.5984
  17020519.07847  13284649.21344  23957195.5394                   23957191.5354
 -32524425.05347 -25327455.73545  22732818.2274                   22732814.8714
